GFSWCAN_500_spd_000.txt.gz
Wind_Speed
47 48 49 41 41 38 36 34 33 30 26 25 23 22 22 20 19 18 29 32 31 28 28 25 24 24 26 25 23 18 14 13 13 13 12 12 13 14 16 21 20 19 19 18 18 18 20 19 23 27 28 31 34 37
51 50 49 45 44 43 40 36 34 30 28 27 26 26 25 24 23 22 21 28 35 33 32 31 28 27 29 29 30 27 22 18 16 17 18 17 17 17 19 20 23 22 21 21 22 23 23 27 29 30 34 37 40 43
50 49 51 46 50 46 41 38 34 32 31 29 29 28 28 27 27 27 24 22 26 35 35 37 35 31 31 31 32 33 31 29 27 26 24 23 22 22 21 20 25 25 25 25 27 28 32 34 35 38 39 41 44 47
48 47 50 46 48 48 43 40 36 34 33 30 30 30 29 30 28 29 27 26 24 25 32 34 33 34 34 34 33 34 36 36 35 34 33 32 28 27 25 26 27 28 29 29 30 32 37 38 41 42 44 46 48 50
49 46 47 46 50 46 42 40 37 36 34 32 31 32 31 30 31 29 28 29 28 28 25 26 29 31 33 35 36 37 38 39 40 38 35 32 30 28 28 29 30 35 32 32 32 36 37 40 44 47 49 52 53 54
47 44 46 46 47 45 44 41 39 37 36 34 32 32 32 31 30 30 30 29 29 32 31 31 29 28 27 27 28 29 34 36 38 37 36 31 29 29 30 29 37 35 34 36 39 41 43 44 47 49 52 54 56 58
46 42 43 45 47 46 44 41 39 38 37 35 33 33 33 33 32 30 30 30 31 30 30 32 33 32 32 30 29 28 29 31 33 34 33 31 30 30 30 31 42 38 39 41 44 47 48 49 51 54 57 58 59 60
58 49 47 44 48 48 46 43 41 41 39 37 35 34 34 33 33 32 31 32 32 32 33 31 29 30 32 33 33 33 33 35 35 34 34 35 34 35 34 40 42 43 45 47 48 50 53 56 59 60 61 61 59 57
63 56 53 52 50 48 46 46 47 44 39 40 39 36 35 34 35 35 35 34 34 35 33 31 31 30 32 33 35 36 37 38 37 38 40 41 39 35 43 41 44 45 48 50 54 57 59 61 63 62 57 53 53 56
66 55 53 49 48 49 47 47 49 47 43 39 44 42 37 37 38 37 37 37 38 37 34 32 33 34 34 34 34 37 39 40 40 40 41 43 38 41 42 44 48 51 54 57 59 62 61 60 55 51 51 53 55 57
68 68 61 55 56 50 46 43 44 47 46 43 37 40 43 42 40 38 39 36 36 35 34 35 35 35 36 37 38 40 41 43 44 43 46 46 42 47 51 54 57 59 60 59 57 54 50 48 49 52 54 55 56 59
67 74 71 63 54 48 48 42 44 44 48 45 41 42 44 43 43 44 45 43 39 38 38 35 36 38 38 38 39 39 41 45 48 47 50 51 52 54 55 55 53 51 49 48 47 47 48 50 51 52 53 55 56 59
67 70 73 69 67 62 52 48 46 42 46 46 44 43 43 45 46 47 45 43 38 30 29 32 32 33 35 39 41 43 45 46 45 46 48 49 48 46 46 45 44 45 45 45 47 48 49 50 51 52 54 56 59 62
63 70 70 69 66 66 56 50 48 49 48 48 48 47 46 49 47 45 45 43 38 36 32 32 32 32 31 32 35 37 39 38 38 38 40 40 40 43 44 44 46 46 46 47 49 50 51 51 52 55 57 60 63 67
60 62 68 71 69 68 63 59 60 55 52 53 53 53 50 47 46 45 43 44 43 41 36 35 37 35 35 36 36 35 35 38 38 39 38 41 43 43 44 45 46 47 48 50 52 52 53 56 58 60 61 63 67 70
61 61 63 67 71 69 67 69 66 58 59 59 57 53 50 48 48 47 46 45 45 45 43 41 40 40 39 37 35 36 37 40 41 41 42 43 44 45 47 48 48 49 50 52 53 55 57 58 59 61 64 67 70 72
53 58 61 65 66 67 70 70 69 67 70 67 58 55 54 52 51 49 48 49 48 49 49 46 44 43 43 41 39 38 42 44 43 44 45 46 46 47 49 49 50 51 53 55 56 57 59 61 62 64 67 71 73 70
53 50 53 59 62 62 61 61 65 67 71 70 62 58 57 56 55 53 52 51 50 49 49 50 50 49 46 46 46 45 44 43 44 46 48 48 49 50 51 52 53 54 55 56 58 59 59 60 63 67 70 70 65 59
53 50 49 50 50 54 59 59 57 58 60 67 67 62 60 60 58 56 56 55 54 52 52 52 52 51 50 50 50 48 50 50 49 47 47 49 50 51 53 53 54 55 55 55 54 55 58 63 66 68 66 60 55 52
49 50 46 45 46 49 53 57 56 57 57 61 64 64 63 61 59 59 57 57 56 56 57 56 53 53 52 52 52 52 52 52 52 52 50 49 50 50 51 53 54 54 53 52 56 60 64 67 66 61 55 51 49 49
47 45 45 46 46 41 44 49 57 57 56 56 59 60 58 59 59 57 57 59 61 59 56 55 54 52 50 53 55 55 53 52 52 52 50 49 50 51 52 53 52 51 54 58 62 64 64 60 55 51 48 47 47 49
42 45 43 45 46 46 44 43 45 49 49 56 58 56 57 57 58 58 58 58 55 50 48 47 48 53 53 52 52 54 55 53 52 51 51 52 52 53 54 55 56 58 61 63 62 57 53 50 48 45 45 47 48 48
39 41 44 39 42 46 43 45 40 42 46 49 50 48 47 48 48 49 50 47 44 42 48 50 51 50 48 49 50 50 50 50 51 51 51 53 55 55 55 57 60 61 59 53 49 46 43 41 42 44 45 45 46 46
36 39 41 42 42 42 45 42 39 40 40 40 43 46 47 47 47 46 45 43 42 43 44 45 46 46 47 47 48 49 50 52 54 54 54 54 55 56 57 58 57 53 47 43 40 37 38 41 42 43 45 46 47 49
29 36 41 41 42 39 39 37 35 38 40 40 40 41 42 42 42 42 40 39 39 41 42 43 43 44 45 47 49 52 53 54 54 54 54 56 58 58 55 51 46 43 39 36 36 38 39 41 44 45 46 48 51 55
24 30 34 38 38 41 38 31 33 37 38 40 42 42 42 42 43 42 38 37 38 37 38 39 40 43 46 49 50 52 53 54 55 56 58 56 52 48 43 40 37 36 36 35 36 38 41 42 44 48 51 54 56 57
18 19 24 29 33 37 36 35 36 39 43 43 39 37 38 40 39 38 39 41 40 40 40 41 42 44 46 48 50 51 54 56 55 52 48 42 37 37 35 31 33 35 35 36 38 41 43 47 50 53 55 57 58 59
10 11 14 20 25 30 33 35 37 38 38 39 41 41 41 42 41 42 44 46 47 46 46 46 47 49 51 53 54 54 50 45 40 35 31 30 29 28 30 33 35 36 38 39 41 45 48 52 54 57 58 58 61 64
4 7 12 17 23 27 30 33 36 38 39 40 42 44 44 45 45 46 48 50 51 51 52 52 52 52 49 45 40 36 33 31 28 27 29 31 33 33 33 35 37 39 41 43 47 50 53 55 57 57 58 61 62 59
8 13 15 15 16 19 21 26 30 34 36 38 39 40 42 42 43 44 45 45 45 45 44 41 38 34 30 28 26 25 27 28 29 30 30 30 30 32 34 36 38 41 44 47 50 52 54 55 56 58 60 57 47 42
12 15 15 13 13 13 15 18 21 24 27 29 30 31 32 31 30 31 31 30 30 29 26 23 21 22 24 24 25 26 28 29 30 30 31 32 33 35 36 39 42 44 47 49 51 52 53 55 56 54 46 39 36 33
3 5 6 8 11 11 12 13 14 15 17 17 18 20 21 22 21 19 19 16 15 17 20 21 22 23 23 25 26 27 27 28 29 31 33 35 36 38 40 42 44 46 48 48 50 52 53 50 42 36 32 30 28 30
9 11 11 10 9 9 9 8 8 9 11 12 13 13 14 15 14 14 17 19 20 21 22 24 25 26 28 29 29 29 29 30 31 32 34 36 38 40 42 45 46 46 48 49 48 43 36 31 28 27 25 25 28 29

GFSWCAN_500_spd_003.txt.gz
Wind_Speed
54 50 50 48 47 44 41 40 37 34 32 27 24 26 26 20 22 21 26 24 27 24 20 16 17 20 24 24 20 18 19 17 16 17 13 11 11 12 11 14 17 19 20 21 23 20 18 19 21 24 23 25 27 30
51 51 48 51 50 43 41 39 36 36 32 28 26 28 29 25 23 24 23 27 28 27 27 25 22 24 25 26 25 21 19 18 16 17 15 15 13 15 17 18 18 20 20 19 21 20 20 22 24 25 27 29 32 35
53 52 49 48 47 49 40 37 37 37 33 30 29 30 30 29 25 25 27 24 25 28 29 30 28 27 27 29 30 30 27 25 23 20 18 17 16 16 17 19 20 21 23 24 25 24 25 27 29 31 33 36 38 41
58 55 50 48 47 50 48 41 40 37 34 32 32 31 31 32 30 27 26 29 27 24 27 32 33 33 31 29 31 32 33 34 32 30 27 24 22 23 22 22 24 25 25 24 26 29 31 33 35 37 38 40 43 46
64 58 52 50 46 46 43 41 42 39 36 35 33 31 31 32 33 32 28 28 30 31 25 28 33 34 32 34 33 32 33 35 35 35 34 31 31 30 28 26 25 28 31 30 28 30 34 35 38 40 43 46 48 50
63 57 51 49 48 47 46 45 44 41 38 36 35 33 32 32 34 35 33 29 27 28 30 29 27 32 34 33 33 35 35 36 37 38 37 37 36 35 30 27 29 31 31 32 32 35 39 41 43 46 48 49 51 53
64 60 52 47 46 47 50 48 44 44 40 37 36 34 33 33 33 34 36 34 32 30 29 32 31 30 28 29 30 32 33 34 35 35 36 34 32 31 27 24 34 30 31 33 36 40 43 45 47 49 51 54 56 59
63 59 54 50 45 46 50 47 45 46 42 39 37 36 35 34 33 33 35 36 36 35 35 31 30 30 30 31 31 31 31 32 32 30 30 30 30 31 29 33 36 35 36 39 42 43 45 47 50 52 55 58 59 59
64 59 54 50 44 46 46 46 47 48 44 41 39 38 37 36 34 34 34 36 36 36 35 33 31 29 30 29 31 33 34 35 35 34 33 33 32 33 37 37 38 39 41 44 46 48 49 52 55 57 60 60 57 53
66 65 60 53 46 49 46 49 48 49 45 44 42 40 38 38 37 37 37 36 37 36 34 31 31 31 33 32 32 32 33 35 36 35 37 37 33 37 42 41 41 44 46 48 50 52 54 56 60 60 56 53 51 52
67 64 62 58 54 55 48 46 50 51 48 46 43 40 37 36 42 42 41 40 39 37 35 32 31 30 31 30 31 34 34 37 37 35 36 34 31 36 41 40 42 45 47 50 53 57 57 55 53 51 50 50 51 52
65 66 65 61 59 51 48 47 52 50 49 47 46 43 43 35 36 44 46 44 41 38 33 29 30 29 31 34 35 34 35 36 39 35 37 36 33 37 40 42 45 49 52 53 52 49 47 46 46 47 49 49 50 51
59 64 65 63 61 57 52 50 52 54 52 48 47 49 46 45 42 38 34 36 39 36 32 34 32 33 35 37 35 34 38 40 38 39 39 37 38 41 42 44 44 45 44 41 41 43 45 46 46 48 49 50 51 52
52 60 64 67 66 65 64 59 57 51 52 51 48 45 43 50 50 45 36 30 33 37 39 39 36 35 34 33 33 35 37 36 37 37 35 35 36 36 37 38 38 38 40 41 41 43 45 46 47 48 49 50 52 55
56 56 58 64 68 67 70 67 70 61 63 59 53 51 44 46 46 43 37 32 31 31 32 34 35 35 37 37 36 34 33 36 37 37 37 36 34 35 35 36 38 39 40 42 44 46 46 47 48 49 51 52 54 56
56 54 55 58 66 69 68 69 71 65 64 63 55 50 45 42 42 43 38 36 34 33 34 34 35 38 38 36 33 35 36 37 37 36 34 35 35 36 37 40 41 42 43 45 47 49 50 51 52 53 54 56 58 60
57 58 55 54 58 63 66 65 65 68 65 71 61 53 47 46 46 43 42 40 39 38 37 38 38 39 37 37 40 37 37 36 36 37 36 36 36 37 38 41 44 45 47 48 50 52 53 54 55 56 57 59 61 63
58 56 58 58 57 58 59 58 61 64 66 71 68 60 56 54 49 47 45 44 43 41 41 41 40 39 38 38 38 39 40 40 39 39 38 39 40 41 42 43 44 46 49 51 52 53 54 56 57 59 60 60 63 67
58 55 52 55 57 57 56 56 56 58 63 70 73 69 63 62 56 53 51 49 49 47 46 45 43 42 42 41 41 42 42 41 40 40 41 42 44 45 46 46 47 50 50 51 53 54 55 56 57 59 61 64 69 70
51 54 53 50 48 51 53 55 56 57 58 59 62 68 68 67 64 60 58 55 53 51 50 49 48 47 46 46 48 48 45 42 42 44 45 47 48 48 48 49 49 50 51 52 53 54 56 58 61 64 66 68 67 64
42 45 48 47 46 44 47 50 54 56 55 55 55 56 57 61 65 65 63 61 59 56 54 52 53 53 53 53 53 50 47 48 49 50 51 50 49 49 50 50 50 51 52 53 56 58 61 63 66 67 66 63 59 54
36 41 43 43 43 42 42 43 48 55 56 56 54 54 54 53 55 57 59 61 61 56 54 53 54 56 54 52 53 54 54 54 54 54 53 51 49 48 47 49 50 52 56 59 61 64 66 67 66 62 57 52 48 47
31 37 41 44 42 42 41 42 41 47 53 60 58 56 57 57 57 56 57 57 55 52 49 49 51 51 52 53 53 54 55 55 54 52 50 48 47 47 48 52 55 57 58 60 64 66 65 62 56 51 46 44 44 45
25 34 38 42 42 41 41 43 42 41 50 55 57 61 62 61 61 61 58 53 52 53 55 56 55 54 53 51 50 51 51 50 49 47 46 45 47 50 53 55 57 60 63 65 65 62 57 52 47 45 44 44 44 46
22 30 36 39 42 41 42 42 40 38 45 52 55 57 60 61 61 61 60 59 57 55 53 52 51 50 48 46 45 46 46 45 43 44 46 48 51 53 55 58 61 63 63 59 55 52 47 45 44 44 44 44 46 49
17 25 32 36 38 39 39 39 38 40 39 40 43 47 51 53 52 51 50 47 47 46 46 46 46 46 46 44 42 42 42 43 45 47 50 52 53 56 59 60 59 55 51 48 45 42 41 41 42 44 45 47 50 53
9 14 23 32 36 38 39 40 37 36 38 39 39 38 40 40 40 39 39 39 40 40 40 41 41 40 40 41 41 43 44 45 47 50 52 54 56 57 55 51 47 44 41 38 36 38 40 41 43 46 49 53 55 58
5 8 15 23 31 37 38 38 41 42 39 39 41 41 40 40 40 41 39 38 39 38 38 38 38 39 40 41 43 45 47 48 50 52 54 55 52 47 42 37 34 34 36 38 39 40 42 44 47 49 52 55 58 60
6 8 14 18 25 30 34 36 38 39 41 43 44 43 43 44 44 43 42 41 40 39 39 40 41 43 44 46 48 49 50 50 50 48 44 40 37 34 33 31 32 34 35 37 40 42 44 46 48 51 54 56 58 61
14 15 15 16 19 23 29 33 37 39 40 40 40 41 41 41 41 41 42 42 44 45 46 48 48 49 49 49 47 45 42 38 34 31 30 29 30 32 34 36 37 38 39 41 42 44 46 49 51 53 55 57 58 52
9 12 16 18 19 20 23 27 30 33 35 36 37 38 40 40 41 42 43 44 45 46 45 44 42 40 37 34 30 26 25 26 27 27 28 30 32 32 33 35 38 40 41 43 45 47 48 50 52 54 54 48 40 34
4 2 2 4 8 11 13 15 18 20 23 25 27 28 29 30 31 32 31 30 30 30 28 26 24 21 20 20 21 22 23 24 26 28 31 32 33 33 35 37 39 40 41 43 46 48 50 51 49 41 34 32 31 30
7 4 3 1 2 3 4 4 4 5 5 7 10 12 12 12 11 12 16 18 19 18 17 16 17 18 20 22 24 26 27 29 31 31 30 30 30 31 33 36 40 43 45 46 47 46 41 33 29 28 28 30 31 31

GFSWCAN_500_spd_006.txt.gz
Wind_Speed
59 58 54 52 49 54 58 51 47 42 38 36 31 28 27 24 21 22 30 32 29 23 18 20 19 19 21 20 19 20 20 19 19 18 19 20 17 16 18 18 20 20 23 23 23 22 24 21 24 27 26 27 27 28
63 59 56 54 47 48 51 54 49 47 43 38 33 30 30 26 24 25 27 33 33 29 24 20 18 19 24 22 20 19 18 16 16 17 16 15 16 15 15 16 18 20 21 19 21 20 20 20 21 23 24 25 26 29
64 57 58 50 47 46 46 46 49 45 43 37 35 30 32 29 26 26 26 31 34 35 32 28 24 20 22 28 26 21 20 20 19 18 18 16 15 14 13 16 18 18 18 19 19 18 20 21 22 25 27 29 31 33
66 60 62 50 46 46 44 46 46 44 41 37 35 31 33 32 29 29 28 29 32 35 35 33 31 28 25 24 27 28 26 25 23 21 20 20 20 18 17 18 18 17 18 18 21 23 25 26 29 30 31 33 36 38
66 62 63 53 47 46 46 49 48 44 40 37 35 32 33 34 32 31 31 29 31 32 32 35 35 34 33 31 30 29 31 33 32 31 30 29 28 26 24 23 20 23 25 26 25 27 29 31 32 33 34 36 38 41
67 65 64 54 49 46 46 52 47 44 41 36 34 34 34 35 34 33 32 32 30 30 32 30 32 36 38 37 36 35 33 33 34 35 35 36 35 34 31 27 25 29 28 26 28 29 31 33 33 34 36 40 43 46
66 61 59 53 50 47 46 47 49 47 36 38 37 35 35 35 36 35 32 30 31 29 32 33 33 29 32 38 38 38 38 38 38 37 36 35 35 35 33 30 29 35 32 28 27 28 30 34 36 38 41 45 48 52
61 61 60 52 48 46 43 44 45 46 45 44 42 39 36 36 36 35 33 33 33 33 33 34 32 32 30 28 31 34 35 36 37 37 38 38 37 37 36 29 31 31 30 31 31 33 34 37 40 42 45 49 53 55
61 61 60 54 53 47 44 44 43 45 45 44 43 41 39 38 38 36 34 35 35 36 35 30 27 28 32 33 33 32 31 31 32 32 32 32 30 30 27 30 32 32 33 34 34 36 38 41 44 48 51 54 56 60
62 59 60 55 49 46 46 43 45 46 45 45 43 40 39 38 38 36 37 37 37 36 34 32 30 30 30 29 30 31 32 35 36 34 34 33 30 32 35 33 33 34 35 38 40 41 42 44 47 50 54 57 61 61
60 63 62 63 57 51 46 44 48 50 44 44 41 40 39 41 41 40 40 39 39 38 35 32 30 31 31 30 31 33 33 34 34 32 35 33 30 33 36 36 36 36 38 39 39 41 43 47 51 54 54 51 48 48
55 64 65 61 55 52 55 43 51 52 50 47 46 43 42 42 42 43 41 38 39 38 36 32 32 34 33 33 33 34 35 36 37 34 36 33 30 33 35 35 35 35 37 39 41 43 45 47 45 43 44 46 47 48
49 63 64 62 58 52 58 50 53 53 53 50 48 48 45 44 45 43 40 35 27 23 30 32 34 35 35 35 35 36 39 40 37 37 35 30 31 32 32 32 33 35 36 37 39 39 38 39 41 42 44 46 48 49
52 59 62 63 61 60 59 54 54 54 52 50 50 49 46 44 43 42 40 31 23 23 26 34 38 38 35 34 35 36 37 39 41 40 34 30 30 30 28 28 30 33 36 37 37 37 38 40 42 44 46 47 49 50
50 55 58 62 64 62 62 62 61 57 52 52 51 50 44 45 43 43 43 37 33 29 26 28 31 37 40 41 42 40 38 39 35 30 26 25 23 24 25 27 29 32 32 34 36 38 40 42 43 46 47 49 50 52
49 52 54 59 63 67 63 62 67 66 63 59 58 54 47 46 44 45 41 37 37 36 33 30 29 30 31 35 38 37 35 32 30 31 29 24 24 24 26 28 29 30 32 34 36 39 42 44 44 46 47 48 50 53
52 53 53 53 54 57 60 59 62 69 68 68 64 58 54 51 46 43 41 36 33 34 34 33 31 32 32 31 29 28 28 29 32 31 28 26 27 29 30 31 33 35 37 38 39 40 42 45 47 48 50 52 54 56
53 55 54 53 53 52 54 59 63 64 70 70 64 62 56 52 50 47 46 41 39 37 37 38 36 35 33 31 28 27 28 30 32 32 32 31 30 31 32 35 37 38 40 41 43 45 47 49 50 51 53 56 58 62
56 55 56 54 54 54 54 54 57 61 67 72 70 66 64 61 54 54 50 47 47 46 46 43 41 39 36 33 31 30 30 31 32 32 32 33 34 36 37 39 41 42 44 46 48 48 50 51 53 54 57 60 63 65
56 57 54 57 55 54 53 53 54 56 61 65 69 70 68 66 65 62 61 57 54 52 50 47 44 41 39 37 35 36 35 35 35 35 35 37 39 41 43 46 47 48 50 51 52 53 53 53 55 58 61 63 65 69
43 51 53 52 54 57 56 54 51 51 53 57 60 66 68 68 67 65 63 61 59 56 53 52 49 46 43 42 41 42 42 41 41 40 40 42 46 49 50 51 51 53 54 55 55 54 54 55 58 60 62 66 70 73
33 39 44 47 49 49 50 52 51 54 53 53 54 57 60 61 62 60 57 58 59 55 51 52 54 54 52 48 45 44 43 42 43 45 48 51 52 53 53 54 54 55 54 52 51 52 55 58 60 63 66 70 70 68
24 32 37 42 44 47 44 46 44 47 51 55 54 53 54 54 55 55 55 54 52 51 49 49 52 53 51 50 50 50 50 51 52 54 54 55 54 53 52 53 53 51 49 49 51 54 57 60 63 67 69 65 62 59
17 27 33 38 44 41 43 44 43 40 43 49 54 55 54 53 53 52 50 47 46 46 48 47 47 48 50 51 51 51 52 52 52 52 51 51 51 52 51 48 47 47 48 51 55 57 60 65 67 65 60 56 52 48
14 22 30 36 39 39 37 38 41 41 36 39 44 49 50 52 53 53 52 53 52 50 47 46 46 48 47 47 48 50 51 51 52 52 51 50 49 46 45 45 46 48 52 55 58 63 66 66 61 55 50 45 43 45
11 18 24 32 35 38 38 35 36 40 41 40 42 41 43 44 46 48 51 51 50 50 51 52 51 51 52 50 49 49 48 47 47 47 46 45 44 43 44 46 49 53 57 61 64 64 60 55 49 44 42 43 45 47
8 12 19 27 35 39 41 41 38 39 40 40 44 50 46 45 47 48 48 48 47 49 51 53 54 54 53 51 47 44 42 41 41 41 41 41 43 45 48 51 55 59 62 63 59 53 48 44 42 44 45 46 48 50
10 12 16 24 31 37 41 42 42 40 41 41 38 38 45 53 54 52 53 51 49 47 45 43 42 41 39 38 38 37 37 37 38 39 42 45 47 51 55 59 61 60 55 51 47 43 40 39 40 42 45 48 51 53
9 12 15 17 23 29 35 39 42 43 44 41 39 40 39 38 39 40 41 41 39 38 37 37 36 36 35 35 35 36 38 40 43 46 49 52 55 57 56 53 49 45 43 41 41 40 42 44 46 48 50 52 53 54
10 13 14 16 18 20 23 30 35 40 42 43 44 41 39 39 41 41 41 41 41 40 39 39 39 39 39 40 42 44 46 47 49 50 50 50 48 45 41 38 37 36 37 38 38 39 42 45 47 49 49 51 54 56
6 4 6 11 16 17 18 21 24 28 33 37 39 40 41 43 43 42 41 41 42 41 41 40 42 43 44 45 46 46 46 45 43 41 39 36 32 31 32 33 34 36 37 38 38 39 41 42 46 49 52 53 49 40
9 9 7 5 3 7 8 10 12 14 18 22 26 30 34 36 38 39 40 41 43 43 43 43 42 42 41 40 38 36 34 32 29 26 25 26 27 29 31 34 35 34 34 34 37 41 44 47 48 48 40 33 33 33
5 6 8 8 6 4 3 2 1 4 6 8 11 13 16 19 20 21 25 27 28 29 29 28 27 26 25 24 22 21 21 21 23 25 26 28 30 31 30 30 31 34 37 40 42 44 43 38 31 27 28 30 31 32

GFSWCAN_500_spd_009.txt.gz
Wind_Speed
51 58 64 57 57 45 42 51 55 49 43 40 33 31 28 28 25 23 23 23 30 26 22 21 19 17 19 20 19 19 19 19 22 20 18 18 18 16 12 13 15 22 23 22 23 26 25 24 29 30 31 29 28 29
48 60 62 60 56 46 43 49 54 49 44 39 34 32 29 29 27 26 24 24 31 30 25 23 22 20 22 20 20 22 23 21 18 17 17 18 17 15 16 16 16 16 15 14 19 19 20 20 24 24 25 29 29 30
47 57 65 58 57 52 45 43 48 52 49 43 36 32 30 30 29 28 25 25 32 34 29 25 24 22 23 23 20 20 21 20 19 18 18 19 19 17 17 15 16 14 15 16 17 17 19 19 20 21 23 25 24 25
47 57 69 57 57 52 47 46 45 50 53 46 39 35 33 32 32 30 28 27 31 36 35 29 26 25 24 27 25 22 20 18 17 17 18 20 20 19 17 17 18 16 15 16 18 20 22 23 24 25 25 25 27 28
46 54 64 56 57 53 48 44 45 48 50 45 41 39 36 35 34 32 32 29 30 36 38 37 33 30 27 26 27 30 27 23 21 20 19 21 23 22 22 20 18 21 22 21 20 21 23 25 27 28 29 31 32 34
45 52 62 58 56 53 47 44 44 43 46 46 48 40 39 38 36 33 33 33 30 31 35 37 39 37 34 31 29 29 30 29 29 28 27 26 26 27 26 24 24 24 24 25 25 23 24 26 29 31 32 33 35 36
42 51 56 57 56 50 48 46 46 43 45 46 42 40 39 39 37 34 31 30 31 31 33 36 37 38 39 38 37 35 34 33 32 33 34 33 32 33 31 28 27 28 29 31 30 30 30 29 30 31 31 33 36 38
43 49 61 58 54 51 45 45 44 43 44 43 43 41 39 38 37 33 31 33 35 35 35 36 34 33 33 36 39 39 38 38 37 36 35 34 34 33 31 28 30 31 34 35 34 33 32 31 32 33 34 36 37 39
45 49 63 56 57 54 46 45 48 45 47 48 46 44 42 40 36 33 33 32 34 37 38 33 30 30 34 34 34 33 36 39 40 38 37 37 37 36 34 33 32 35 37 34 32 32 32 33 34 34 36 39 42 43
44 48 64 58 59 57 48 47 49 47 45 46 43 40 39 41 37 37 35 34 35 35 34 33 32 30 31 31 33 36 33 33 34 35 38 39 34 30 28 29 29 29 28 28 29 31 32 34 37 38 38 40 43 47
41 50 64 61 63 56 49 54 51 51 47 47 42 41 40 41 43 42 39 39 37 35 32 30 30 31 32 31 29 31 32 33 34 33 35 33 29 30 34 33 32 33 33 33 34 35 34 34 35 38 41 44 45 45
42 52 64 64 65 60 54 60 46 47 46 44 41 40 43 46 45 44 40 39 41 36 32 28 29 30 31 31 31 30 32 32 33 30 31 26 22 26 28 27 27 29 30 31 32 34 35 37 40 41 42 41 40 40
41 53 63 67 66 54 56 57 50 48 45 46 46 46 41 44 45 42 36 33 33 30 29 27 29 31 32 33 33 34 35 35 33 33 29 24 24 26 28 29 30 31 32 34 35 36 38 40 40 39 39 38 38 40
42 52 60 62 59 54 56 56 56 56 50 48 45 43 42 44 37 34 32 30 28 29 31 34 35 35 34 34 36 37 37 37 38 33 26 27 29 29 29 31 31 32 33 35 36 36 37 37 36 35 37 39 41 43
43 48 53 58 53 54 60 61 61 56 54 52 49 48 46 40 39 37 35 31 30 34 30 31 32 32 33 36 38 38 38 39 34 28 28 30 32 31 30 31 33 33 32 31 32 32 33 34 34 36 38 41 43 44
48 46 49 55 53 52 59 63 59 58 60 57 54 51 49 46 42 39 38 35 34 36 35 31 31 31 27 30 32 35 36 35 32 33 34 31 28 29 29 29 28 27 28 30 32 32 33 34 37 39 40 41 43 46
47 45 46 48 49 49 53 58 53 60 60 63 61 55 48 44 42 40 40 39 37 36 37 37 35 34 31 29 27 26 25 27 30 31 31 27 25 27 27 26 25 27 30 31 31 31 33 35 38 40 43 45 48 50
46 47 42 44 46 47 48 51 51 57 62 62 62 58 55 50 45 41 42 41 40 35 35 34 34 33 34 33 28 26 27 28 28 27 29 29 29 29 28 28 29 31 32 31 31 34 38 40 42 44 46 49 52 55
46 48 44 44 45 46 45 47 51 54 61 61 60 64 60 55 52 49 47 44 43 40 38 36 36 35 34 33 31 31 30 29 29 29 29 29 29 28 28 30 31 33 35 37 39 41 44 46 48 50 52 55 57 60
40 50 45 47 47 47 48 50 50 50 50 54 61 64 63 61 57 55 53 50 50 49 45 42 37 36 35 34 34 33 34 34 33 32 31 30 29 29 30 32 35 37 39 41 44 47 49 51 52 54 57 59 60 60
29 47 47 47 48 49 50 50 51 52 52 52 54 59 64 65 63 62 61 58 56 55 49 46 46 44 42 41 38 37 38 36 36 35 35 35 35 36 36 38 41 44 46 48 50 51 52 54 55 57 59 59 58 59
19 34 44 48 47 48 49 51 50 50 50 50 50 51 53 58 61 62 61 61 62 60 56 53 50 48 47 46 44 42 42 42 41 41 40 40 41 43 46 48 49 51 52 54 55 55 56 57 58 58 58 57 58 61
13 23 35 40 46 49 46 48 49 50 49 50 49 49 50 50 50 52 55 59 60 58 57 57 56 56 53 50 48 45 44 45 46 48 47 47 47 49 50 51 53 54 55 55 56 57 57 57 57 56 56 58 61 65
13 16 26 33 39 44 47 45 45 48 50 51 50 48 47 47 47 48 50 50 49 48 49 51 52 49 47 46 44 44 45 46 46 47 48 49 50 51 52 52 52 52 53 54 54 54 54 54 54 54 57 61 66 70
13 15 19 28 33 35 40 42 43 42 42 44 47 49 49 48 48 48 47 47 45 45 45 44 43 42 42 43 42 43 44 43 44 45 44 44 46 48 48 49 50 50 50 50 50 50 50 51 54 58 62 67 69 66
11 12 16 23 30 33 35 38 40 39 39 40 41 42 45 45 46 47 46 43 40 38 36 36 37 38 40 42 40 39 39 39 40 42 44 46 47 48 47 46 46 46 46 47 48 49 52 55 59 64 67 65 59 54
12 12 13 19 27 32 33 33 33 37 41 41 40 39 40 42 42 42 42 43 42 42 43 43 43 42 42 43 44 44 45 45 45 45 46 46 45 44 44 44 44 45 46 48 50 54 57 61 64 62 58 54 51 50
12 12 11 13 19 27 34 37 35 34 37 38 42 45 42 40 41 42 41 41 42 41 42 40 40 40 39 39 40 43 45 45 44 43 42 41 41 41 41 42 44 46 49 53 57 60 61 59 55 50 47 46 45 45
10 10 11 10 10 14 23 33 39 40 38 38 37 38 38 42 45 45 43 42 41 41 41 42 43 42 42 41 39 38 37 36 36 36 37 38 39 40 42 46 49 53 56 58 58 55 50 45 42 42 43 45 47 48
9 7 7 8 8 9 9 14 24 34 40 42 40 38 37 37 36 37 39 42 44 44 43 44 44 43 39 36 35 33 33 33 34 35 38 41 44 47 51 54 55 54 52 48 44 39 38 38 41 43 43 45 48 51
10 10 9 8 6 6 7 5 6 12 20 29 38 42 42 39 37 37 37 37 36 37 38 39 39 39 38 37 37 38 39 40 42 44 47 49 51 51 50 47 43 39 35 33 33 35 37 37 38 42 46 48 46 40
5 8 9 9 9 7 3 4 6 7 10 14 19 26 33 39 41 41 40 38 37 36 37 38 40 40 41 41 41 41 43 46 47 48 47 44 40 37 33 30 29 29 31 34 34 33 35 39 43 45 39 34 33 33
2 3 5 6 7 6 6 5 4 1 3 6 9 13 17 22 26 30 36 39 40 40 41 42 43 43 44 45 44 43 41 38 34 32 29 25 23 24 26 27 29 30 29 31 34 38 41 40 34 32 31 30 32 34

GFSWCAN_500_spd_012.txt.gz
Wind_Speed
18 30 44 60 62 59 54 54 45 54 49 44 41 38 35 33 30 28 22 23 21 23 25 22 22 17 17 21 17 21 20 25 25 21 15 23 20 22 25 24 22 20 24 23 26 21 21 23 25 25 24 25 25 25
18 27 42 64 60 56 53 52 49 55 53 50 41 38 36 34 33 27 25 25 23 24 27 23 25 21 17 23 21 22 20 19 24 23 19 23 25 22 21 19 19 25 22 21 23 20 20 18 19 21 26 30 31 33
19 28 43 63 62 55 54 54 47 51 59 53 50 44 36 34 33 29 27 26 24 25 31 26 26 24 21 22 25 26 24 23 23 21 19 17 20 20 21 18 19 15 10 12 13 12 13 15 18 19 22 24 27 28
19 28 43 60 61 54 56 55 44 44 54 55 48 43 39 35 34 30 28 27 26 26 33 29 26 26 25 22 21 21 23 22 19 18 18 21 21 19 18 16 14 14 14 12 12 13 15 16 18 20 21 23 24 26
19 29 43 58 60 54 57 52 43 47 51 50 46 43 39 36 35 31 30 28 27 27 33 34 30 29 29 27 26 22 21 21 21 20 21 21 20 19 19 17 15 16 16 14 13 16 17 18 20 23 24 25 27 28
19 30 41 55 60 59 59 49 42 42 50 53 46 44 41 37 36 33 32 29 29 28 31 37 35 31 29 29 28 29 26 25 23 22 21 21 22 23 22 20 20 19 18 19 20 21 23 24 24 24 26 28 31 33
20 30 41 56 62 62 61 50 41 41 50 48 44 40 40 40 37 34 31 27 30 29 29 35 38 37 33 31 30 32 32 32 31 28 27 25 25 26 26 24 22 22 24 27 27 28 28 28 29 30 30 31 31 31
20 29 43 54 64 64 60 52 44 41 48 49 49 46 42 41 40 37 33 32 32 32 31 33 35 36 37 36 35 33 32 34 35 34 33 32 32 31 29 25 27 29 30 29 29 29 31 32 33 33 32 31 30 31
20 31 44 54 66 65 59 51 44 39 49 49 48 46 48 45 43 38 35 35 36 38 37 32 29 30 34 36 35 36 38 38 39 38 37 37 35 33 30 29 30 31 32 33 34 35 36 35 33 31 31 32 33 34
21 32 45 56 65 63 57 52 45 39 43 49 48 45 46 47 42 39 38 38 39 39 35 32 29 29 32 34 35 36 36 38 40 41 41 41 36 33 34 33 32 33 35 36 34 31 29 28 29 30 31 33 36 39
24 34 46 56 60 59 55 48 46 42 50 51 45 45 45 43 42 41 41 41 40 36 31 29 30 30 33 31 32 35 35 36 35 31 31 31 28 28 31 33 32 31 31 30 30 31 31 32 33 34 34 35 37 39
26 36 47 57 60 59 57 54 52 50 53 48 43 42 46 49 48 49 49 46 42 36 32 29 30 32 32 32 32 30 30 31 31 30 30 28 24 27 31 31 30 29 28 29 28 28 29 31 33 35 37 37 37 39
27 39 47 62 63 59 56 60 52 51 51 53 48 50 50 51 48 41 36 35 33 29 29 27 29 30 32 33 33 33 34 34 31 30 26 24 28 30 29 28 28 28 29 31 32 33 34 35 35 35 35 37 37 37
27 40 47 61 65 62 57 56 61 55 53 53 52 49 48 46 38 35 31 29 29 31 28 29 31 30 31 32 34 35 35 34 33 28 24 27 28 29 29 30 31 32 33 34 34 35 35 35 35 35 34 33 33 34
26 41 47 63 65 61 59 60 64 61 53 49 53 53 45 39 37 33 30 30 30 31 29 31 33 33 34 37 36 35 34 35 31 25 27 29 30 30 30 31 31 33 34 36 37 37 35 33 32 32 31 31 33 34
25 41 47 60 57 53 51 57 62 64 58 51 52 50 43 43 38 34 31 31 29 33 32 32 33 34 34 35 34 34 32 30 28 27 28 30 30 30 30 30 31 32 33 32 32 31 31 30 30 31 32 33 35 36
23 40 44 46 47 43 48 51 50 59 61 55 53 49 43 42 40 37 34 35 34 33 34 32 32 33 31 31 28 25 21 22 24 28 31 32 33 34 34 34 32 30 30 31 32 31 30 30 31 33 34 36 38 40
18 37 44 42 43 45 48 48 49 49 60 60 55 51 49 44 42 40 39 37 33 34 33 33 33 35 34 32 27 26 27 26 26 27 26 26 26 27 28 28 27 29 30 31 31 32 32 34 35 37 39 40 42 44
13 31 44 40 43 47 49 52 53 48 51 58 58 57 55 50 45 42 40 40 37 35 36 34 34 35 33 32 33 33 32 32 29 29 29 28 27 27 27 29 30 32 33 34 34 35 36 37 38 40 42 43 46 49
10 24 43 42 40 42 45 48 49 49 50 52 56 58 60 58 55 50 46 42 41 41 38 35 35 34 30 32 32 32 32 31 32 31 30 30 31 30 29 30 32 33 35 36 36 37 38 40 42 44 46 49 52 55
9 18 33 46 40 42 45 51 48 48 48 53 56 54 55 58 58 57 55 52 48 44 40 39 39 39 37 38 36 35 35 34 34 33 33 33 33 34 34 34 35 36 38 39 41 43 44 46 48 51 53 55 58 61
10 13 27 43 42 40 41 44 48 51 48 46 48 55 59 55 54 57 57 58 56 55 52 50 46 42 42 42 42 42 41 41 40 38 36 36 37 38 39 40 40 42 44 46 47 48 50 52 54 57 59 61 62 62
11 12 19 34 43 41 39 39 40 45 48 50 47 45 46 51 55 54 56 60 60 57 56 54 52 50 47 46 47 46 46 43 42 41 40 41 42 43 44 46 47 48 49 50 52 53 55 56 57 59 59 59 59 59
12 12 14 23 38 41 41 39 38 40 43 44 47 48 48 46 44 44 47 50 54 56 57 56 54 52 51 50 50 50 49 48 48 47 45 45 45 45 46 47 48 49 50 52 53 54 55 55 56 57 57 56 56 57
12 9 13 16 25 34 39 40 40 39 39 42 44 46 47 47 46 44 41 39 39 41 42 45 46 47 47 47 48 47 46 44 42 41 42 44 44 46 46 47 48 49 50 50 51 53 54 54 54 53 53 54 55 57
11 8 8 14 19 27 34 37 39 40 41 40 41 43 44 44 44 44 41 39 39 39 38 39 39 39 39 38 37 38 39 41 41 41 41 42 43 44 45 45 47 48 50 51 51 51 50 50 50 50 51 53 57 61
11 7 5 8 14 20 28 33 36 38 38 40 40 40 41 43 44 45 43 42 41 40 40 40 41 40 40 40 39 39 39 39 39 39 40 42 44 45 45 46 47 47 47 47 47 46 46 47 48 50 54 58 63 63
10 6 4 4 8 14 22 29 32 33 37 40 39 39 41 42 41 40 39 38 38 37 36 36 36 37 37 37 38 38 39 39 39 41 43 44 45 45 45 45 44 43 42 42 43 44 46 48 52 56 60 60 55 50
9 7 5 2 4 9 16 24 33 33 33 35 38 42 42 40 40 39 38 38 39 39 40 40 41 41 42 42 43 44 43 43 44 44 44 43 41 40 40 39 39 39 40 42 44 47 51 55 58 57 52 46 42 42
9 8 7 6 4 6 9 15 24 35 38 37 38 36 35 35 35 38 39 41 43 45 48 48 47 45 45 46 46 44 44 44 44 43 39 37 36 36 36 36 38 41 44 48 51 54 54 52 46 40 38 40 41 43
6 7 7 8 7 3 6 10 14 20 29 38 43 42 40 39 37 34 34 34 36 38 41 43 44 42 42 41 41 42 42 43 45 42 38 36 36 38 40 42 45 48 50 50 48 44 39 36 35 37 38 39 43 47
4 3 4 6 6 7 4 4 9 12 16 21 26 34 41 45 45 41 37 38 39 38 36 36 37 37 38 39 40 41 42 41 41 40 40 40 40 42 45 47 46 43 40 35 31 30 32 34 34 37 41 45 40 37
8 4 3 2 4 6 6 6 3 3 7 11 15 20 25 31 35 39 44 45 42 38 37 37 37 38 38 38 38 38 39 39 39 39 39 42 44 41 38 35 30 26 26 27 29 28 31 35 40 41 36 34 32 31

GFSWCAN_500_spd_015.txt.gz
Wind_Speed
38 24 16 29 45 55 61 56 52 51 50 51 50 48 41 35 36 33 29 24 22 21 19 21 21 16 13 16 15 15 18 20 23 33 30 29 24 18 21 20 23 20 20 25 22 23 17 16 19 21 18 22 23 22
36 24 16 28 44 60 64 54 56 52 44 52 51 46 43 38 37 34 30 25 22 20 20 24 21 20 15 17 19 16 21 18 23 28 32 33 30 29 29 26 24 27 21 22 25 19 21 16 17 20 21 24 27 26
35 22 15 27 44 64 61 59 56 51 42 44 51 48 44 39 35 34 31 27 24 20 22 25 24 22 21 17 23 23 19 20 24 24 23 16 21 20 21 26 26 22 23 23 25 19 21 20 18 17 17 16 18 21
34 21 15 30 46 61 57 58 58 50 44 45 46 46 44 43 39 37 32 29 25 22 24 25 25 22 26 22 24 22 23 23 23 26 24 21 24 24 23 23 21 18 21 18 13 13 13 14 15 16 15 16 18 20
33 20 14 31 47 59 57 56 55 52 47 47 46 45 45 40 39 38 34 31 27 25 24 25 30 25 24 27 25 30 28 26 25 27 25 26 21 20 20 19 21 18 14 13 13 12 11 11 11 13 14 16 19 21
32 19 15 30 46 60 61 57 55 54 48 49 50 46 46 41 38 39 36 33 28 26 25 24 30 29 23 25 26 25 26 24 24 19 18 18 19 19 18 16 16 16 16 16 15 14 13 15 16 18 20 21 22 23
29 17 14 30 48 68 62 63 57 53 46 46 52 51 49 47 43 41 36 31 28 27 26 26 28 34 27 24 26 25 23 22 21 22 22 21 22 22 21 19 19 18 17 18 18 18 18 21 23 24 26 26 28 30
26 15 16 31 47 65 66 62 54 56 44 43 49 53 51 47 43 41 36 32 30 28 28 27 26 32 34 29 26 27 28 28 27 26 25 24 24 23 22 21 21 22 25 25 25 26 27 28 27 27 29 31 33 34
22 13 18 33 46 60 63 64 61 48 41 41 44 49 50 51 48 42 37 36 35 32 29 28 26 28 34 33 31 28 27 27 30 31 32 34 31 29 23 25 29 32 32 33 33 32 31 31 31 32 34 36 34 32
20 13 23 33 46 63 62 60 54 52 47 42 49 50 49 52 48 46 40 39 37 36 36 34 30 27 27 31 33 34 34 34 33 31 33 33 31 30 32 31 32 33 34 35 34 34 34 35 36 35 33 31 30 30
17 14 25 36 48 61 61 56 53 53 48 53 49 50 44 39 38 41 43 44 43 41 36 35 31 28 28 30 33 35 36 37 37 35 35 36 32 31 36 37 36 35 35 36 36 37 37 37 35 33 32 32 33 34
15 15 27 40 49 61 60 57 59 59 55 55 47 42 45 45 44 45 48 46 45 41 36 35 30 29 31 31 30 30 31 31 32 33 33 32 26 29 29 29 30 32 33 33 34 34 34 34 34 34 33 32 33 35
14 17 30 42 50 65 64 63 62 59 56 53 54 54 45 49 48 45 44 44 42 39 33 31 30 30 32 33 32 31 31 31 29 29 27 23 25 27 28 29 29 29 29 29 29 29 29 30 30 31 33 34 36 36
13 20 32 42 49 62 66 63 60 60 54 58 56 56 52 48 45 40 40 41 39 37 33 34 31 32 32 31 33 33 32 31 32 29 25 27 28 29 29 29 29 28 27 27 27 29 31 32 34 35 35 35 34 32
11 20 33 44 49 63 63 52 55 60 63 60 56 54 48 42 35 34 36 35 36 35 35 36 35 37 33 35 36 36 34 36 31 24 25 28 28 29 30 30 30 30 30 30 30 31 31 32 33 34 33 32 30 30
10 19 33 45 50 60 55 52 55 57 62 59 58 52 46 43 33 30 31 28 29 33 36 37 36 37 37 40 38 36 34 31 25 25 27 28 29 29 29 31 31 29 28 29 29 29 30 31 31 30 29 30 31 33
11 15 33 45 47 58 52 50 57 55 58 64 59 52 46 45 39 33 32 32 32 32 32 34 35 34 33 35 33 30 26 26 27 28 27 27 28 28 29 29 29 30 31 32 32 32 31 30 30 31 32 33 34 35
12 11 29 43 41 48 53 46 57 57 56 58 61 56 49 48 45 39 36 36 36 31 32 33 33 33 31 31 27 24 26 25 23 22 21 21 22 24 26 27 28 28 29 29 29 29 30 32 33 33 34 36 37 39
15 9 23 40 41 41 48 48 55 58 57 55 61 58 52 48 47 43 39 36 35 34 32 34 35 34 33 31 29 27 26 26 25 25 25 25 24 24 23 23 24 24 25 27 29 32 34 36 37 37 38 38 39 41
17 11 17 36 42 44 45 50 55 57 52 49 56 58 56 53 48 46 42 36 37 37 35 33 33 32 32 32 31 32 31 31 30 30 30 30 29 28 26 26 26 27 27 28 31 33 35 37 37 38 39 42 44 47
18 14 14 31 42 43 45 51 55 60 50 43 48 56 58 55 51 49 46 41 38 38 39 38 35 32 32 32 32 32 30 30 30 30 31 30 29 29 29 29 30 30 31 32 34 35 36 38 39 41 44 47 50 53
20 15 15 24 43 45 43 47 52 54 54 48 45 48 54 57 56 54 52 49 46 43 38 35 38 38 40 39 37 34 35 36 37 35 33 33 31 30 31 32 33 34 35 37 38 40 41 43 45 48 50 52 54 56
23 15 15 20 33 46 43 41 44 52 53 50 47 45 45 49 55 54 54 56 53 49 46 43 40 41 42 42 40 40 43 42 41 39 38 38 38 36 35 36 37 37 39 42 44 46 48 49 50 51 53 54 55 56
23 16 14 18 26 36 44 41 39 40 48 50 46 39 39 38 40 45 52 51 48 46 50 52 55 54 52 49 48 48 48 46 45 45 44 42 41 40 39 40 42 44 45 46 47 49 51 52 53 53 53 54 56 57
22 17 13 16 22 32 39 42 38 37 38 40 44 45 47 45 44 44 45 47 50 52 52 52 52 51 50 49 49 49 50 50 48 46 44 43 43 44 45 45 46 46 47 48 48 49 50 51 52 53 55 55 54 53
20 16 13 14 19 26 37 41 41 37 37 39 40 40 40 41 44 44 40 39 38 38 39 40 40 40 41 44 45 46 46 46 44 45 46 46 44 43 43 42 43 44 45 47 48 50 51 52 52 52 52 51 50 49
20 16 13 11 14 22 30 38 41 42 40 40 40 41 43 44 44 42 41 41 39 38 37 35 34 33 33 34 35 36 36 36 37 40 39 39 39 40 41 42 43 45 46 48 49 50 50 50 50 49 48 47 48 50
19 17 14 11 10 16 25 32 39 42 41 41 41 42 42 43 43 42 42 42 40 38 38 38 38 38 37 37 36 36 37 39 39 39 40 40 40 42 43 44 46 46 47 47 48 48 48 47 46 46 46 47 51 55
15 15 14 12 10 10 17 26 33 39 43 43 42 42 42 43 42 42 41 41 41 41 41 41 41 41 41 41 40 40 40 40 40 40 40 41 42 43 43 45 46 46 47 46 45 44 44 43 43 45 49 53 55 54
13 12 13 12 10 10 10 17 26 34 38 41 42 41 41 42 42 42 43 42 41 41 42 42 44 44 43 43 43 43 42 42 42 41 41 42 44 46 46 46 46 45 42 41 41 40 42 44 48 52 53 51 47 43
12 10 10 11 10 8 8 11 15 25 35 39 40 39 37 36 39 39 39 40 40 41 42 43 44 44 44 45 45 46 46 45 44 45 46 46 46 46 44 44 46 43 41 41 41 43 47 50 49 47 43 39 38 38
12 11 9 8 10 9 7 7 11 12 17 28 40 41 41 40 38 36 38 39 40 40 41 41 42 43 45 45 46 45 45 45 46 44 43 43 42 40 40 42 41 41 41 42 45 48 46 41 37 35 34 36 39 43
12 12 10 8 6 8 7 6 4 7 9 11 15 22 34 43 46 45 44 42 42 42 42 42 41 41 41 41 40 39 38 39 39 40 40 41 40 39 38 38 39 41 43 44 41 35 31 30 30 33 38 39 38 35

GFSWCAN_500_spd_018.txt.gz
Wind_Speed
51 52 44 25 17 30 44 56 61 56 49 45 48 37 41 40 38 35 33 29 26 22 20 16 15 15 11 9 12 16 19 20 15 23 27 30 22 17 17 17 21 18 16 14 13 12 13 16 11 14 14 18 20 22
51 52 44 24 18 32 46 56 58 56 51 50 51 44 47 44 39 35 33 29 26 22 21 17 17 14 14 10 13 11 15 16 15 24 22 27 22 20 18 18 20 14 15 16 17 18 13 14 13 12 17 20 20 21
52 52 43 23 17 31 49 61 57 57 53 49 47 48 41 40 36 34 32 29 27 23 21 18 18 17 13 14 11 16 17 13 13 21 25 25 25 27 24 21 21 19 18 20 17 18 17 14 14 14 14 15 17 18
53 50 41 23 17 31 52 60 52 57 59 45 45 41 47 41 40 34 31 30 27 23 21 19 18 20 18 17 14 20 17 20 15 19 22 26 25 21 19 18 25 26 24 20 18 17 19 16 16 14 13 13 13 13
54 49 38 21 18 33 52 58 51 60 55 47 44 44 48 43 39 34 33 32 29 27 23 21 19 21 21 17 12 24 23 19 19 23 22 22 19 17 21 16 17 19 18 17 17 18 13 14 13 13 11 9 10 12
55 47 36 19 20 35 55 60 59 60 53 44 45 47 47 45 41 36 35 33 30 27 23 20 20 22 23 20 18 22 29 28 22 23 21 22 19 19 17 15 16 19 22 16 14 14 13 9 7 9 11 12 14 15
55 45 32 19 19 38 53 63 61 59 51 45 43 37 46 46 46 46 38 31 29 28 25 24 22 20 25 23 17 22 25 28 25 24 24 26 23 21 21 20 17 14 15 18 16 15 13 12 10 13 15 18 19 22
55 42 27 17 20 36 54 64 62 57 52 41 41 44 42 46 44 41 38 34 31 28 28 26 21 20 22 26 20 18 20 20 20 28 24 18 18 14 10 11 12 14 16 16 17 17 17 16 18 21 23 23 22 24
53 38 23 14 22 36 55 63 62 57 48 42 40 42 42 45 44 42 36 34 33 33 32 25 21 21 22 25 29 21 19 22 22 18 23 23 21 16 15 16 19 21 21 20 21 21 22 24 26 28 29 28 29 31
49 34 20 14 24 38 54 63 59 51 46 45 48 46 46 46 42 45 42 39 38 36 34 30 25 20 20 21 25 29 28 25 25 24 25 25 23 19 21 24 24 25 26 27 28 29 30 32 32 31 30 32 33 33
45 31 19 14 25 39 56 61 54 50 50 52 54 49 45 44 47 51 49 45 44 42 40 32 26 21 23 22 22 27 28 29 26 24 26 24 17 19 26 27 27 27 29 30 31 30 32 32 32 32 33 33 31 30
44 30 17 15 27 41 57 59 59 57 59 56 50 47 45 43 53 52 51 49 49 44 36 35 31 32 27 24 24 25 26 30 30 27 28 27 21 24 28 28 27 29 29 29 30 31 32 31 31 31 30 30 31 30
46 26 14 16 28 41 57 64 64 61 60 56 52 52 47 47 44 45 40 42 38 34 27 28 30 30 31 29 29 28 27 26 25 28 27 22 23 25 23 25 27 26 26 25 24 25 26 27 27 27 26 27 29 30
44 26 14 17 29 41 57 68 68 60 53 54 53 55 51 47 40 37 31 27 28 29 31 34 36 34 32 31 33 30 30 30 30 25 19 20 23 22 21 21 22 22 22 22 23 24 24 24 26 27 27 28 29 30
44 27 15 16 30 42 53 62 64 57 55 57 61 57 46 39 34 35 34 30 28 28 30 35 37 38 35 37 35 35 33 34 27 20 21 24 25 24 23 23 24 25 25 25 25 25 26 27 28 28 29 30 31 32
44 30 16 14 31 40 46 54 59 56 54 56 61 55 45 42 39 36 32 29 29 32 33 37 39 39 37 37 35 35 34 29 22 22 24 25 24 24 23 23 24 24 25 26 26 27 27 28 29 30 31 31 31 30
44 32 18 12 28 39 40 47 57 53 52 52 53 54 52 49 43 40 37 33 29 29 28 32 34 34 34 36 33 31 28 26 26 26 27 28 26 25 25 25 26 26 26 27 27 28 28 29 31 31 31 29 29 30
44 35 20 12 25 38 41 44 50 56 58 54 53 52 52 52 46 40 37 36 30 27 29 27 26 31 31 32 29 27 25 27 26 25 25 26 27 25 24 23 24 25 26 27 28 29 29 27 26 26 27 28 30 32
43 35 23 14 22 38 45 43 45 52 58 54 55 54 54 52 49 45 43 39 36 31 28 26 25 27 30 29 28 26 25 23 21 21 22 22 21 20 18 17 18 19 20 21 22 23 24 25 26 28 29 30 31 32
43 34 26 16 18 38 42 48 41 47 56 58 55 53 55 55 51 49 44 40 38 35 32 29 28 27 27 29 26 25 24 22 23 21 23 24 24 24 23 23 23 23 22 22 23 24 26 27 28 29 31 32 34 36
41 34 28 17 16 33 43 44 48 43 50 56 57 53 52 54 55 51 48 43 41 37 33 30 31 32 31 30 29 28 27 23 25 27 28 27 26 25 24 23 23 24 24 25 27 28 29 30 31 33 35 36 39 41
39 32 27 20 16 25 43 40 44 47 45 53 56 55 52 49 50 49 46 42 41 43 40 34 32 33 33 30 29 28 26 26 28 28 27 26 26 26 26 26 26 26 26 28 30 31 32 33 34 36 38 41 44 47
37 32 28 21 15 20 35 45 37 39 47 50 54 55 51 51 51 51 54 52 46 38 38 38 36 33 34 35 33 30 29 31 31 30 29 30 32 33 32 32 32 33 33 33 34 36 37 38 41 42 44 45 47 49
33 31 28 21 15 19 26 40 40 33 38 47 56 52 47 46 46 48 52 54 52 46 43 44 44 39 37 35 35 37 38 37 35 35 36 38 38 37 37 36 36 36 37 38 39 40 42 44 45 46 47 48 49 50
29 30 27 21 16 16 23 31 40 36 33 37 44 52 58 53 47 43 42 44 48 49 44 41 41 41 40 44 43 43 41 38 38 38 39 40 40 40 42 44 45 44 43 43 42 42 43 44 45 46 48 49 51 52
27 25 25 21 16 15 20 28 35 37 36 35 38 39 42 46 46 39 35 32 31 31 37 40 40 44 47 48 47 48 49 50 50 49 49 49 49 47 47 47 47 46 44 42 41 41 42 44 45 47 48 50 51 51
24 21 21 20 16 14 16 24 33 37 39 39 40 41 42 46 48 46 46 44 43 40 39 34 34 38 41 44 43 44 46 46 47 46 45 46 48 49 46 44 42 41 39 40 41 42 44 45 47 48 49 50 50 50
21 17 17 19 16 13 13 19 29 39 41 42 43 45 46 48 51 53 51 48 46 40 37 38 39 38 37 36 36 35 34 35 36 37 38 39 38 37 37 37 37 38 39 40 42 43 45 47 48 48 48 49 51 51
17 15 14 15 18 14 12 14 22 32 42 44 43 44 45 48 48 48 46 46 44 41 42 41 41 40 40 40 40 39 38 39 39 39 38 38 37 38 38 39 39 40 41 42 44 45 46 46 46 48 49 49 50 50
16 13 13 14 16 18 13 12 15 23 33 42 45 43 44 44 44 45 47 47 46 46 44 46 45 45 44 44 45 43 42 42 42 42 41 41 42 41 41 41 41 42 42 43 45 46 48 48 48 49 49 48 49 52
16 12 11 12 13 16 17 11 11 14 21 30 39 44 44 43 44 43 43 44 44 43 45 46 46 47 47 47 47 47 47 46 45 45 45 44 44 44 43 43 42 42 44 45 45 47 48 46 46 46 45 49 51 49
17 12 11 11 11 13 16 13 8 9 12 17 26 33 38 40 41 43 41 40 42 43 44 43 42 42 43 44 47 48 47 47 47 46 45 44 43 42 42 42 43 44 44 43 43 44 44 43 43 46 50 47 41 36
17 14 12 11 10 9 11 13 10 4 5 10 14 21 30 37 36 36 39 39 38 39 39 41 42 42 43 42 42 41 41 41 41 41 40 40 40 39 38 38 38 40 41 42 42 42 42 45 47 43 35 32 33 38

GFSWCAN_500_spd_021.txt.gz
Wind_Speed
84 70 54 51 43 25 12 35 54 57 57 45 40 44 36 26 26 45 40 33 28 23 21 16 15 17 6 3 5 18 21 20 17 18 16 17 16 20 19 15 13 12 12 9 9 8 12 14 15 13 14 15 14 16
84 69 54 50 41 24 12 39 52 56 52 44 43 43 33 28 35 44 36 32 27 23 20 13 15 17 12 6 9 20 19 18 16 15 17 22 18 14 12 14 13 13 9 12 11 12 12 10 11 7 11 13 13 14
85 68 55 49 37 21 13 42 56 55 55 46 42 41 41 33 38 42 31 31 26 23 24 17 15 19 11 10 6 15 11 17 17 16 18 24 24 17 14 13 14 14 13 11 13 13 15 12 10 11 9 8 10 14
86 68 56 48 33 18 14 40 60 59 52 51 43 37 40 32 41 40 32 30 26 24 21 18 17 19 13 11 10 7 12 15 14 18 19 17 21 22 19 19 15 16 16 14 12 16 14 18 12 12 12 11 13 13
86 69 58 45 29 15 16 37 58 61 60 54 43 41 42 30 39 41 33 30 27 24 21 19 17 17 19 13 10 10 16 20 14 16 14 17 20 20 18 18 19 15 20 21 19 18 16 16 16 12 12 12 11 11
86 69 58 41 25 12 20 37 56 68 64 53 43 43 42 34 35 41 35 31 27 24 24 18 17 16 18 15 10 8 21 21 18 18 19 18 16 18 15 15 15 11 14 15 14 12 16 16 15 13 9 7 7 8
86 70 58 38 23 11 22 37 56 66 65 52 43 42 41 38 37 42 36 29 26 26 23 21 16 17 17 18 14 13 22 24 21 22 19 17 15 17 13 12 13 13 14 17 18 16 14 14 13 9 8 9 10 13
85 70 57 37 21 11 21 41 56 60 58 52 46 39 42 42 43 42 39 31 29 26 25 24 18 16 15 18 19 16 15 28 27 21 20 20 17 17 18 17 17 15 12 15 17 15 15 14 11 11 12 14 16 17
84 70 57 35 18 10 22 39 58 59 56 53 48 41 38 39 42 35 36 32 31 30 30 24 19 19 18 16 20 21 18 17 19 17 17 22 21 17 15 12 12 11 11 11 12 13 13 13 16 18 19 21 22 23
81 70 59 33 14 9 23 38 56 57 55 49 45 37 39 40 36 38 40 38 41 36 34 29 25 21 19 19 17 22 22 18 19 19 18 13 17 16 13 15 15 14 14 14 14 15 16 18 21 24 26 27 26 25
79 69 58 32 15 8 25 38 57 57 53 52 51 43 42 38 35 35 41 44 43 43 38 32 26 23 21 18 17 18 23 26 21 18 20 16 16 21 24 25 22 22 21 20 20 19 22 24 25 27 27 27 27 27
76 65 56 36 19 9 25 40 58 57 56 55 50 43 43 40 38 40 44 44 43 40 37 30 26 25 22 17 17 18 18 23 26 23 23 17 17 20 21 21 21 21 21 21 22 23 23 25 26 27 28 28 27 26
72 65 53 39 20 11 24 41 56 57 55 52 51 50 49 47 42 36 36 34 35 32 26 29 29 28 26 17 17 20 22 21 21 23 22 16 20 23 24 24 23 22 22 23 22 22 23 23 23 23 24 25 24 23
66 69 51 40 21 13 24 41 56 57 53 52 54 51 54 48 41 34 33 33 33 34 35 32 33 32 33 34 34 31 29 28 24 16 11 17 19 20 21 20 20 21 23 22 23 23 24 24 24 24 23 23 24 25
62 67 53 42 24 11 25 39 53 55 54 55 55 55 50 44 38 34 32 28 26 31 34 34 33 35 32 34 32 32 32 32 24 16 18 20 20 20 20 20 21 22 22 22 23 23 23 24 23 24 24 26 27 27
59 63 54 40 27 11 23 38 55 55 55 57 56 55 51 48 40 31 27 22 25 29 32 30 31 30 30 31 31 31 32 26 21 21 22 22 22 21 21 21 22 23 24 25 25 25 25 25 25 25 25 25 26 27
57 60 57 37 29 16 20 34 51 56 52 50 53 57 55 53 48 41 33 29 28 30 27 27 28 29 31 33 31 28 24 23 24 25 25 23 22 22 21 21 22 22 23 23 23 23 23 24 24 25 26 27 29 29
56 57 56 39 28 18 20 32 44 50 49 49 50 53 55 55 52 45 39 35 30 27 26 25 29 33 33 31 25 21 24 26 26 27 27 26 23 22 22 22 22 21 21 20 20 21 22 23 24 25 26 25 23 23
54 58 53 39 25 20 20 33 41 44 45 50 50 53 55 55 54 52 46 42 34 28 28 30 28 30 26 23 23 24 26 29 29 26 25 24 21 19 17 17 16 15 14 15 16 17 18 19 20 21 21 21 21 23
55 58 54 39 25 21 18 33 40 42 41 47 48 52 54 53 52 51 49 44 40 34 33 32 26 22 23 22 21 24 26 29 29 26 25 23 21 19 17 17 17 18 18 19 19 20 20 21 21 22 22 23 25 26
54 57 52 38 26 21 18 27 44 38 41 45 49 51 53 52 50 48 47 43 42 40 36 33 31 30 28 26 23 24 25 28 28 27 27 24 24 22 21 21 22 21 20 19 20 21 21 22 23 24 26 27 29 30
53 57 51 35 26 22 18 21 39 44 35 44 48 52 55 52 50 49 47 46 44 42 39 37 33 32 30 27 26 23 27 28 28 28 27 26 25 25 24 23 23 22 21 21 22 23 24 26 27 29 31 33 34 36
53 57 44 34 26 22 20 18 29 44 38 38 44 50 54 56 54 48 40 44 46 43 41 40 37 35 31 29 31 30 28 30 31 29 27 28 29 27 26 25 25 25 26 28 28 29 31 32 32 33 35 37 39 41
56 53 41 32 25 23 21 17 23 38 42 37 41 44 49 53 53 55 52 43 41 45 41 38 40 39 39 39 34 33 33 32 34 33 32 31 30 30 28 27 28 30 32 33 34 35 35 35 37 39 41 42 44 47
52 42 36 29 24 23 21 18 19 28 42 38 37 42 43 45 48 56 54 50 44 44 45 47 42 38 38 39 41 38 35 37 37 37 37 36 35 34 32 34 36 37 37 38 37 38 41 42 43 44 46 47 48 48
45 42 33 25 22 22 22 18 18 23 33 41 36 38 39 41 43 47 50 51 45 41 44 44 45 46 42 40 41 40 40 39 40 40 39 39 40 41 39 38 37 39 42 44 45 45 44 45 45 45 45 46 47 48
46 38 27 21 20 22 23 19 17 21 28 39 39 37 39 40 41 39 41 45 45 37 33 31 33 38 40 41 41 40 41 40 39 36 35 35 36 37 36 37 41 45 47 46 46 45 44 43 43 43 44 45 46 47
41 30 22 18 17 19 20 19 17 19 25 35 42 40 39 39 39 40 37 35 38 38 36 36 35 36 36 33 34 36 40 41 42 40 39 37 35 34 37 42 44 45 45 43 40 39 40 40 41 43 44 46 47 48
30 24 19 17 16 16 17 18 17 17 21 29 39 42 41 40 38 36 39 41 39 39 41 40 37 35 32 31 31 32 33 33 33 32 33 35 37 39 40 39 39 38 37 37 38 38 40 42 43 44 45 47 48 50
23 20 18 16 15 14 15 18 17 15 17 23 31 41 42 40 42 40 37 34 35 36 37 37 38 37 37 36 37 38 36 37 36 35 34 36 38 39 39 39 38 39 39 40 41 41 43 44 45 46 46 48 49 50
21 18 17 15 14 12 13 17 17 13 14 16 22 29 39 44 39 40 41 39 35 35 37 39 41 40 38 37 38 40 40 40 41 41 41 41 41 42 43 43 43 44 44 44 43 43 45 46 46 46 48 49 50 50
17 18 17 15 14 11 9 13 14 12 10 13 14 20 25 32 40 44 36 36 35 35 35 35 34 35 36 38 41 42 42 41 41 42 42 43 44 44 43 43 43 42 42 42 42 43 43 43 45 45 46 47 48 48
16 17 16 15 13 11 8 6 12 12 8 6 10 12 18 24 27 31 40 41 35 33 31 31 33 34 35 36 38 37 37 38 38 38 37 36 36 37 37 38 39 39 40 41 41 40 41 43 43 44 45 46 49 48

GFSWCAN_500_spd_024.txt.gz
Wind_Speed
73 78 82 77 51 36 17 27 45 45 52 48 42 33 30 33 29 23 21 30 27 28 24 21 16 19 6 5 9 19 25 19 17 15 17 19 22 21 18 16 11 8 8 6 5 5 7 8 11 13 13 14 12 13
72 78 82 78 54 35 15 22 48 52 54 56 45 37 36 35 29 21 27 34 30 27 23 22 13 16 9 5 11 15 27 22 17 14 14 13 14 17 21 20 16 14 11 8 8 8 8 7 7 9 10 11 12 12
72 78 83 78 55 33 13 19 45 59 54 52 50 40 35 36 32 22 32 36 32 24 24 22 15 15 12 7 9 14 17 17 16 14 13 15 16 17 19 19 16 13 11 10 8 9 12 6 9 10 7 9 10 10
71 78 84 74 53 31 14 18 41 66 60 52 48 40 43 38 31 24 32 37 32 24 25 23 17 15 17 13 9 9 16 17 20 19 17 16 17 18 14 11 12 11 11 9 9 12 12 10 11 10 10 9 9 12
71 79 84 69 51 28 15 17 39 63 63 56 48 42 45 38 32 28 29 33 31 26 26 24 18 17 19 15 11 8 10 13 17 17 18 16 20 19 17 13 13 14 13 14 18 14 12 14 14 16 12 13 13 9
69 77 82 70 49 26 12 17 40 58 61 55 47 43 48 36 27 28 32 36 27 24 23 22 19 18 19 14 13 11 10 17 18 16 19 19 18 18 17 15 17 19 16 17 20 19 16 15 16 17 15 12 9 6
66 74 80 71 47 26 11 20 43 55 60 58 47 43 40 38 34 31 32 33 27 26 26 20 18 19 16 19 8 10 11 18 22 18 17 16 16 16 17 15 13 18 12 13 15 15 12 13 16 15 13 10 8 7
64 70 77 69 47 29 13 21 45 59 57 56 49 44 38 38 30 26 28 36 27 26 26 24 17 15 16 17 14 10 12 19 19 17 17 17 14 13 14 13 13 12 12 13 17 16 18 14 14 17 14 10 10 10
61 68 74 70 51 32 13 19 41 57 60 57 47 45 43 41 34 26 27 38 32 29 28 23 21 20 16 14 20 15 15 19 21 21 17 14 15 15 15 14 17 15 14 12 15 18 16 14 16 15 11 13 15 16
58 65 71 69 52 33 10 17 37 52 59 53 45 46 41 41 34 32 32 34 37 34 29 26 24 21 20 16 16 20 21 18 18 20 24 19 16 16 19 19 19 19 16 12 10 11 10 9 11 15 17 18 19 21
55 61 68 69 51 32 8 16 39 51 52 50 50 46 37 38 39 38 34 35 40 38 36 27 23 22 20 18 16 17 19 22 19 17 17 13 14 18 20 21 21 19 17 16 15 15 15 16 18 19 21 23 24 26
51 57 63 66 50 31 9 14 35 48 50 51 52 47 41 40 38 39 38 40 35 33 34 28 23 23 22 20 16 15 17 18 23 22 16 14 21 23 20 21 21 20 18 18 18 19 21 22 23 25 26 26 26 26
48 53 59 62 50 32 8 14 30 48 51 49 48 48 46 42 41 39 37 36 35 31 29 28 28 25 24 23 22 21 17 18 17 17 18 21 25 22 22 21 21 23 24 24 23 24 24 23 23 22 21 22 23 24
45 49 54 59 53 34 11 13 26 46 51 49 49 47 46 45 35 36 36 32 24 21 23 25 29 29 26 25 25 21 26 22 14 10 13 20 23 24 23 23 22 23 24 25 25 25 25 25 24 23 22 22 22 22
42 46 50 55 51 37 17 9 23 41 50 50 51 46 49 44 39 40 34 27 18 19 24 26 31 32 32 35 35 31 27 24 17 16 22 22 18 20 22 24 26 25 23 23 23 23 23 23 21 21 22 22 23 24
39 41 45 49 44 40 22 10 21 38 50 52 53 54 45 44 40 38 37 28 25 23 26 31 32 34 35 35 33 29 28 21 17 20 22 21 20 20 19 19 20 20 21 22 22 23 23 23 23 23 24 25 26 26
38 38 41 45 40 45 29 13 19 36 53 51 49 51 53 51 48 44 39 36 36 30 28 30 32 30 28 31 31 28 21 21 25 26 24 22 21 20 20 19 19 20 21 22 23 23 22 22 23 24 24 24 24 24
37 36 39 43 38 42 36 19 19 31 50 52 52 52 53 56 54 50 45 39 36 30 26 28 26 25 25 26 25 24 23 25 26 26 25 22 20 21 21 20 20 21 21 21 21 22 23 23 22 21 21 21 20 19
36 34 37 41 38 37 41 26 16 26 39 55 52 55 55 59 57 53 50 44 39 36 31 25 27 28 26 23 25 26 28 31 31 30 28 26 24 24 24 23 22 22 21 21 19 17 16 15 15 15 16 16 16 17
37 36 38 42 41 36 42 31 20 21 33 47 56 55 59 59 57 53 52 50 46 42 39 29 26 26 25 22 21 22 27 32 33 33 32 30 26 22 22 21 20 18 17 16 15 15 16 17 17 17 18 18 20 20
36 35 38 40 40 39 42 33 21 20 27 39 48 56 56 60 58 56 52 51 50 47 45 35 31 28 26 25 22 24 27 31 32 31 32 31 29 24 21 20 21 21 20 19 18 19 19 18 19 19 19 19 21 23
34 35 37 42 40 44 41 30 22 21 22 35 41 47 52 53 47 52 46 45 52 49 48 43 39 38 31 30 28 29 28 28 31 31 31 31 28 27 25 25 25 24 23 23 22 21 21 21 22 22 22 23 25 26
34 37 42 38 42 47 41 33 24 20 22 30 42 39 46 51 51 40 42 52 51 51 47 43 41 39 37 34 30 29 29 29 30 31 30 31 31 31 30 30 28 27 26 26 25 24 23 24 26 26 26 27 29 32
36 40 40 40 45 45 44 30 22 19 21 26 41 43 39 43 49 54 45 37 41 50 48 45 44 42 39 36 34 32 31 33 33 33 35 35 33 33 33 32 31 31 30 30 28 28 29 30 31 30 29 32 35 38
40 40 39 45 45 45 36 27 22 20 19 24 34 46 43 46 46 48 48 43 38 30 38 43 45 43 41 39 40 38 36 34 31 37 36 36 37 37 34 33 35 34 34 33 31 31 34 36 34 32 35 37 40 42
32 41 46 48 45 38 29 24 20 19 19 21 30 43 46 44 47 47 45 45 47 45 39 39 38 38 40 41 42 40 39 37 37 37 39 37 37 39 39 37 37 37 37 34 34 38 42 38 35 38 40 42 44 45
38 45 48 47 37 27 22 22 20 19 18 19 24 36 47 46 44 47 47 48 44 42 46 50 50 45 43 44 43 40 38 38 40 41 40 41 42 41 39 39 39 38 38 38 42 44 40 38 39 41 43 45 44 43
43 45 44 38 29 23 21 21 21 20 19 18 21 28 40 47 44 43 48 50 49 46 44 42 43 47 43 41 39 38 39 41 42 38 37 37 37 38 40 40 41 38 39 42 44 41 40 40 40 40 40 40 40 40
43 43 39 30 24 19 19 19 21 20 20 19 19 24 33 43 42 41 41 45 46 43 38 38 39 38 40 40 41 39 36 34 34 35 37 35 34 34 33 32 34 38 42 41 40 40 40 39 38 37 37 38 40 42
40 39 32 26 20 17 17 18 19 20 21 20 17 21 26 35 42 38 38 37 37 43 43 45 45 45 41 39 40 36 37 36 36 34 33 32 33 36 38 40 42 42 41 39 39 38 38 37 37 38 39 41 43 45
36 31 25 21 18 17 16 15 16 19 21 20 15 16 20 26 34 41 35 36 33 33 36 37 40 40 40 42 42 41 40 39 39 38 38 37 36 36 37 38 39 40 40 39 39 38 38 39 40 42 43 44 45 47
31 26 23 19 18 16 15 13 14 17 19 17 13 12 14 18 24 31 39 33 34 34 33 33 36 39 40 41 42 42 41 41 42 41 41 41 40 40 39 39 38 38 39 39 40 41 42 42 42 42 45 46 48 48
25 22 19 17 16 15 15 13 13 13 17 15 11 9 10 12 17 22 28 36 33 29 33 35 35 35 37 40 42 43 43 43 43 43 43 43 43 40 39 39 40 41 42 42 41 40 39 39 40 43 44 44 44 47

GFSWCAN_500_spd_027.txt.gz
Wind_Speed
59 62 66 72 77 76 52 21 20 46 44 40 38 28 28 36 33 31 20 18 20 26 23 25 21 18 15 12 10 13 23 18 18 23 22 21 20 16 13 12 6 3 3 2 2 2 3 4 5 6 5 5 4 8
59 61 66 72 77 75 52 18 21 43 48 43 41 33 31 32 33 30 27 21 21 27 22 23 22 16 12 6 10 13 24 20 18 15 14 16 14 17 16 15 12 6 7 6 5 5 3 5 8 8 6 6 5 6
58 60 65 73 77 71 49 18 21 45 49 47 44 38 31 36 33 30 21 21 24 24 27 23 21 15 11 5 6 10 23 23 20 16 14 15 14 14 18 21 19 14 11 8 6 5 5 5 6 8 8 7 7 8
56 59 64 71 76 67 45 22 16 45 50 51 44 41 35 34 32 31 19 19 26 25 26 22 20 11 11 5 6 8 14 23 22 18 15 16 14 17 16 19 18 14 15 12 10 9 9 10 6 7 6 6 8 9
55 58 63 71 75 66 43 24 14 43 51 51 49 42 36 37 33 29 21 20 25 29 25 23 21 12 15 10 8 9 13 17 20 19 17 16 15 19 20 16 15 18 17 16 13 10 11 12 10 9 11 10 9 8
53 57 62 69 73 66 47 26 16 36 53 55 53 47 39 36 36 30 25 20 22 29 26 23 22 14 15 14 11 10 10 12 16 20 19 18 17 20 22 15 15 14 17 16 18 17 15 12 11 12 17 10 9 9
52 56 60 67 70 65 51 27 16 25 52 57 54 49 43 38 37 32 24 18 25 30 26 22 20 16 14 15 10 14 13 13 16 15 14 17 16 19 19 17 19 17 16 14 13 15 18 17 13 14 14 14 11 9
50 53 58 64 68 64 52 28 13 22 48 60 53 48 42 37 37 33 23 20 27 31 28 24 20 17 16 14 15 10 12 15 19 19 15 14 15 14 14 18 16 14 15 16 12 12 14 11 13 13 15 16 14 9
47 51 55 61 64 62 50 27 7 23 40 58 53 46 41 41 33 27 22 20 28 34 32 27 21 18 16 14 14 10 12 15 16 15 17 15 14 13 12 12 15 13 11 9 10 14 15 14 14 15 18 17 13 11
44 48 52 57 60 59 47 24 6 25 37 52 51 44 42 40 36 31 23 25 27 34 32 28 26 20 17 15 15 18 12 12 12 14 15 14 11 11 13 12 13 14 14 11 12 13 15 15 13 16 19 16 14 15
41 45 48 52 54 56 45 23 7 21 35 50 49 42 41 35 36 32 27 27 27 32 32 28 25 23 19 16 15 14 15 17 15 12 11 13 19 21 15 14 14 15 17 16 13 13 13 13 14 14 15 17 19 20
38 41 44 47 49 51 45 23 6 20 35 44 48 43 40 36 40 40 37 30 27 26 30 24 23 22 20 18 16 15 17 17 16 19 16 15 20 20 17 16 18 21 20 18 17 18 18 18 18 19 21 23 24 25
36 38 39 41 44 48 45 25 7 20 35 41 48 42 42 40 43 40 36 30 29 23 25 28 25 23 21 20 18 18 17 17 16 14 15 23 23 19 18 16 16 19 20 20 22 21 21 22 23 24 24 24 24 24
34 36 36 37 42 42 43 29 9 17 34 41 46 43 42 44 38 37 32 28 23 18 20 21 27 30 25 23 24 23 22 20 16 16 19 17 19 23 22 19 17 18 19 21 23 24 25 25 25 25 25 24 24 24
32 34 34 34 37 35 40 34 15 14 33 43 46 46 45 47 40 36 34 29 24 22 19 21 25 28 32 34 31 29 26 21 18 18 15 15 16 16 18 19 20 20 20 21 22 24 25 25 26 25 24 23 22 23
30 32 32 31 32 34 36 35 23 10 26 44 48 49 49 47 44 41 38 31 28 27 22 22 23 27 30 34 35 32 28 21 22 26 25 22 19 18 18 19 19 19 20 20 21 21 21 21 21 22 23 23 23 24
30 31 30 28 29 32 30 35 30 14 18 37 50 50 49 48 46 47 44 37 32 33 27 22 20 22 28 32 31 29 25 24 30 33 31 26 22 18 18 18 20 21 21 21 21 22 22 23 23 23 24 24 24 24
30 31 28 26 25 26 31 33 31 21 13 26 50 52 54 50 50 50 49 47 39 36 34 30 26 26 27 30 29 25 27 30 34 32 30 28 25 23 23 23 22 22 22 22 22 22 23 23 23 23 23 23 23 22
29 29 27 25 24 26 26 33 32 27 14 22 41 58 55 56 53 50 48 46 45 42 38 35 32 28 27 26 26 27 27 29 32 32 30 30 28 26 26 26 25 24 24 23 24 24 24 23 23 21 20 20 18 18
31 30 28 25 26 28 27 32 34 30 23 17 32 53 61 59 62 61 54 51 47 44 43 39 34 28 23 26 26 26 26 27 31 31 31 31 32 30 29 29 28 27 27 25 24 23 22 20 18 17 18 19 19 19
32 32 30 27 27 29 24 34 36 35 28 22 24 39 58 64 60 59 58 56 56 50 50 43 38 33 30 25 24 27 26 24 26 29 32 33 34 32 30 29 27 27 26 24 23 21 21 20 20 20 21 20 20 20
32 32 29 27 29 29 26 37 40 40 33 26 26 29 44 60 65 61 53 44 41 51 54 52 47 44 39 36 29 27 27 25 25 25 28 30 32 31 29 29 29 28 26 26 26 26 24 23 23 23 23 22 21 21
32 31 29 29 32 31 32 41 43 42 36 29 27 29 33 48 58 61 59 59 53 51 52 54 53 50 46 42 41 33 30 28 26 27 28 28 31 32 31 29 29 29 30 30 30 29 28 26 26 26 25 24 24 25
33 31 33 35 33 32 38 45 46 43 36 31 26 27 29 40 50 51 52 53 50 52 55 54 48 48 51 47 42 38 36 33 29 29 31 31 30 29 29 30 31 31 32 32 32 31 30 29 29 29 29 28 28 29
32 34 40 36 31 37 42 46 47 41 33 28 25 25 26 33 46 50 47 52 52 48 39 46 40 40 42 44 42 41 39 36 32 31 30 32 33 33 31 31 31 31 31 33 33 32 32 31 30 30 32 32 31 33
38 38 27 31 36 39 43 48 44 35 30 25 23 23 25 28 41 48 43 50 57 51 49 44 39 45 46 48 46 43 41 38 36 35 33 33 35 36 35 35 34 34 36 35 36 36 34 31 29 37 37 36 35 35
27 27 33 37 40 42 46 45 40 32 26 21 21 21 22 25 33 47 49 44 51 57 52 50 42 40 42 40 45 44 43 41 41 40 39 38 38 36 38 38 39 41 41 40 38 36 32 35 39 40 40 39 38 38
28 31 36 38 42 44 43 40 34 28 24 20 19 20 21 23 28 37 50 50 43 45 58 56 54 52 49 45 43 44 44 46 46 46 45 43 42 43 43 43 42 40 40 36 27 32 37 40 42 42 40 37 37 38
31 35 37 41 43 41 38 34 28 26 23 19 18 20 21 21 24 29 40 50 49 44 46 53 51 46 46 48 46 46 47 47 45 46 44 43 40 38 36 39 37 34 28 29 37 40 41 42 40 37 35 36 38 38
35 37 40 42 39 37 34 28 25 24 22 19 19 21 22 22 22 25 30 40 47 47 47 47 45 50 49 49 46 48 50 50 46 40 38 36 35 34 31 28 29 31 35 37 38 39 40 38 35 35 37 37 36 37
36 39 40 37 35 34 30 25 23 21 19 19 20 21 23 20 20 22 26 31 38 43 43 47 49 46 46 42 41 42 44 43 44 43 40 40 39 38 37 36 38 41 40 39 39 38 37 36 37 36 37 37 37 38
38 37 36 34 32 29 24 21 20 19 17 18 20 22 20 17 15 17 21 26 33 32 35 35 35 38 43 45 43 41 42 42 42 43 44 43 42 40 39 39 40 40 39 38 37 37 37 37 38 37 36 36 37 39
37 35 33 32 29 24 20 19 18 16 15 17 19 21 17 13 11 12 16 21 28 31 29 29 29 31 34 36 37 40 42 40 42 43 42 42 41 40 40 39 39 40 40 40 40 39 38 37 37 36 36 37 39 42

GFSWCAN_500_spd_030.txt.gz
Wind_Speed
57 58 59 60 62 66 70 60 26 22 39 33 29 32 28 29 32 30 21 21 20 15 17 13 21 22 18 11 12 14 14 12 20 24 23 21 18 16 14 12 6 2 1 3 4 5 6 4 5 8 10 13 10 9
55 57 58 59 61 65 69 61 28 14 39 37 34 34 32 28 29 30 21 19 26 16 17 19 22 18 14 9 11 12 11 16 18 22 23 21 20 20 18 18 14 7 4 4 3 2 4 6 4 1 3 4 8 11
53 56 57 58 61 65 69 63 29 11 34 44 39 35 29 33 33 35 24 15 13 15 20 18 20 18 8 11 10 9 11 17 15 18 19 20 18 18 20 19 16 14 8 5 6 3 2 1 3 2 1 1 1 2
52 55 57 57 60 65 69 66 31 11 28 48 45 37 28 34 33 32 27 22 17 17 21 17 18 14 5 7 3 6 11 21 20 20 18 17 15 18 15 17 16 14 11 9 8 6 4 2 3 3 1 1 2 5
51 54 56 56 59 65 69 68 34 11 23 46 47 41 32 35 34 32 28 21 19 19 17 19 20 15 9 6 3 3 5 18 20 18 13 11 14 14 15 13 14 18 17 11 9 7 5 5 6 2 4 5 4 4
49 51 54 55 57 64 69 67 36 12 23 41 49 43 39 33 38 31 29 18 14 20 20 19 19 14 9 7 5 4 5 10 17 17 16 17 16 16 13 14 17 15 16 14 14 10 10 9 11 10 9 9 8 7
47 49 53 54 55 62 68 65 39 11 22 41 47 44 42 36 36 29 26 16 13 17 21 21 19 17 12 7 10 8 8 8 11 15 19 19 19 19 15 18 19 16 14 16 15 15 18 19 18 11 11 11 11 7
44 46 50 52 53 59 65 62 38 13 19 41 46 47 41 36 35 29 26 21 14 18 24 22 19 17 13 10 10 8 11 11 12 13 14 11 12 8 16 24 20 18 15 16 16 13 13 12 13 8 9 11 10 12
41 43 47 48 50 56 61 60 34 13 17 38 42 48 42 36 33 31 28 24 17 19 25 21 18 16 14 12 10 10 7 10 13 15 14 11 9 12 17 16 14 16 14 13 15 14 11 12 10 11 13 15 17 13
39 40 43 44 45 51 57 58 32 10 14 38 44 46 44 40 34 32 31 27 20 17 23 22 22 19 15 12 11 11 8 8 12 11 13 11 9 11 13 11 11 13 15 12 10 10 11 13 11 13 13 16 17 13
37 37 40 40 41 46 50 55 31 8 8 36 42 41 37 38 34 30 29 27 23 17 21 23 23 22 19 14 13 10 13 12 10 9 9 10 14 12 12 10 11 12 13 14 12 11 11 11 13 12 12 16 19 16
34 34 37 36 36 40 43 50 32 4 9 32 43 41 38 35 36 31 27 29 22 18 18 25 23 22 23 19 15 13 12 13 13 13 11 12 12 9 10 11 10 11 12 14 15 14 12 12 12 12 14 16 17 19
30 32 33 34 32 34 37 43 36 6 10 30 39 39 39 41 40 37 35 32 21 12 11 22 24 18 22 23 21 18 16 13 14 12 13 19 18 14 11 12 12 11 13 17 18 18 17 17 16 17 18 20 22 23
27 29 29 32 30 29 30 35 38 14 11 27 37 38 39 42 40 35 36 33 28 19 18 15 23 30 23 24 24 23 20 17 15 13 17 17 13 15 19 17 13 14 16 18 20 21 21 21 21 22 23 22 23 23
25 26 27 29 27 26 26 27 34 27 6 23 35 42 44 41 40 39 35 33 34 29 23 21 22 28 33 33 30 28 25 22 16 18 21 19 18 15 13 13 16 18 18 18 19 20 21 22 23 23 24 24 23 22
23 25 25 27 26 24 22 22 26 31 19 14 31 40 44 47 44 43 40 32 32 33 32 27 26 27 27 31 33 34 31 23 21 24 24 25 23 17 15 15 14 15 18 21 22 24 24 24 21 20 20 20 20 21
23 24 25 26 24 21 22 21 20 26 26 16 19 33 42 47 49 47 45 40 37 34 32 31 30 26 26 27 26 25 27 27 29 32 31 27 27 25 21 18 19 20 20 19 20 21 21 21 21 22 22 22 23 23
23 25 24 25 25 22 20 21 19 21 23 23 16 26 41 48 51 52 53 48 44 41 38 35 34 30 28 28 24 23 27 29 32 35 34 31 29 29 27 23 22 23 23 22 22 23 23 23 23 23 22 22 22 23
24 25 25 25 26 24 21 19 19 18 24 24 21 17 29 46 52 53 53 53 51 49 44 40 40 35 32 28 23 24 28 31 33 32 32 32 32 28 26 25 25 26 27 26 25 25 25 25 24 23 22 23 23 23
24 25 25 26 26 25 23 21 22 21 23 29 28 22 21 34 51 57 59 56 52 53 53 48 42 39 37 33 29 26 28 31 33 32 30 31 31 28 26 25 26 28 29 30 28 27 25 25 25 24 23 23 20 20
25 25 27 27 27 25 26 25 27 25 26 31 33 32 24 25 39 58 65 61 53 43 45 51 49 46 43 38 32 29 25 30 30 31 31 32 32 30 28 28 28 28 30 31 30 29 28 26 25 23 21 21 21 23
24 26 28 28 28 25 25 31 33 30 28 35 38 38 32 27 31 45 63 69 62 60 46 47 48 46 44 39 37 33 30 28 32 32 32 31 31 32 33 32 30 29 29 29 28 27 26 25 24 23 23 23 24 24
24 26 28 28 27 28 31 34 27 26 34 37 41 43 38 32 32 39 49 62 66 53 56 56 53 53 51 45 44 41 33 31 29 30 30 29 29 30 29 28 28 27 28 29 29 28 27 28 28 28 27 26 25 25
25 26 28 28 27 33 33 25 28 35 38 42 45 46 40 35 32 34 41 46 59 66 55 52 54 56 54 46 43 39 39 39 35 32 29 29 29 29 27 26 25 26 28 27 27 28 28 30 31 30 29 27 26 28
25 26 28 29 35 32 27 29 35 38 43 46 47 44 39 35 30 29 32 36 46 58 68 59 56 58 59 57 51 47 43 41 42 40 36 34 31 31 31 28 26 26 24 25 29 30 32 33 33 32 30 29 28 34
25 26 29 31 26 26 31 35 38 42 47 49 46 41 37 32 29 26 27 31 37 51 54 64 67 60 55 52 50 49 48 45 44 43 40 37 35 33 31 29 27 26 27 29 30 32 31 31 32 32 29 28 32 34
25 30 29 27 31 34 35 37 42 47 48 47 43 37 33 28 26 25 26 28 32 42 53 49 59 55 56 59 55 48 45 45 44 42 41 39 38 35 32 31 31 31 30 32 34 35 34 34 34 32 34 35 37 36
27 22 26 31 32 34 36 40 45 47 48 44 38 33 28 26 24 24 25 26 28 35 47 48 46 52 55 49 53 52 51 52 48 43 41 40 40 38 37 38 38 36 37 36 36 36 38 37 34 35 37 37 36 36
24 26 29 31 33 35 38 44 46 47 45 40 34 29 23 23 24 24 24 24 25 29 39 49 41 37 49 56 47 50 50 45 44 46 45 43 41 40 41 42 43 42 41 40 38 37 33 29 30 34 35 36 36 35
24 27 30 32 34 37 42 45 44 43 41 35 31 24 20 21 23 25 25 25 24 26 30 42 46 36 35 48 52 47 44 43 41 39 43 44 45 44 43 40 36 33 34 37 35 28 30 33 35 35 35 35 34 33
26 30 31 32 35 40 43 43 41 39 35 30 25 19 18 21 24 26 25 24 22 23 25 31 42 45 35 34 45 45 44 42 40 40 38 38 39 37 35 34 35 36 34 32 32 34 35 36 36 36 36 34 31 30
29 31 32 33 38 42 41 39 37 33 30 25 19 16 19 21 25 24 21 18 17 20 22 24 28 34 42 37 32 36 41 42 43 41 39 39 36 35 36 37 40 40 38 38 38 39 38 38 37 36 34 30 29 30
29 30 32 37 40 40 38 36 33 27 22 17 14 15 17 20 22 20 17 14 13 16 18 18 20 22 26 31 33 31 35 38 38 38 37 38 40 41 42 43 45 43 38 37 37 37 37 36 35 34 31 31 31 31

GFSWCAN_500_spd_033.txt.gz
Wind_Speed
46 50 52 56 59 62 62 61 65 52 19 30 31 37 29 23 23 19 14 9 14 12 13 11 16 15 13 20 14 8 11 12 14 21 26 23 22 19 16 13 7 5 2 4 5 5 6 6 5 4 5 7 9 8
44 48 50 54 57 62 62 62 65 54 11 41 34 37 34 31 28 24 20 16 13 12 11 13 9 17 17 16 9 9 12 9 12 22 25 27 23 21 18 17 11 7 4 6 7 5 4 6 5 4 4 1 2 2
42 47 49 53 55 62 62 63 66 55 14 37 43 37 35 30 30 26 21 17 16 15 13 10 13 16 14 7 11 11 12 10 16 22 25 25 24 23 20 18 16 16 13 7 6 5 6 3 5 4 4 4 3 2
41 46 49 52 54 60 61 62 66 56 22 26 44 38 33 31 27 25 24 18 13 12 9 13 14 13 11 5 4 7 9 13 16 22 23 22 24 23 22 19 19 18 19 12 7 3 2 4 7 4 4 3 2 4
40 44 48 52 53 58 60 62 67 58 29 22 44 42 37 35 30 34 30 21 15 11 8 12 11 11 11 5 2 5 5 14 19 23 22 19 18 19 22 17 18 21 18 14 10 5 4 4 1 0 0 2 2 2
38 42 46 50 52 56 58 61 67 56 31 19 45 43 39 33 35 30 30 24 18 13 11 12 11 9 10 5 2 2 4 16 20 20 18 15 15 17 13 12 15 12 12 11 9 7 6 5 4 4 6 5 5 4
37 39 43 47 50 54 56 60 66 51 27 14 46 46 40 33 36 30 28 24 16 12 15 12 10 10 9 5 3 3 2 7 18 19 17 16 17 15 12 12 15 11 8 9 11 11 11 12 15 13 10 7 8 4
36 38 40 44 47 52 53 58 64 46 25 13 46 47 40 32 34 28 26 25 15 10 14 16 12 9 11 7 5 6 3 6 9 12 15 17 18 14 14 20 16 15 12 11 13 14 15 14 14 12 9 5 6 6
33 38 36 39 44 47 49 54 62 42 23 18 43 46 40 34 28 27 27 25 17 9 9 15 16 11 9 7 5 4 2 3 7 8 11 12 10 11 12 11 16 17 13 16 14 12 12 14 9 9 9 10 14 13
30 35 33 34 39 42 43 48 59 41 19 22 41 42 40 35 29 29 26 23 19 10 5 15 18 13 9 8 6 5 5 1 5 7 11 12 9 7 11 13 15 14 14 13 10 10 11 12 11 7 10 11 14 15
27 30 30 30 35 38 38 42 52 40 15 24 37 38 37 34 28 29 27 25 20 13 4 15 19 16 14 10 8 7 7 7 4 6 9 10 9 7 10 12 8 9 11 12 11 11 13 13 12 11 11 11 12 14
26 27 28 27 30 33 32 36 42 40 14 25 33 36 38 35 32 32 31 27 21 15 11 13 21 16 16 15 14 12 9 8 8 7 7 9 8 6 9 11 10 8 10 11 11 12 11 10 11 12 12 10 9 10
25 24 25 25 26 30 28 29 32 40 18 18 31 35 37 37 36 31 29 25 20 16 17 18 20 22 19 20 19 17 14 11 9 10 12 11 12 10 7 8 11 10 9 11 13 14 14 12 11 11 11 12 13 15
24 21 21 23 24 25 26 24 26 29 25 3 26 32 36 37 35 31 30 26 23 19 18 14 15 22 23 22 22 20 19 17 12 11 13 12 11 12 13 15 13 11 12 13 14 16 17 18 19 18 17 18 19 19
22 21 18 21 22 22 24 20 20 20 24 16 11 32 35 36 34 33 33 30 29 25 27 24 16 17 24 28 25 23 22 21 17 16 16 16 14 14 13 11 13 17 16 15 16 18 19 20 21 22 22 21 21 21
23 19 18 20 21 21 22 20 17 16 15 20 14 17 34 38 38 37 38 36 34 33 32 33 31 26 25 26 29 30 26 21 20 21 23 22 19 18 17 15 14 14 16 20 21 21 21 20 20 20 21 21 21 21
23 19 19 19 20 19 22 22 17 15 12 14 17 15 14 37 43 41 41 41 39 36 34 36 37 33 30 31 28 27 27 28 32 32 31 31 26 22 20 21 17 15 17 18 19 20 21 21 21 21 21 20 21 20
25 20 19 19 20 19 21 23 20 17 15 14 15 17 18 15 28 46 48 48 45 44 42 41 38 37 34 33 27 25 29 31 34 37 37 35 32 28 26 24 26 25 20 21 22 22 22 21 21 22 22 22 21 21
24 22 21 20 19 18 21 20 22 19 17 18 20 19 20 20 19 21 40 52 52 52 52 48 46 39 35 34 32 30 27 29 31 34 35 35 34 31 28 26 27 29 27 25 25 24 24 24 23 22 22 22 22 22
25 24 23 20 19 19 22 22 24 21 18 21 23 23 22 24 24 23 23 34 52 56 58 59 54 47 42 40 36 37 35 29 29 32 34 35 33 30 27 26 26 27 27 27 26 26 26 26 25 25 24 23 23 24
25 25 24 22 20 22 23 23 25 22 24 27 26 23 24 27 29 31 28 28 35 54 61 59 59 61 56 49 45 40 43 38 34 32 32 33 34 32 30 27 27 28 28 27 26 26 27 27 26 26 27 26 25 25
26 25 26 22 22 24 24 26 27 26 27 26 21 21 26 29 32 36 36 34 34 39 52 62 56 58 58 57 52 49 47 46 38 35 32 32 34 34 33 31 29 31 30 29 29 28 27 28 27 27 26 25 24 23
27 27 27 23 22 25 24 26 28 30 29 25 25 28 31 33 37 41 42 39 35 38 45 54 68 60 59 55 52 50 48 46 44 38 34 32 33 32 30 30 30 31 31 31 31 29 28 27 25 24 24 24 24 24
27 27 27 22 23 26 28 28 30 30 26 26 30 33 34 39 43 45 47 44 41 40 43 49 55 69 66 59 54 48 49 46 42 38 36 34 31 31 30 29 28 26 26 28 28 27 26 26 24 23 24 26 26 25
27 27 25 22 25 27 27 29 28 27 30 31 33 36 40 44 48 50 47 44 42 38 38 41 46 52 66 72 64 57 51 50 48 44 42 38 35 29 28 27 26 26 25 23 23 25 25 24 23 25 25 25 26 25
27 26 23 24 25 26 29 27 28 31 31 33 36 40 44 49 51 50 46 41 36 33 33 34 35 41 52 67 64 61 58 54 54 47 47 45 42 38 33 30 29 27 26 26 26 26 26 26 27 28 28 27 25 26
25 24 24 25 25 24 24 26 29 32 33 35 39 44 49 51 50 46 41 35 31 29 29 29 31 33 44 56 69 63 60 59 56 53 53 48 45 42 40 34 32 32 29 28 27 26 26 27 30 30 28 26 25 27
23 26 26 24 24 25 26 28 31 33 34 37 42 47 50 50 46 41 35 30 29 29 29 28 28 30 36 47 53 64 60 54 58 61 54 53 50 48 42 38 37 37 36 32 29 30 32 32 31 31 30 30 31 31
26 26 23 24 23 24 28 30 32 33 36 40 45 48 48 45 41 36 31 30 29 29 28 27 26 27 31 43 44 41 57 58 53 54 55 51 46 45 40 39 39 39 38 35 34 35 35 33 33 31 32 30 30 31
25 22 20 20 22 26 28 30 32 34 39 43 46 46 44 40 34 29 28 28 28 27 27 26 26 25 27 34 43 34 38 52 50 48 47 51 46 46 45 42 37 36 37 36 36 37 37 35 31 30 30 29 28 27
19 19 20 22 24 27 29 31 33 37 41 44 44 42 37 31 26 27 27 27 28 27 25 24 23 22 25 31 37 29 32 43 49 47 47 46 43 45 48 44 40 39 36 34 34 38 39 38 37 34 32 31 29 27
19 21 22 23 26 28 30 31 35 39 41 41 40 35 30 24 22 24 26 27 27 25 22 18 18 19 21 27 36 26 26 33 43 41 42 41 40 41 39 40 41 40 39 38 38 37 36 34 32 32 32 31 30 30
22 22 22 25 26 28 30 32 36 38 39 37 33 28 23 20 21 22 23 24 23 20 17 13 13 15 20 21 31 34 23 29 34 40 43 43 43 43 42 41 39 36 35 35 35 35 34 34 34 34 33 33 31 28

GFSWCAN_500_spd_036.txt.gz
Wind_Speed
37 38 42 46 48 50 54 56 57 53 42 23 30 29 26 25 19 20 13 10 15 16 17 20 18 15 13 19 20 15 9 10 11 13 20 24 26 21 19 16 11 7 3 2 2 2 4 5 7 9 9 8 10 8
35 38 39 43 46 48 52 55 56 55 47 15 39 36 35 28 17 15 14 8 15 11 15 17 19 16 12 12 16 11 10 11 9 17 25 29 26 23 21 17 12 8 6 2 4 3 3 2 3 4 7 9 7 4
34 38 37 42 45 50 52 55 55 56 51 11 43 45 40 31 21 18 14 14 15 13 12 13 11 13 12 10 13 7 13 13 9 16 28 29 28 26 23 19 15 12 9 6 3 2 3 3 2 1 3 5 5 5
34 36 36 41 45 51 52 55 56 57 52 19 35 44 42 42 27 23 20 15 16 13 11 12 13 12 11 10 5 7 9 12 11 17 27 29 28 26 23 19 16 16 15 14 9 5 2 3 3 3 2 3 4 4
33 35 35 40 46 51 51 55 55 59 51 26 25 45 44 44 33 27 25 19 18 12 7 13 12 10 14 6 7 6 8 10 16 20 24 26 27 25 23 20 19 16 16 14 11 9 7 8 5 3 1 1 3 2
31 34 35 38 44 47 50 54 55 60 48 24 20 44 45 40 33 30 24 24 19 11 7 9 11 10 13 3 5 1 2 8 17 19 22 24 23 24 20 17 23 17 14 12 14 13 10 9 7 4 5 5 4 3
32 32 33 37 42 45 48 52 53 59 45 17 20 45 43 38 36 28 26 27 18 11 9 8 10 9 8 5 2 1 0 4 16 20 21 21 21 20 16 19 21 15 13 11 13 14 12 10 9 11 9 6 4 5
31 33 30 33 38 42 44 49 52 58 42 8 24 46 42 39 34 27 29 27 20 12 10 12 9 6 4 5 2 3 2 4 17 19 19 18 19 15 18 20 16 15 14 12 10 9 8 11 15 14 10 9 8 7
28 29 29 31 36 38 41 45 48 54 37 4 36 43 40 35 27 29 28 26 20 9 6 11 13 9 5 4 2 2 4 3 10 14 18 20 19 17 17 14 18 22 17 13 12 12 10 11 11 7 9 10 11 9
25 26 28 28 33 35 37 40 42 48 28 12 38 39 36 29 25 29 27 24 21 10 4 7 12 12 7 6 4 2 5 4 5 6 10 11 13 11 12 14 13 12 15 14 14 12 12 14 12 10 10 9 10 11
24 24 26 26 28 31 32 34 36 41 20 18 35 34 31 27 24 24 23 21 20 16 6 4 10 15 13 8 6 5 3 4 4 5 6 10 14 13 11 12 11 11 11 12 12 11 12 11 11 11 9 8 9 12
24 24 24 25 26 27 27 29 29 32 16 17 32 31 30 26 24 24 23 23 20 17 12 8 2 13 16 15 12 8 7 5 5 5 5 7 8 8 8 11 13 8 7 9 10 10 12 14 14 13 13 13 12 12
24 26 23 21 24 24 23 25 24 24 17 11 27 31 32 30 27 25 24 24 22 20 16 15 12 11 18 19 17 14 10 8 7 8 7 7 8 7 4 5 9 10 9 9 11 12 12 12 12 12 12 11 9 9
26 27 23 19 22 20 19 19 21 18 19 2 20 27 32 33 28 25 23 23 24 22 21 20 18 16 17 22 21 17 15 12 10 9 9 9 9 8 9 11 11 10 11 12 12 13 13 14 13 13 13 13 13 14
26 26 24 20 21 19 15 15 18 16 12 13 3 21 30 33 32 29 27 26 26 24 23 24 21 18 16 20 24 21 19 17 15 16 15 13 12 11 11 10 10 13 15 15 15 16 16 17 18 18 18 20 21 21
28 27 23 22 23 20 14 12 13 14 13 10 9 6 11 29 34 37 36 34 32 28 28 29 26 28 24 19 18 21 23 21 19 19 21 21 20 17 15 14 13 14 14 16 19 20 19 19 19 19 20 21 21 22
30 29 25 24 25 22 16 13 12 13 12 11 10 9 8 5 18 35 40 39 38 36 35 36 35 34 32 32 27 23 20 23 29 30 27 26 25 24 21 20 18 18 16 16 16 17 19 20 20 21 21 22 20 19
32 31 28 27 26 24 19 14 12 13 12 11 13 14 15 13 10 8 20 36 43 43 43 43 42 41 38 34 31 29 27 28 30 31 35 35 34 32 30 27 25 23 23 23 19 18 19 21 21 21 22 22 21 20
34 33 31 29 28 26 20 19 15 13 13 14 15 17 18 19 20 17 13 13 20 37 50 49 48 46 45 42 37 34 31 33 33 33 33 34 35 35 35 34 32 29 28 26 26 26 24 23 21 22 22 22 21 20
37 36 34 30 29 28 21 20 19 17 15 15 16 19 24 25 24 23 21 20 19 20 22 33 51 55 52 51 49 45 39 37 34 35 35 34 35 35 35 33 33 31 31 29 28 27 27 26 25 23 23 22 22 22
40 38 34 30 30 29 23 21 22 22 20 18 19 21 25 27 21 21 25 25 25 26 26 26 26 35 51 61 60 56 51 45 43 39 39 37 36 35 36 33 32 30 29 29 30 28 27 27 25 24 23 24 24 24
40 37 34 31 31 27 22 23 25 25 23 22 21 23 25 27 26 26 26 28 29 30 32 33 32 32 37 42 53 64 63 60 52 48 44 43 40 38 36 34 33 33 33 31 30 30 30 28 26 25 25 26 26 26
38 35 32 31 30 27 23 25 25 26 26 24 25 26 27 27 28 31 33 34 36 36 37 38 40 40 38 43 49 53 58 62 62 56 52 46 44 41 38 35 34 33 34 33 32 33 32 30 27 27 26 24 24 23
35 33 33 33 30 26 25 26 26 27 28 27 26 25 27 30 32 34 36 37 39 40 41 43 45 47 47 44 48 54 61 60 57 54 52 51 48 47 40 38 33 31 31 32 32 32 31 31 29 27 26 25 24 22
33 32 32 31 28 27 28 26 27 29 29 29 27 28 31 33 35 36 38 39 42 45 47 49 50 48 45 45 45 50 55 66 62 61 56 53 51 45 43 41 33 31 31 31 30 26 26 27 26 26 24 23 20 20
34 32 31 28 28 30 29 27 27 29 29 27 26 31 34 36 36 37 40 43 46 49 50 48 44 40 39 37 39 43 44 50 67 62 62 65 60 52 47 42 39 33 30 27 26 25 24 24 25 24 24 24 21 20
31 30 27 28 30 31 28 28 30 28 27 27 31 34 36 37 38 41 44 47 48 49 46 41 35 33 33 35 33 34 38 41 54 69 59 52 58 56 49 46 44 37 31 28 26 25 26 26 25 25 23 24 24 21
28 28 27 30 32 30 27 28 30 29 28 30 32 34 35 38 41 44 47 49 48 44 39 35 31 31 31 32 32 31 34 38 44 61 67 56 45 47 46 41 45 41 38 34 31 30 26 27 26 25 26 26 24 25
26 28 30 30 30 28 27 29 27 26 28 30 32 34 36 39 43 46 48 47 43 37 33 31 30 29 29 30 29 28 30 32 39 49 60 59 50 49 50 50 47 43 40 37 36 32 30 29 29 28 25 26 27 28
29 29 29 29 26 27 27 26 25 28 29 30 32 34 37 41 45 47 45 42 36 32 29 28 28 29 29 29 28 27 29 28 39 39 50 63 49 43 44 47 42 43 42 40 38 36 35 32 32 32 28 25 28 28
30 28 26 24 25 26 25 25 27 27 29 30 32 35 38 41 44 44 42 36 31 29 29 30 30 30 29 25 24 24 25 25 35 37 38 48 54 45 37 38 42 44 44 42 38 36 33 32 31 33 33 36 33 29
27 24 24 24 24 24 24 26 26 27 29 31 33 36 39 40 41 39 34 30 29 29 31 32 30 27 24 20 20 20 21 25 31 31 37 37 46 45 40 42 42 44 44 41 39 35 33 35 38 39 38 38 37 33
25 25 23 23 24 26 26 26 26 27 29 31 34 36 38 39 36 33 29 26 26 28 30 29 25 21 17 14 14 16 23 24 23 25 36 40 39 41 38 36 40 42 42 43 38 36 35 36 36 36 36 35 33 31

GFSWCAN_500_spd_039.txt.gz
Wind_Speed
29 31 34 36 37 37 41 46 51 52 51 45 14 34 26 18 19 13 13 14 20 24 18 21 19 15 14 16 23 20 12 11 9 10 13 18 22 27 23 21 16 14 9 3 2 3 6 7 9 10 11 12 13 16
26 29 32 33 34 35 40 45 49 51 52 48 32 35 40 30 23 20 14 15 18 21 21 21 17 16 11 10 21 15 12 11 10 12 15 23 26 27 24 21 18 14 8 3 2 3 5 8 9 10 10 11 11 10
26 28 30 31 33 34 38 42 49 52 53 52 43 32 41 34 31 27 19 14 15 13 16 19 17 16 13 10 13 16 12 13 15 14 18 25 29 28 25 23 20 15 11 6 0 4 7 8 9 7 8 9 9 9
26 26 28 30 33 33 37 41 49 54 55 57 48 20 47 43 36 29 21 16 16 13 13 13 13 11 13 13 11 9 10 12 14 15 18 29 31 31 27 22 21 18 13 10 10 10 10 9 7 3 4 7 8 7
22 24 26 27 31 33 37 40 48 56 59 62 49 17 55 51 37 29 22 18 15 16 11 12 13 14 14 13 9 7 9 11 11 16 18 28 32 30 29 22 20 21 15 11 12 13 12 11 9 8 8 6 6 6
22 22 25 28 28 32 37 41 48 56 61 65 39 14 58 54 40 29 22 20 14 14 9 5 11 12 13 11 4 1 6 10 13 15 21 26 29 31 27 20 24 18 15 15 15 16 15 13 12 10 10 9 8 7
19 20 23 25 26 31 36 40 47 54 60 59 23 15 54 55 45 36 21 20 17 15 9 6 9 11 10 11 3 1 6 5 9 15 18 24 28 28 22 20 27 18 16 15 13 12 14 13 12 13 13 11 9 8
16 19 21 24 25 29 34 39 45 51 58 45 10 28 50 44 38 32 25 20 19 16 8 6 8 10 7 8 4 5 4 2 7 14 17 20 23 21 19 27 21 17 15 13 12 12 12 12 16 17 16 14 12 12
15 17 20 22 24 27 30 36 41 47 52 29 13 35 39 35 30 29 23 20 23 14 7 8 12 12 8 5 3 2 2 4 7 12 16 18 19 16 19 19 20 16 17 16 14 13 13 13 13 11 12 12 12 10
16 17 19 20 21 24 27 31 35 40 44 15 21 31 31 28 28 27 22 22 23 13 9 7 10 13 10 6 4 3 2 4 9 13 16 16 18 20 15 17 19 19 18 18 17 16 16 15 14 13 10 10 12 12
17 16 18 20 19 20 23 26 29 32 34 6 20 24 25 23 22 21 21 23 21 16 10 4 6 11 13 9 7 4 2 1 3 8 10 14 16 16 17 16 17 18 15 15 16 17 16 13 13 11 10 11 11 11
20 16 17 19 19 19 19 21 22 25 25 4 16 24 27 24 20 17 21 20 20 22 17 11 5 7 14 14 11 7 5 4 3 4 8 9 10 13 15 16 14 13 15 15 15 13 13 12 12 14 15 15 12 12
23 20 20 19 17 16 17 18 17 19 19 11 16 24 25 25 21 17 15 19 21 19 19 17 13 9 7 12 15 13 10 7 6 6 5 6 9 9 8 8 9 12 11 9 11 12 13 13 13 13 14 14 14 15
26 22 20 21 18 15 14 14 14 14 15 12 3 24 28 28 26 21 20 19 21 24 23 21 20 18 16 15 15 17 16 13 11 9 8 8 8 8 8 9 8 6 6 9 10 11 12 13 13 14 14 13 13 13
27 24 24 22 20 16 15 12 13 11 11 9 7 7 16 28 30 27 26 24 24 25 27 26 24 21 20 18 17 18 20 17 16 16 16 14 13 12 12 11 11 11 12 12 12 13 14 14 15 16 16 16 18 19
28 28 26 27 25 20 17 13 13 13 9 10 10 7 6 11 24 33 34 33 30 29 29 29 28 26 26 23 19 16 17 19 20 20 20 21 20 18 16 15 15 15 14 14 15 18 19 18 18 19 19 19 20 20
25 27 28 30 27 25 19 14 14 15 13 11 11 11 11 9 7 13 26 36 38 38 37 37 37 36 32 31 26 25 20 18 21 23 25 27 26 25 24 21 19 18 18 17 17 17 18 18 19 20 21 22 21 20
26 30 31 31 28 30 22 18 16 17 17 15 13 13 13 12 13 14 13 13 22 34 41 43 42 44 41 39 35 33 31 31 32 32 29 27 30 31 30 28 27 25 24 23 23 22 19 19 19 20 20 20 21 21
27 31 33 32 31 31 27 23 18 19 20 18 16 15 15 16 15 16 18 20 19 17 18 25 39 47 48 47 46 43 41 37 36 35 37 35 32 32 34 36 36 34 33 32 30 29 28 28 27 24 22 22 23 24
31 29 30 33 32 32 30 27 22 20 22 22 20 18 17 17 18 19 21 23 24 24 21 20 19 20 26 40 51 52 49 46 43 40 39 40 39 37 36 36 36 36 35 35 36 35 33 31 29 29 28 27 26 25
37 34 34 35 34 35 34 30 26 24 25 25 25 24 23 22 20 22 23 23 23 24 26 25 24 24 23 23 25 33 49 56 53 49 48 46 46 42 41 40 37 36 34 32 33 35 35 33 30 29 29 28 27 26
31 31 33 36 36 37 36 32 28 26 26 27 27 28 26 25 25 26 26 26 28 31 32 32 33 33 33 34 33 31 29 30 39 52 58 53 52 51 48 44 42 38 35 33 32 32 33 34 31 30 30 28 27 25
32 30 32 35 36 36 34 32 30 27 28 27 27 28 27 27 28 28 26 26 28 30 34 36 37 38 38 40 40 41 41 39 37 37 43 54 62 60 57 52 46 44 41 37 34 34 35 35 33 31 30 29 28 27
29 31 33 35 35 35 31 30 30 28 27 28 29 28 29 30 30 30 29 31 33 34 36 37 38 38 40 41 43 45 46 47 47 47 44 48 54 66 65 58 52 48 46 40 36 34 35 36 35 33 32 31 28 26
31 35 36 35 34 31 30 30 28 28 29 30 30 30 31 32 33 31 31 34 36 37 37 38 39 41 42 44 47 48 50 51 52 52 53 52 55 59 63 60 58 50 46 43 39 35 35 34 32 32 31 31 29 27
32 34 34 31 30 30 29 29 30 30 30 30 30 31 32 33 32 34 35 36 37 39 39 40 42 45 48 50 52 52 53 52 49 47 50 52 53 57 55 58 55 54 52 45 40 37 35 34 34 34 32 31 29 27
31 32 30 29 29 28 28 30 30 29 30 31 30 32 33 35 33 35 36 37 39 39 41 44 46 48 51 52 51 49 45 44 44 42 42 44 46 48 59 60 56 52 46 46 43 38 36 35 33 29 28 26 26 26
31 29 28 28 27 28 29 30 29 29 31 31 32 32 33 33 35 37 38 39 39 42 45 47 49 49 48 46 44 42 41 40 39 40 39 38 42 44 62 69 60 62 52 47 45 39 37 35 34 31 30 25 25 23
26 26 27 27 28 30 29 28 28 29 30 30 32 31 31 34 37 39 39 39 41 45 47 48 49 45 42 38 38 38 37 36 34 33 34 34 37 40 59 73 53 47 44 50 49 42 41 38 35 32 30 32 25 20
24 24 26 28 29 29 27 28 28 28 29 30 29 29 32 35 37 38 39 40 43 46 47 46 43 40 39 37 37 37 35 34 33 30 31 31 33 37 49 63 56 44 41 46 47 44 41 37 32 30 31 30 29 19
25 27 29 29 28 27 27 27 26 26 25 26 28 30 32 34 36 38 40 41 43 45 44 41 39 36 36 36 34 32 32 28 26 26 27 27 30 38 45 56 53 44 48 49 47 43 40 37 34 31 29 29 32 34
26 28 30 27 26 26 27 26 24 23 25 27 29 31 33 34 35 37 39 41 43 42 40 37 35 35 34 33 31 29 25 22 22 21 22 26 33 40 45 51 50 46 43 47 45 40 40 38 37 33 31 30 30 28
30 29 26 26 28 28 26 24 24 24 27 28 30 32 32 33 34 35 37 40 39 37 34 32 31 32 32 30 27 22 18 16 16 17 18 26 33 41 41 45 42 37 43 47 46 45 44 41 39 37 36 33 32 31

GFSWCAN_500_spd_042.txt.gz
Wind_Speed
32 27 26 30 31 30 32 31 33 36 38 41 42 37 20 24 24 17 14 17 15 16 15 16 16 16 11 9 10 16 15 11 11 10 10 14 15 15 18 18 17 15 10 9 7 6 7 6 7 9 12 13 13 15
32 27 27 28 31 31 30 31 33 37 39 43 46 42 15 35 26 24 17 19 24 22 15 14 15 14 12 11 13 20 16 11 11 11 12 14 16 19 21 20 18 16 12 10 6 4 3 8 9 9 11 12 11 11
29 28 24 28 29 29 30 29 34 38 42 47 51 48 19 45 33 27 19 16 20 21 21 19 17 14 12 10 8 19 18 13 13 13 13 15 17 21 22 21 20 17 14 12 6 1 5 9 9 7 7 10 11 12
29 24 22 26 26 28 28 29 34 39 44 50 56 48 19 41 45 36 25 20 18 15 17 17 15 13 13 15 14 12 20 16 14 14 15 16 19 23 24 21 21 18 17 16 11 8 10 10 8 7 6 9 12 10
25 21 23 24 25 28 26 30 34 40 47 55 60 41 17 40 49 40 31 25 21 15 11 11 11 12 14 15 11 11 13 15 13 12 15 16 19 24 28 24 21 21 20 16 16 11 14 13 10 10 9 9 9 10
23 22 20 23 23 25 24 29 33 40 50 58 57 26 15 48 48 44 34 25 19 15 12 8 11 14 14 13 10 9 9 7 11 12 14 18 22 28 29 23 20 23 20 18 15 15 15 14 13 13 13 12 12 10
26 22 17 20 21 21 22 26 32 38 50 56 46 15 26 49 46 41 29 22 16 14 11 6 6 10 10 10 9 7 6 9 12 13 14 18 22 29 26 18 25 22 16 16 17 17 15 14 14 14 15 13 15 12
26 20 17 17 18 17 19 23 30 37 47 46 27 7 45 50 42 34 21 17 15 12 10 4 5 7 5 7 9 7 8 11 12 11 13 18 20 23 19 25 24 16 17 18 18 16 14 12 14 16 16 16 18 15
23 18 18 16 17 15 16 21 27 34 42 30 13 30 46 41 32 23 17 13 13 12 7 7 8 8 7 4 5 6 4 8 9 9 11 14 16 16 22 20 19 19 17 18 17 15 14 14 15 13 13 14 14 13
24 18 18 16 15 13 14 17 22 28 34 20 16 29 38 33 27 20 17 14 11 14 10 6 5 8 11 9 7 7 2 1 5 9 9 10 14 19 18 15 17 19 18 19 20 20 18 17 16 14 14 13 12 12
25 21 19 17 14 11 10 13 17 22 26 12 17 20 22 21 19 18 18 16 13 16 14 7 4 5 10 12 9 7 6 3 6 7 11 16 16 16 18 19 19 18 19 20 19 18 20 18 16 15 13 13 12 13
26 23 20 18 13 11 7 9 11 14 17 10 18 22 22 18 18 19 19 19 17 18 18 14 8 7 6 11 10 9 7 7 3 4 6 12 13 13 14 14 15 15 15 17 16 14 16 17 16 16 14 13 14 15
28 26 22 20 16 14 8 5 7 7 10 11 5 20 22 22 19 17 14 15 15 16 19 19 17 13 9 5 7 11 11 11 8 5 2 5 9 13 12 12 14 15 17 18 19 18 16 15 16 15 18 20 16 13
33 28 24 23 20 16 13 7 8 4 4 6 4 5 24 28 24 21 18 14 14 18 20 20 20 19 15 13 11 9 11 13 13 12 7 4 5 5 9 10 10 9 10 11 11 11 11 12 13 13 13 13 13 13
32 30 28 24 22 18 16 12 11 8 5 5 4 2 1 12 24 25 24 22 21 21 21 23 24 24 23 21 18 14 13 13 15 15 15 14 11 10 9 9 9 10 10 10 9 9 10 10 11 12 14 14 14 15
29 33 31 28 25 23 20 18 16 12 11 8 7 3 4 5 11 23 28 29 28 27 27 26 26 26 27 26 21 19 16 14 16 20 19 18 19 18 16 15 14 13 12 12 12 13 14 14 15 15 16 17 17 18
29 28 29 29 28 27 24 24 21 17 15 13 12 8 7 8 9 8 11 23 31 34 35 35 34 33 31 30 27 25 23 22 20 21 22 24 25 24 23 23 21 20 19 18 17 17 17 17 17 17 19 19 20 20
29 28 28 28 30 29 26 26 25 22 19 18 16 13 11 10 11 12 11 13 14 15 24 35 41 43 42 41 36 34 33 33 33 32 31 29 26 26 27 29 29 29 28 26 24 23 23 22 20 21 21 21 20 19
29 27 25 26 28 29 29 29 28 26 24 22 19 17 15 15 14 15 16 15 14 16 20 21 19 16 24 33 40 43 43 41 40 40 40 39 38 36 33 31 31 32 34 33 32 31 29 27 27 27 27 25 23 22
34 31 30 28 26 28 31 32 31 29 28 27 23 21 19 18 18 17 17 18 19 19 18 18 24 25 22 22 21 21 24 33 43 49 49 48 45 43 42 39 37 34 33 34 37 39 39 38 36 33 31 30 30 29
31 32 32 31 31 31 32 32 32 31 30 30 28 24 22 22 22 21 22 22 21 21 22 22 20 22 24 26 27 28 28 28 26 27 37 49 54 49 47 46 43 39 36 35 35 34 35 38 38 37 37 35 33 32
31 31 32 33 33 33 34 33 34 33 31 32 32 29 24 24 25 26 25 24 24 26 25 24 25 26 28 30 32 33 34 35 34 34 33 30 36 49 56 56 53 51 48 44 39 37 36 35 35 35 34 34 34 33
33 33 33 32 30 33 34 33 33 32 31 31 32 30 27 25 25 26 26 25 27 28 27 28 29 29 31 33 34 35 35 34 35 36 37 37 37 37 38 49 61 61 56 54 50 43 41 38 35 34 34 33 33 31
32 34 33 33 34 31 29 29 30 31 30 30 31 31 29 26 26 26 26 27 30 30 30 31 33 33 34 35 37 37 37 37 37 38 39 40 40 41 42 41 43 49 62 64 58 53 48 44 39 35 33 33 34 32
31 31 34 34 32 30 28 28 28 29 29 30 30 29 27 27 27 28 27 28 30 31 31 34 35 35 37 39 40 40 40 41 41 42 44 44 44 45 46 47 48 48 52 59 66 61 55 50 43 38 35 32 33 34
36 35 33 31 30 29 29 27 26 28 29 30 29 27 27 27 27 29 28 29 29 30 33 35 36 39 41 41 42 44 45 45 45 46 49 49 49 49 49 50 52 53 55 58 63 64 55 52 47 42 37 32 33 37
35 33 31 29 28 27 26 25 27 28 28 29 27 26 27 27 28 30 30 30 31 32 34 36 39 41 42 44 46 47 48 49 51 52 51 49 50 49 46 45 46 49 53 56 59 64 55 46 45 45 39 35 33 33
33 31 30 28 25 24 24 26 26 27 27 26 25 25 27 27 30 31 31 31 32 34 35 38 40 42 44 47 49 51 54 54 53 50 46 44 45 45 44 41 41 42 44 48 54 56 57 50 44 41 39 37 38 39
29 29 29 26 24 24 25 26 27 27 26 25 24 25 26 28 29 30 30 31 33 34 37 40 41 43 46 49 53 55 54 51 48 47 46 43 42 42 40 38 38 39 40 42 52 57 59 55 46 42 40 37 40 42
29 27 26 25 24 25 26 26 26 25 23 23 24 25 25 26 27 28 29 31 32 35 38 40 42 45 49 53 53 53 53 50 43 41 40 40 39 38 37 36 35 37 38 41 56 60 60 57 51 46 35 36 37 40
24 23 23 24 25 26 26 25 21 20 21 21 21 22 23 23 26 28 31 32 33 36 38 40 44 48 52 53 50 48 46 47 42 37 35 33 33 31 31 31 31 33 35 43 61 67 51 48 41 38 34 35 35 37
25 25 25 25 24 25 23 19 20 20 19 19 21 22 23 24 26 29 32 32 34 36 39 42 46 50 50 49 48 45 42 39 37 33 28 24 24 24 25 27 28 29 34 46 56 59 49 49 42 37 35 38 36 34
24 23 24 25 23 20 20 20 19 18 20 21 22 23 24 25 28 29 30 32 35 37 40 43 46 48 47 45 43 40 38 34 28 23 20 18 19 21 20 22 24 32 38 35 47 47 41 44 45 40 36 34 32 32

GFSWCAN_500_spd_045.txt.gz
Wind_Speed
35 29 35 35 32 26 24 28 29 31 31 31 33 34 35 26 21 28 26 22 22 17 16 18 15 13 10 7 7 10 13 13 11 11 10 10 11 13 13 14 15 14 11 9 8 8 8 4 5 6 5 5 6 10
34 32 35 31 30 24 25 28 29 31 33 34 36 38 42 36 22 35 30 24 23 18 17 16 15 13 13 11 9 10 15 16 13 12 11 10 11 14 16 17 16 14 12 12 8 6 4 2 4 5 4 7 8 8
34 35 32 27 30 21 25 28 30 31 35 37 40 47 50 37 29 41 34 27 26 23 19 16 14 13 12 8 7 7 17 17 13 13 12 12 13 14 16 19 18 16 15 13 8 5 2 4 5 4 2 5 7 9
38 34 31 23 23 22 23 25 29 31 34 40 46 54 52 24 31 43 35 28 24 25 21 17 15 15 13 11 12 11 11 23 18 15 14 15 16 15 17 20 19 18 17 15 12 8 8 6 8 7 5 6 7 8
34 28 30 24 25 20 23 24 26 28 33 42 51 54 40 12 33 46 32 28 23 21 20 17 15 15 12 11 11 10 15 18 16 17 15 16 17 18 20 21 19 19 21 17 14 12 11 12 11 10 7 7 10 10
29 23 29 24 23 18 19 21 23 25 33 44 49 47 19 10 42 46 34 30 24 17 15 12 9 10 10 11 12 9 10 15 15 14 15 17 20 21 20 20 24 22 24 18 14 13 14 14 13 11 10 11 10 10
26 25 28 22 18 15 16 17 20 23 33 43 42 37 2 25 48 39 30 24 23 19 13 8 3 4 8 8 8 10 11 15 14 14 12 17 22 21 19 21 27 23 23 18 17 17 17 16 14 14 12 13 12 13
23 25 24 21 16 13 13 14 16 21 31 38 29 14 28 47 43 35 27 24 19 15 12 6 2 2 4 2 6 7 8 12 14 12 14 14 17 15 16 29 27 22 18 17 19 17 18 15 14 15 13 13 15 15
20 29 25 20 13 13 11 10 12 19 28 26 16 32 39 41 36 28 22 18 13 10 10 4 2 4 5 4 4 4 8 10 10 11 9 8 10 13 25 28 24 20 19 19 19 18 16 14 14 15 12 13 14 13
25 32 25 20 14 13 9 6 8 14 18 13 31 29 31 33 28 21 15 11 9 9 10 1 4 3 7 9 9 7 7 7 7 5 5 6 12 20 22 24 21 19 20 22 21 19 18 18 17 17 16 15 14 12
32 30 26 20 17 14 8 3 3 8 13 19 24 26 28 26 19 13 7 7 5 4 6 4 2 7 5 8 11 9 7 2 4 5 12 14 12 15 18 18 19 19 21 19 18 18 19 20 20 20 17 16 14 13
35 32 27 22 20 15 10 6 3 5 10 13 21 25 26 23 20 14 10 8 9 8 8 11 8 5 7 8 7 10 9 5 0 2 4 13 17 14 14 14 17 18 18 18 19 20 20 21 19 20 18 17 16 13
36 32 27 23 22 18 14 9 8 6 7 10 18 21 25 27 24 19 15 14 13 13 12 14 14 13 10 7 6 6 8 10 10 3 3 2 5 17 17 17 16 15 15 15 15 14 15 15 15 18 20 17 18 19
33 33 29 26 24 21 16 13 12 10 8 9 14 20 22 26 23 20 21 18 15 15 14 14 15 15 14 13 11 10 11 10 12 12 9 5 2 1 10 17 16 14 13 12 11 12 14 16 19 21 21 17 15 14
26 30 31 29 26 23 19 18 16 15 13 10 10 9 6 16 28 27 24 22 18 16 15 16 17 18 18 18 17 16 16 15 12 13 13 13 12 7 6 7 7 6 8 9 9 10 11 14 15 15 14 15 15 15
16 25 28 26 27 25 23 22 20 19 17 15 11 11 11 10 14 28 33 29 28 26 25 22 21 21 21 22 22 22 20 18 17 16 17 16 15 15 14 13 12 11 11 11 11 12 14 14 15 15 16 17 18 18
18 18 23 30 28 26 26 26 25 23 21 17 17 15 14 13 13 12 15 28 35 34 31 30 29 29 28 27 24 23 21 24 23 23 23 21 23 23 21 19 19 19 18 18 17 17 18 17 17 16 16 17 19 20
21 21 22 22 23 26 28 27 28 26 24 24 22 20 17 15 14 14 15 12 12 15 18 22 28 31 33 35 33 33 33 31 31 32 31 31 30 28 26 25 25 26 27 27 27 26 25 24 24 23 21 21 20 19
26 24 24 25 26 26 29 30 28 28 27 28 28 25 22 20 18 17 16 16 14 14 14 14 17 18 19 20 18 20 27 35 39 41 42 40 38 38 37 36 35 32 31 31 32 34 33 32 31 30 29 27 26 26
27 27 26 27 28 27 28 29 29 29 29 29 30 30 27 25 23 21 19 19 18 16 15 14 14 12 15 20 23 23 21 19 20 23 30 38 43 45 46 45 43 41 40 39 37 36 35 36 38 37 35 34 33 32
29 30 30 29 29 28 28 27 29 28 29 30 30 31 31 30 28 26 24 22 19 19 20 17 17 15 16 17 18 21 24 26 27 28 29 30 30 26 31 43 51 53 50 47 44 41 40 39 36 36 37 37 37 37
34 32 31 29 29 30 31 29 28 25 26 29 31 31 31 32 33 30 28 25 20 24 23 21 21 20 19 20 21 23 24 27 28 30 31 34 36 39 39 40 35 34 48 57 53 49 45 43 40 37 35 35 34 33
34 31 32 32 30 29 28 30 28 27 29 29 31 33 31 31 30 31 31 24 23 27 24 23 23 23 23 23 25 28 29 29 31 32 33 34 35 36 38 40 41 41 40 38 42 56 58 54 50 47 43 38 35 32
34 30 29 30 29 27 26 25 26 26 27 29 31 32 32 30 29 29 29 25 26 27 24 24 25 26 27 27 29 30 30 32 34 36 37 37 38 39 40 41 42 43 43 43 44 43 43 52 59 56 51 47 40 35
34 32 31 28 27 26 26 24 25 26 26 27 30 31 30 29 29 28 28 26 28 26 24 25 27 28 28 29 31 33 34 36 38 39 41 41 42 43 43 44 45 46 47 48 49 49 47 46 46 52 58 51 46 40
36 36 34 28 24 24 23 25 26 26 25 26 27 27 27 29 29 27 26 28 26 25 24 25 26 28 30 32 34 36 38 38 39 41 44 45 45 43 44 46 48 51 50 50 52 53 54 53 51 51 52 55 52 44
38 33 32 30 27 26 25 26 26 26 24 25 25 25 27 28 26 27 27 26 24 25 25 26 26 29 32 34 36 37 39 42 42 43 45 47 49 49 49 50 49 50 51 50 52 54 56 58 58 57 55 53 52 47
36 30 29 28 27 26 26 26 26 26 26 25 25 25 25 25 25 28 27 25 25 24 25 26 28 31 32 35 37 39 43 44 45 49 51 53 55 55 54 51 48 47 47 47 47 48 49 52 55 56 56 51 48 46
31 29 27 26 28 28 25 24 25 24 24 24 24 24 23 24 27 27 25 23 23 23 24 27 29 31 34 37 40 43 45 47 49 52 55 56 56 57 55 48 46 45 45 45 44 43 43 45 46 48 49 50 47 46
30 29 28 28 27 25 25 25 24 25 25 24 23 23 23 25 25 23 21 21 22 23 26 28 30 33 35 38 42 46 49 50 53 56 57 53 51 51 50 45 40 38 38 38 39 37 38 40 40 42 45 51 48 49
27 26 26 26 25 25 27 26 26 25 23 21 21 21 22 20 20 20 20 20 21 24 27 29 31 34 37 40 43 46 50 54 57 58 55 51 46 43 41 36 32 30 29 31 32 33 35 35 36 42 51 55 50 45
28 28 25 24 26 28 28 28 26 22 21 20 19 19 18 17 17 18 21 22 24 26 27 29 32 35 38 41 44 48 51 54 54 51 48 44 40 36 32 26 23 23 22 23 26 28 30 31 37 50 55 50 46 42
25 27 28 28 28 27 26 24 20 18 19 19 16 15 15 16 17 18 21 23 24 25 27 30 33 36 40 42 46 49 51 51 48 43 40 36 30 26 23 19 18 20 22 22 24 25 28 32 42 50 49 39 45 43

GFSWCAN_500_spd_048.txt.gz
Wind_Speed
28 27 31 34 34 31 30 31 29 27 26 26 27 29 29 29 30 23 34 39 34 27 25 24 22 18 15 12 9 8 9 10 11 11 10 10 10 13 15 17 17 14 14 13 10 11 9 8 6 6 5 6 5 8
33 32 35 38 32 30 29 28 32 26 28 29 30 33 35 38 43 33 29 44 40 30 27 26 26 22 18 13 11 10 10 12 13 12 11 10 10 12 16 16 15 15 17 15 14 10 8 8 6 5 6 3 2 7
35 35 32 34 32 32 29 28 31 26 28 31 32 36 41 49 51 30 39 43 36 28 25 24 25 23 19 16 13 11 12 12 15 14 14 13 12 13 15 16 17 17 18 17 14 10 9 7 4 3 4 3 2 6
35 37 34 33 32 30 27 26 28 24 29 29 33 40 48 56 40 23 31 41 31 25 23 21 20 18 17 15 13 11 10 12 17 16 15 14 15 16 17 18 19 21 19 20 16 13 10 6 4 4 6 7 6 5
34 36 37 35 33 28 27 24 24 24 24 28 35 44 54 47 18 15 35 38 31 24 24 22 16 18 19 14 12 12 11 13 19 20 19 19 19 19 21 18 18 24 23 23 20 17 13 7 7 10 10 10 9 8
37 38 34 31 29 24 21 23 18 20 21 28 36 44 42 14 10 36 39 31 27 20 20 19 16 15 14 13 13 12 12 14 16 17 18 19 21 21 20 18 24 25 26 25 19 18 16 13 10 11 11 13 12 10
37 35 29 27 25 21 17 15 14 14 18 25 34 28 17 15 38 36 32 27 24 20 19 17 13 12 14 14 12 9 9 10 12 15 16 16 19 20 21 21 29 28 26 23 22 20 17 15 13 13 12 12 12 11
33 30 24 27 21 20 16 9 10 10 15 22 24 14 27 38 33 30 27 28 24 23 18 13 7 7 10 8 5 6 8 11 13 15 17 19 18 21 22 26 26 26 27 23 25 22 19 17 16 14 13 10 11 12
32 25 21 24 23 18 15 9 6 5 11 16 10 28 40 32 28 26 25 21 17 16 14 9 4 3 7 6 7 7 6 8 12 12 13 12 11 15 20 25 26 26 27 22 22 20 19 19 17 14 13 11 12 13
34 24 23 27 26 19 15 10 5 3 5 11 31 38 32 26 21 19 19 17 15 16 13 6 2 2 4 6 9 8 4 8 8 7 8 9 13 16 20 23 25 25 26 22 22 20 20 20 18 17 15 15 15 15
33 24 23 32 29 23 17 13 8 7 9 26 28 30 28 23 21 17 16 14 10 8 11 7 5 8 8 2 8 8 6 4 4 6 8 13 12 11 13 16 20 24 25 21 22 23 21 21 19 19 20 20 18 17
29 23 26 36 31 26 21 17 13 12 18 28 28 30 28 25 23 19 15 11 6 5 5 10 8 4 1 6 6 3 5 6 2 1 3 9 14 11 7 10 15 19 22 22 21 21 20 19 20 21 22 22 22 20
24 24 28 37 34 29 24 20 17 15 20 27 32 32 31 32 28 23 17 12 10 10 11 10 13 14 10 7 6 5 5 6 7 2 2 8 5 9 15 14 15 16 19 20 20 20 20 19 18 19 18 16 19 21
23 23 30 37 35 31 27 24 20 19 20 25 30 31 36 33 33 24 24 20 19 17 15 16 15 15 14 12 12 11 10 9 9 8 6 5 4 2 4 14 18 19 19 18 18 20 19 16 18 20 18 20 20 19
18 21 28 35 37 33 30 27 24 22 21 22 24 31 30 33 30 31 28 27 25 23 19 19 18 16 16 16 15 14 15 14 14 12 10 10 11 7 6 4 7 11 14 17 19 17 16 16 18 22 21 21 23 22
16 16 28 34 37 36 33 29 27 24 23 22 22 21 23 29 33 33 32 33 31 28 26 24 22 19 18 18 17 18 18 18 18 17 16 15 12 12 13 12 12 11 10 9 11 15 18 20 22 22 21 20 21 21
14 12 19 27 34 34 34 32 29 26 25 24 23 24 25 24 24 26 31 38 39 38 35 32 30 30 27 26 24 23 21 22 22 22 22 22 21 19 17 18 19 19 19 18 17 17 16 16 16 18 20 21 21 21
14 15 16 21 27 29 32 32 31 29 27 26 27 26 24 24 24 23 22 21 19 20 23 27 31 35 34 33 31 32 32 32 31 30 30 30 29 28 27 25 25 24 24 26 26 25 25 24 23 22 21 21 20 20
15 14 16 17 20 24 28 30 30 30 30 27 29 30 28 26 26 26 25 24 22 19 17 16 14 14 19 20 19 18 16 17 23 29 33 35 37 37 37 35 34 34 33 32 31 30 31 31 32 32 31 30 29 27
19 18 19 19 19 20 22 25 27 29 31 31 30 30 31 31 29 28 27 27 27 25 21 19 20 18 15 16 15 17 19 21 22 23 22 21 20 21 25 29 35 40 42 42 41 40 38 38 37 35 35 35 36 36
25 24 22 23 23 22 22 22 24 25 27 31 33 34 32 31 33 33 31 30 29 26 27 25 23 20 18 18 17 16 16 16 18 21 24 27 28 30 32 34 33 31 29 32 38 44 48 48 45 43 41 40 38 37
22 24 28 29 25 23 22 24 24 25 26 28 32 34 33 33 32 31 31 32 28 28 31 30 26 24 24 23 22 21 20 20 21 22 24 27 30 31 33 35 37 38 39 40 41 40 38 38 44 52 50 46 43 41
25 24 25 29 31 27 22 25 25 26 26 25 27 30 32 33 33 33 32 28 29 34 35 33 28 27 28 28 27 25 24 24 25 27 27 29 31 32 34 36 37 38 38 40 41 42 43 44 44 41 44 53 51 46
32 29 26 27 29 30 27 23 26 26 26 27 28 29 29 29 28 29 30 28 30 30 32 33 32 31 30 30 30 28 26 27 29 30 29 30 32 35 36 38 39 41 41 42 43 43 44 44 45 45 44 42 45 53
38 36 32 28 27 27 24 25 26 26 25 26 27 26 26 27 28 27 30 30 31 30 30 31 31 30 30 30 29 29 28 29 30 31 32 32 35 37 39 40 42 44 45 44 45 46 47 47 47 48 48 47 46 44
41 41 38 30 24 26 25 22 23 23 24 25 25 24 24 24 25 26 26 30 30 30 29 29 31 31 29 29 30 29 29 30 31 33 36 38 39 39 42 45 47 50 48 46 46 48 49 50 50 50 50 51 51 49
48 44 38 32 26 26 27 24 22 22 23 25 24 23 22 23 24 25 28 28 28 28 28 30 31 30 30 30 29 29 31 32 33 35 38 42 44 45 47 47 49 51 51 51 50 48 49 50 49 51 54 54 54 53
54 47 40 32 28 27 27 26 24 23 22 22 22 23 24 26 28 28 28 27 26 26 27 28 30 29 29 30 31 32 32 33 35 38 41 45 48 50 50 51 53 54 55 56 55 53 51 49 49 49 50 52 54 54
53 45 39 34 31 29 25 24 25 23 24 24 24 25 25 27 28 27 27 26 25 26 26 27 28 28 29 30 31 32 33 35 38 41 45 48 51 54 55 56 57 58 58 53 51 51 50 48 47 47 47 48 47 48
45 41 38 34 33 28 25 23 24 25 25 25 25 24 25 28 28 27 26 24 24 24 24 24 26 27 28 29 31 33 35 38 41 44 45 49 51 54 57 59 60 56 52 47 44 43 40 40 40 40 40 40 40 40
39 36 33 34 32 28 26 25 24 24 26 26 26 26 26 25 24 23 23 23 21 21 22 24 25 26 27 29 31 34 38 40 44 48 50 52 54 57 58 56 52 46 41 37 36 33 31 31 31 32 34 35 36 36
32 31 31 31 28 25 25 25 25 25 25 26 26 25 24 22 22 22 23 20 20 21 22 22 24 26 28 30 32 35 40 44 46 49 52 55 56 53 49 44 39 36 31 28 26 25 24 25 26 28 28 30 31 34
28 30 30 29 26 25 24 25 24 23 23 24 23 22 21 20 20 20 21 21 19 19 20 22 24 26 28 30 34 38 41 43 46 49 51 52 48 43 38 30 28 31 27 22 19 20 19 20 24 25 26 29 31 40

GFSWCAN_500_spd_051.txt.gz
Wind_Speed
51 46 37 30 30 33 34 34 30 28 24 28 33 23 27 28 28 27 27 31 43 36 33 28 24 27 21 17 13 11 10 11 12 10 10 11 13 17 19 20 21 17 15 17 15 14 13 11 11 11 11 10 9 7
47 40 34 32 35 34 33 32 28 28 26 29 34 29 31 34 34 37 39 35 34 51 44 34 27 28 25 19 14 14 12 12 13 14 12 11 12 13 16 19 20 16 17 17 15 14 13 11 12 11 12 11 9 6
45 39 36 36 34 35 32 30 29 27 26 28 32 32 36 39 42 49 54 44 39 51 47 39 29 29 26 22 18 15 14 13 13 16 16 14 13 13 13 15 18 16 18 18 17 16 14 13 12 11 12 12 10 8
43 34 33 33 33 35 30 30 29 24 26 28 31 33 37 44 53 58 42 29 36 36 35 34 28 27 32 28 22 17 15 13 14 16 16 15 16 16 16 15 16 18 20 21 20 18 15 13 10 10 10 11 10 10
41 35 34 33 33 31 30 29 27 24 25 27 28 33 41 49 52 37 12 20 32 31 30 27 25 24 26 24 21 17 16 16 17 18 18 17 16 17 18 18 16 22 24 26 25 21 18 15 12 11 8 10 13 13
42 37 29 30 32 30 26 25 22 21 23 21 25 34 40 35 21 5 24 36 31 27 28 27 23 22 23 23 18 17 16 15 16 18 19 20 21 21 19 21 24 21 22 23 25 24 22 20 15 11 8 8 12 14
32 25 26 25 31 28 21 23 19 18 14 17 24 29 18 7 17 37 38 33 26 22 23 25 21 19 19 19 18 15 15 14 12 12 14 17 19 20 22 23 25 24 22 25 27 27 25 22 18 14 11 11 11 12
24 25 26 25 31 24 21 22 19 12 10 14 19 11 23 31 33 31 28 24 21 22 21 20 17 15 14 15 16 14 12 12 11 13 14 16 17 20 22 21 26 25 23 25 28 29 26 23 20 16 14 14 12 11
27 32 32 26 30 25 20 23 17 10 9 9 5 19 28 28 25 24 23 22 22 22 20 15 11 8 13 15 11 10 10 8 10 12 14 16 17 21 22 22 24 27 24 25 28 27 28 25 22 18 16 15 14 13
30 33 34 31 33 26 24 23 17 12 8 5 13 28 27 23 22 24 23 22 19 18 15 12 8 9 10 13 11 11 8 7 10 10 12 15 15 15 13 16 20 23 23 23 28 28 26 25 22 20 18 18 17 16
35 37 37 34 34 25 28 25 19 15 11 15 28 28 27 22 22 22 19 16 16 17 14 10 9 10 6 6 10 11 9 7 8 9 11 12 11 9 9 11 14 16 18 23 28 28 25 24 21 21 20 21 20 20
34 33 28 29 30 23 32 28 22 19 16 29 33 32 27 22 20 21 18 15 14 14 14 11 9 7 4 2 3 4 7 7 7 8 9 11 9 8 8 7 8 11 15 21 26 27 25 25 23 22 23 23 23 22
39 38 33 27 26 24 35 32 27 25 25 32 35 35 30 27 24 20 17 18 14 12 11 10 12 13 11 8 5 2 1 3 3 5 7 5 5 7 9 10 8 8 10 17 22 26 24 21 22 22 22 23 21 18
30 30 30 26 23 28 36 36 32 30 32 37 37 37 35 34 30 24 24 19 15 12 11 11 11 13 16 16 13 11 10 8 6 6 6 5 6 6 4 6 9 15 16 15 16 19 20 21 22 21 22 20 19 20
26 27 27 24 23 30 36 39 36 33 33 37 36 38 36 34 32 32 28 24 22 20 19 19 17 16 17 18 17 15 14 13 12 11 10 9 7 7 6 5 6 14 16 15 17 17 18 16 15 17 18 17 16 18
23 23 24 22 24 31 35 41 39 36 34 36 36 34 35 34 35 37 37 35 31 29 28 26 24 22 21 20 18 17 16 16 17 17 15 14 13 12 10 10 10 9 8 11 17 15 17 19 20 20 18 16 18 19
21 19 20 19 24 29 33 38 40 39 37 33 31 32 33 34 36 36 37 39 38 37 37 37 31 28 27 25 22 19 19 21 23 22 21 20 19 18 18 17 15 14 15 16 15 15 16 17 20 23 24 25 26 27
15 14 15 16 20 25 29 35 38 40 38 34 33 32 31 29 30 31 30 30 32 35 38 39 38 38 37 34 31 31 33 31 31 30 30 29 28 27 26 25 24 24 23 21 21 21 22 23 24 24 24 24 24 24
12 12 13 13 15 19 23 30 35 37 37 35 36 36 33 31 30 29 28 27 26 25 24 22 19 17 22 24 25 26 23 22 23 25 28 28 29 29 30 31 33 33 32 31 30 30 30 30 30 30 30 31 31 32
15 13 13 11 12 13 16 21 27 31 33 34 35 35 35 36 35 33 30 29 29 28 25 23 21 22 18 16 17 18 17 19 20 21 20 21 21 21 21 21 20 20 22 24 28 31 35 39 40 39 38 38 37 36
14 18 18 14 12 12 13 14 16 21 25 29 30 33 34 34 35 34 34 34 32 27 27 29 30 28 25 23 22 21 19 18 17 17 17 16 17 17 19 20 22 24 25 26 28 32 34 34 32 33 38 43 44 44
12 11 12 16 18 16 14 17 17 18 19 20 23 27 30 32 34 35 34 32 30 33 34 34 33 30 29 30 29 27 25 24 24 23 23 23 24 24 25 24 25 26 27 29 30 32 33 34 36 39 41 41 39 37
16 16 16 13 13 16 19 20 19 20 20 20 22 24 25 28 31 33 34 32 29 33 33 33 34 34 33 30 31 31 29 29 30 31 30 29 29 29 29 28 29 30 32 33 33 33 35 36 37 38 39 40 41 43
21 20 20 17 16 14 16 21 24 22 20 21 23 24 25 26 27 29 28 29 32 33 33 33 32 30 29 33 38 37 35 35 34 34 33 34 35 33 31 31 33 34 34 35 37 38 39 40 41 41 42 42 43 43
28 27 25 23 21 20 18 18 21 22 23 23 23 24 26 28 27 26 26 28 31 31 32 33 34 31 32 32 34 35 38 37 36 36 35 35 35 35 34 34 36 37 37 37 39 42 43 45 46 46 46 46 45 44
34 34 30 27 25 23 22 19 22 22 21 23 24 25 27 28 27 26 28 31 32 31 31 32 33 32 33 35 35 35 36 36 35 35 36 37 37 37 37 37 39 41 41 43 45 47 48 48 48 48 47 47 47 47
42 41 40 34 33 30 24 23 21 24 24 23 24 25 26 25 25 26 28 28 29 31 32 32 31 31 32 34 34 33 34 36 35 36 37 38 38 39 38 38 41 44 46 49 50 51 52 52 52 52 52 52 51 49
49 48 46 42 40 34 30 24 23 25 28 26 25 25 24 24 25 27 27 27 26 27 27 28 29 30 30 30 31 32 33 35 36 37 37 38 39 40 40 42 45 48 50 52 54 56 56 55 55 54 53 52 51 50
49 49 49 48 46 42 34 28 26 27 30 31 27 24 23 24 26 26 27 27 25 24 26 28 30 31 31 31 31 31 33 34 34 36 37 40 42 44 44 46 48 53 56 58 59 58 59 58 56 55 54 51 50 49
64 62 61 57 51 42 37 33 30 32 32 31 28 24 23 24 25 26 27 26 26 27 28 28 28 29 30 29 30 31 32 33 35 37 39 41 43 46 49 52 55 57 59 59 60 61 59 54 49 48 46 44 43 43
62 64 65 59 51 43 36 35 34 33 32 31 29 26 25 24 24 24 24 25 26 26 26 27 28 29 28 28 29 30 32 34 36 38 39 41 45 49 53 55 56 58 61 60 56 51 47 43 38 37 37 36 37 37
42 43 44 41 39 38 38 38 34 30 31 31 27 26 26 25 22 22 25 25 23 25 26 26 26 27 26 26 28 30 32 34 36 38 41 45 49 52 53 56 60 58 53 47 42 40 39 36 31 28 27 26 27 29
31 32 32 35 37 37 36 34 32 32 29 27 27 25 24 22 20 23 27 26 21 21 22 23 23 24 25 27 29 31 33 35 38 41 45 48 49 52 56 55 50 42 36 34 35 38 37 28 22 21 21 21 22 23

GFSWCAN_500_spd_054.txt.gz
Wind_Speed
54 55 56 54 45 38 34 36 39 39 31 28 27 28 27 28 31 26 26 29 30 30 36 35 33 31 28 26 23 18 15 13 9 9 10 14 15 18 19 19 20 21 20 19 17 16 17 17 17 16 13 13 10 8
52 52 53 52 45 37 35 39 39 37 31 29 31 29 30 29 32 33 34 35 36 36 38 42 38 34 32 30 25 20 14 12 12 12 11 10 12 15 19 20 21 18 19 17 17 18 17 17 16 15 13 13 12 12
51 51 50 49 44 36 35 39 38 35 28 31 32 29 30 30 34 35 40 44 46 46 44 42 50 41 33 33 28 20 17 14 14 13 13 14 15 15 16 17 20 21 19 18 19 19 18 17 17 15 12 13 14 14
53 51 48 45 41 33 34 36 37 33 29 30 31 27 28 31 34 40 48 56 53 37 46 54 49 45 34 30 28 23 19 17 16 15 16 16 18 18 17 17 17 20 21 21 21 22 19 17 16 15 13 14 15 16
53 49 48 42 38 30 30 34 32 32 27 31 27 24 27 31 37 48 55 38 23 18 23 21 31 37 33 28 28 26 22 20 18 17 16 19 20 20 20 19 17 22 20 22 22 24 19 18 17 15 13 13 15 16
51 47 42 41 28 27 28 31 33 28 25 25 21 22 26 31 42 44 23 3 24 24 25 23 28 28 27 27 30 27 23 21 19 20 20 20 21 22 22 18 19 21 20 19 22 25 24 23 21 16 13 12 13 12
47 43 38 34 25 27 29 28 36 25 23 19 18 21 25 31 26 4 27 32 26 26 22 19 19 22 25 22 22 22 21 19 19 20 18 19 21 23 20 18 22 23 22 21 23 27 27 26 25 20 17 14 14 12
41 36 33 24 25 28 26 27 34 25 21 18 18 16 17 11 12 29 28 25 22 24 24 24 21 19 18 19 20 22 20 20 20 17 15 17 20 23 20 20 24 24 23 23 23 28 29 30 28 25 21 18 17 14
29 29 25 25 27 29 28 29 31 23 19 16 11 4 6 21 25 23 21 21 21 21 21 21 18 15 16 17 19 20 19 17 16 14 14 16 18 18 20 23 23 24 24 23 23 27 31 31 30 27 23 21 19 18
31 32 25 26 29 28 27 30 30 20 19 15 13 18 21 20 19 18 18 18 19 19 17 17 14 13 11 14 15 13 12 13 12 12 13 13 12 14 15 16 19 22 23 23 24 26 31 32 31 29 27 24 22 20
37 27 26 27 29 31 32 28 28 23 21 19 25 26 22 20 21 21 21 21 21 18 15 11 8 10 11 11 15 15 14 13 11 11 12 12 11 7 7 9 12 13 15 19 23 26 29 31 30 29 28 27 23 23
35 27 24 28 30 31 29 24 25 26 23 27 32 31 25 24 24 23 22 20 17 17 14 13 9 9 8 7 8 12 13 12 11 11 11 10 9 7 7 9 9 9 12 15 19 22 26 29 28 27 26 22 24 25
31 30 27 29 33 34 28 24 23 29 27 35 36 36 31 29 26 21 18 15 15 18 18 14 11 10 8 6 4 3 3 2 5 6 7 9 6 4 7 6 7 7 5 6 12 16 21 26 27 26 25 25 25 25
31 31 33 34 33 32 25 23 26 33 32 41 41 39 38 34 27 24 22 21 20 18 15 13 12 11 11 13 14 11 10 8 6 6 5 5 5 7 8 6 7 11 11 14 12 12 15 20 23 23 23 23 25 25
25 28 34 31 30 29 27 24 29 35 36 42 44 43 41 34 31 27 25 25 24 21 17 15 13 12 12 12 13 14 14 12 11 12 11 10 8 6 6 6 5 6 12 18 17 16 14 16 19 25 23 22 22 22
26 30 30 26 28 26 25 24 32 36 40 44 45 42 40 39 36 33 31 30 29 25 22 20 19 18 18 18 16 17 16 15 16 15 14 14 14 12 11 9 8 9 9 11 18 15 16 17 20 21 20 19 15 11
22 23 25 25 23 23 25 24 33 37 43 42 46 45 42 39 40 38 37 36 35 35 32 31 31 30 28 25 20 19 19 20 20 18 18 18 19 19 17 15 14 14 13 13 13 13 15 17 22 23 23 23 21 20
18 20 21 21 20 20 22 26 34 37 41 42 40 46 46 42 40 39 39 39 37 39 38 38 35 34 31 27 23 29 30 30 31 29 29 29 28 27 27 26 25 24 23 22 21 19 19 20 20 21 21 23 24 25
19 16 15 14 13 15 17 22 29 35 38 40 41 41 43 44 41 39 38 37 36 35 33 29 23 15 18 22 28 29 31 33 33 34 34 34 33 30 29 27 26 25 25 25 26 28 28 27 27 27 27 28 29 30
15 12 8 7 6 8 12 15 20 27 33 35 37 41 41 37 35 35 34 33 32 30 27 20 17 19 19 17 16 16 16 16 18 19 19 21 21 20 17 17 18 20 20 21 20 19 20 22 22 24 26 28 32 37
19 15 10 7 4 4 5 6 10 16 23 28 32 35 37 40 41 38 36 35 33 28 24 25 29 27 22 21 21 21 20 20 19 18 18 18 17 17 17 17 17 16 17 17 18 19 20 23 25 25 26 28 30 33
11 9 8 10 12 12 8 6 6 7 10 16 23 29 33 35 36 36 36 37 36 33 34 34 33 29 25 25 25 26 27 26 26 26 25 24 23 23 23 24 25 25 24 24 24 25 26 26 28 30 32 32 32 33
10 10 8 6 5 8 13 16 15 11 10 11 12 15 21 26 29 32 32 30 30 32 34 34 33 32 32 32 31 30 30 30 30 30 30 30 30 30 31 31 31 32 32 32 31 31 32 32 32 33 33 34 35 36
13 11 9 7 8 10 9 10 14 16 17 15 13 14 15 17 19 21 21 23 28 29 30 31 31 31 32 32 31 32 33 35 36 36 35 35 35 37 39 38 37 37 36 37 37 38 38 37 37 38 38 38 39 40
17 16 13 11 11 11 13 15 15 12 15 18 19 17 16 17 17 19 21 23 24 24 26 28 31 32 32 32 32 33 34 36 37 38 39 39 40 41 41 40 39 39 38 38 40 40 42 42 42 42 42 43 44 46
23 20 17 15 16 18 18 16 16 18 17 17 19 20 22 22 22 21 23 26 27 27 27 27 28 29 30 32 33 35 35 35 36 37 39 39 38 39 39 40 40 41 40 41 42 43 44 45 46 46 47 48 48 49
28 25 22 20 21 22 24 24 23 21 22 22 22 23 22 22 23 26 25 26 27 28 29 30 32 33 33 34 35 36 36 36 37 38 39 39 38 38 39 41 42 42 43 44 44 45 47 50 50 50 49 52 55 56
33 31 30 31 33 33 33 32 30 29 26 26 25 26 25 23 24 25 26 27 28 29 31 31 31 32 33 33 33 34 35 35 36 37 38 38 38 38 39 41 43 43 44 45 47 49 52 52 53 55 58 59 59 58
39 39 42 43 41 39 39 40 39 36 33 31 29 27 27 25 26 26 27 28 29 29 30 30 30 30 29 29 29 30 30 32 34 35 37 36 37 39 40 41 42 44 45 48 51 52 54 58 61 61 61 60 60 59
46 48 50 52 54 54 53 51 47 44 39 36 34 29 26 26 28 25 27 29 30 28 27 28 28 29 29 27 27 28 29 31 32 34 35 36 36 39 40 42 45 47 49 50 55 59 62 60 60 61 63 63 61 58
62 64 64 65 63 61 59 56 53 52 43 36 36 33 29 29 28 27 26 28 28 27 27 27 27 27 27 27 27 28 30 32 33 33 34 35 38 40 44 45 47 50 55 58 58 58 61 64 64 60 57 53 49 46
55 55 60 64 64 63 60 54 50 46 42 37 37 35 31 28 25 25 28 28 27 25 23 23 24 25 25 26 28 29 30 29 30 32 35 37 40 42 45 50 53 55 54 56 60 62 60 54 49 44 42 43 41 37
29 32 36 38 38 39 42 42 41 40 38 38 37 34 29 24 23 24 27 29 28 21 19 21 22 24 24 24 24 25 27 30 32 34 36 39 43 47 49 50 51 53 58 59 53 46 43 41 42 39 36 34 26 21

GFSWCAN_500_spd_057.txt.gz
Wind_Speed
53 54 53 52 53 53 51 49 37 34 36 40 37 31 29 28 27 31 31 30 30 27 33 32 31 31 27 26 28 26 24 21 18 15 15 16 17 17 18 19 20 23 24 24 23 20 21 19 18 16 16 15 12 11
50 51 56 54 55 53 49 46 36 34 38 38 36 32 30 30 31 31 34 32 33 36 32 35 37 34 34 33 31 30 27 21 17 14 13 12 12 14 17 18 21 20 20 21 21 21 19 18 18 17 16 16 13 12
53 56 58 58 55 52 49 41 36 34 38 35 34 36 32 28 33 28 31 35 40 41 39 41 39 43 42 38 39 31 28 23 18 15 12 11 12 12 14 17 19 20 20 19 19 18 17 17 19 18 18 17 15 14
52 56 63 61 56 51 49 40 33 33 37 34 36 36 30 30 29 25 30 39 44 47 49 49 53 52 48 46 40 33 28 24 20 16 14 14 15 15 17 18 17 17 18 18 17 18 19 19 21 19 19 19 15 14
55 58 64 62 54 47 45 38 30 33 34 33 36 30 30 26 23 27 34 42 45 41 32 30 37 53 47 42 36 30 31 25 21 17 15 18 19 20 21 21 16 18 15 15 18 20 21 22 21 21 20 18 15 14
59 59 62 57 49 42 39 32 29 32 31 32 33 30 23 22 26 32 34 26 15 1 15 15 13 19 32 34 35 29 31 26 21 18 19 21 22 25 24 21 19 20 18 18 19 24 23 25 24 21 21 19 15 13
70 58 59 55 41 36 30 27 29 31 30 31 32 25 21 23 24 17 8 13 22 23 19 14 11 24 29 34 33 27 23 24 22 22 22 22 24 26 22 16 23 24 21 19 21 24 25 27 27 24 24 21 16 14
74 68 54 41 31 28 23 27 27 29 28 29 29 19 19 15 6 2 29 22 19 19 22 18 15 24 27 27 27 24 24 23 23 21 21 22 23 22 13 18 24 24 23 21 22 25 26 28 30 29 28 25 20 18
71 64 44 31 27 24 26 27 24 22 25 27 22 13 8 6 10 21 21 19 17 19 19 19 15 14 19 20 19 18 19 19 20 21 21 22 19 18 19 23 23 24 24 22 22 25 27 29 31 32 31 30 26 23
63 39 29 24 20 24 27 27 22 23 26 22 17 10 17 20 18 17 16 14 13 13 12 13 15 15 15 16 16 16 19 20 19 17 17 17 15 15 18 19 21 22 23 24 24 25 28 28 31 33 33 32 29 26
38 36 28 29 25 25 29 23 21 21 18 17 16 21 24 22 19 18 18 18 18 18 15 14 13 12 11 12 14 16 16 16 14 14 13 9 10 9 11 14 16 18 19 21 24 24 26 29 30 32 33 32 30 28
37 32 36 29 24 28 29 24 24 25 19 18 23 28 28 25 23 21 21 21 21 19 16 11 10 11 13 13 12 15 14 14 14 14 12 8 7 5 7 9 12 13 14 16 17 19 22 26 27 29 31 30 29 29
34 29 27 29 31 30 26 26 27 25 18 19 28 34 32 29 27 24 23 22 20 17 15 14 9 9 10 8 7 5 5 7 10 6 4 6 4 4 4 5 7 8 9 10 9 9 14 20 23 25 28 28 26 26
31 29 31 35 36 31 26 26 27 24 19 20 32 39 40 33 27 27 26 24 22 21 20 17 13 11 10 9 9 8 7 7 5 5 5 3 4 5 5 5 5 8 9 9 9 7 8 11 16 21 24 24 24 24
23 26 31 31 31 30 27 25 27 26 22 22 34 41 44 35 33 32 28 25 22 21 20 18 15 13 11 7 6 6 8 9 9 10 11 10 8 7 6 5 3 3 7 11 11 14 14 11 13 17 21 23 24 26
27 30 30 30 27 25 25 27 26 26 24 25 33 40 43 41 37 34 32 29 26 25 24 21 18 15 13 11 9 10 10 10 13 14 14 13 12 10 9 8 8 8 7 7 11 16 15 15 15 18 19 22 22 23
25 24 20 21 23 25 25 25 26 26 26 25 32 40 44 44 40 38 35 31 30 30 29 27 24 21 19 18 18 19 17 18 19 18 17 15 14 15 15 15 15 14 12 12 11 12 12 13 19 23 21 17 17 18
18 17 17 16 18 21 24 25 26 26 25 27 32 39 41 47 46 44 40 36 34 33 32 33 32 32 30 28 27 30 26 26 27 25 24 24 24 26 26 26 25 24 23 22 21 20 19 19 18 18 19 22 25 25
17 16 13 13 17 20 22 21 22 24 27 30 33 37 42 44 48 46 44 42 40 38 38 37 37 31 29 31 33 31 29 29 28 29 30 31 32 32 31 30 27 26 26 24 23 21 21 23 24 25 24 25 25 26
15 12 11 12 13 13 13 14 15 17 21 25 31 35 39 42 41 46 46 44 43 41 39 34 31 31 31 29 21 14 13 13 15 15 15 16 17 17 18 19 17 15 15 17 17 18 17 16 16 16 17 19 20 21
12 10 10 8 6 5 4 2 5 10 15 19 25 30 35 39 40 40 39 43 44 40 35 31 32 35 29 23 19 18 16 16 17 17 16 16 15 15 16 16 16 16 17 17 17 17 17 18 18 18 18 19 20 22
15 15 14 11 9 7 4 4 2 1 4 10 17 24 29 33 36 37 38 38 31 26 28 31 31 30 26 24 23 23 24 24 23 23 23 23 22 22 22 22 22 22 23 23 24 25 26 26 26 27 27 26 26 26
14 13 12 11 9 10 11 10 9 6 2 2 5 10 18 25 30 32 34 33 33 33 36 36 35 34 31 30 29 29 29 29 27 26 27 27 27 28 28 28 29 29 29 30 31 32 34 33 33 33 33 34 34 34
15 13 10 8 7 7 8 7 8 10 12 11 8 7 8 12 17 22 26 29 31 31 31 31 30 29 30 31 32 32 31 31 32 33 33 33 34 33 33 33 34 34 34 35 37 38 37 36 36 36 37 38 39 39
15 12 10 9 7 7 8 8 9 10 10 11 14 14 12 12 13 14 17 19 22 24 26 27 28 29 30 31 32 32 32 33 33 34 34 35 36 36 38 39 40 40 40 40 39 39 39 39 39 40 41 42 42 44
17 15 14 13 13 13 13 11 10 10 12 13 14 14 16 18 18 17 16 16 18 20 21 23 24 25 27 28 29 30 31 32 34 35 35 37 38 39 40 40 40 41 40 40 40 41 42 42 43 44 45 46 47 48
22 21 20 20 20 20 19 17 15 14 13 14 17 19 18 19 22 23 22 23 22 23 23 24 26 27 28 29 30 30 31 33 34 36 36 37 37 38 38 39 40 41 41 43 43 43 44 45 46 46 47 49 49 49
26 25 27 28 28 28 27 26 24 24 23 24 20 21 22 22 22 25 25 25 25 25 25 26 27 28 30 31 32 33 34 34 35 35 35 35 36 35 35 38 40 41 41 41 42 43 44 46 47 48 49 50 52 53
31 31 32 32 33 34 33 32 32 33 33 35 34 28 24 26 27 27 28 28 27 27 27 27 28 29 30 31 32 32 32 32 30 31 31 32 34 34 35 37 38 40 41 43 44 44 46 47 49 50 51 53 56 60
37 39 40 41 41 41 42 44 42 41 41 43 42 38 32 26 31 32 30 32 32 31 29 27 27 29 29 30 30 31 31 30 30 30 30 31 32 33 35 37 39 40 40 42 44 47 48 49 52 56 60 62 62 62
47 48 51 52 52 52 53 53 53 52 52 52 50 46 41 38 35 36 33 32 33 32 29 27 26 27 28 29 29 29 29 29 29 30 30 30 30 31 34 36 38 40 42 44 47 50 55 58 60 59 59 60 62 62
54 54 56 61 63 66 67 66 65 63 62 61 60 57 49 42 39 38 32 33 34 34 28 24 24 25 26 27 28 28 28 27 26 27 26 27 30 33 36 38 40 43 48 52 55 56 56 56 59 61 59 54 51 48
55 59 59 54 55 63 68 74 79 77 74 71 64 53 45 41 40 36 31 34 34 30 26 22 22 24 26 26 24 22 22 22 22 24 27 30 33 35 39 43 47 52 53 53 53 56 56 51 46 45 45 43 42 37

GFSWCAN_500_spd_060.txt.gz
Wind_Speed
53 55 51 49 52 52 57 56 55 49 43 39 36 31 37 34 31 31 31 32 29 32 34 35 34 30 29 29 27 26 25 23 21 17 16 19 20 20 19 21 23 24 25 23 23 21 21 19 18 17 17 16 17 15
50 42 38 44 49 53 57 61 60 54 40 39 34 33 38 35 36 33 30 32 32 31 35 35 36 37 36 33 33 29 28 26 23 20 16 17 18 20 23 23 23 22 22 23 25 24 24 21 21 20 18 17 17 16
39 42 43 45 46 51 56 60 59 51 39 38 33 34 37 37 39 27 26 29 32 31 36 38 38 43 41 41 38 36 33 30 28 24 19 18 17 15 14 17 20 20 22 21 21 22 22 22 22 22 21 20 19 18
50 49 48 51 56 64 66 55 50 41 33 33 32 34 35 37 37 27 29 30 28 30 34 38 45 46 45 46 45 40 39 34 29 23 20 19 17 14 13 14 15 16 18 20 20 21 21 21 21 22 23 21 19 19
43 44 47 52 62 66 73 60 46 35 32 30 32 33 34 38 33 28 27 27 29 34 38 43 46 51 54 53 52 42 40 33 29 23 21 20 17 14 14 14 14 20 18 18 18 23 21 22 22 23 23 22 21 21
52 55 57 60 65 68 74 65 46 34 30 31 30 31 32 36 30 27 26 29 31 27 17 9 17 26 38 48 48 40 35 32 29 25 21 20 18 17 17 17 18 22 23 21 19 21 23 23 23 24 23 23 22 22
58 60 61 66 71 72 70 65 45 35 31 29 25 28 30 33 26 21 12 4 2 6 9 12 11 10 17 23 29 32 33 27 26 27 23 21 20 22 25 21 23 25 25 24 22 22 23 24 24 25 25 24 24 23
62 65 69 74 76 79 67 60 37 34 30 23 20 23 27 28 17 11 11 13 16 17 14 9 14 23 30 20 24 27 25 22 27 29 23 22 23 25 23 18 23 25 26 24 23 23 23 24 26 26 28 27 26 25
74 74 78 81 80 77 64 49 34 28 24 19 19 22 23 14 10 18 15 15 13 11 8 13 18 18 11 19 27 25 24 23 23 23 22 23 23 23 22 24 22 22 22 22 24 25 24 25 27 28 29 31 29 29
79 86 88 84 82 75 51 34 29 24 19 17 18 17 16 15 22 19 17 14 13 13 14 15 15 17 17 18 21 21 20 20 20 19 20 21 20 21 23 24 23 24 23 23 23 23 24 26 27 29 30 31 33 33
85 89 88 82 60 36 30 31 26 21 18 16 15 18 16 25 26 22 19 18 15 13 10 8 18 14 16 16 17 16 13 15 15 17 19 18 16 14 17 19 19 20 21 22 23 22 23 26 27 29 29 30 33 34
91 83 64 46 26 31 34 30 20 17 20 18 19 18 26 31 28 25 22 20 18 17 15 13 12 12 12 13 13 14 16 15 13 13 14 13 9 9 10 12 12 12 14 16 18 18 19 22 25 27 30 29 29 33
58 40 27 25 34 33 28 26 20 21 22 20 18 19 32 36 33 26 21 19 19 18 16 13 12 12 14 13 10 11 12 10 8 6 4 3 2 4 3 5 6 10 10 10 10 10 11 14 19 23 26 27 27 29
18 10 20 27 28 31 29 24 23 22 20 19 20 21 35 42 34 27 23 23 23 22 20 17 13 12 11 10 9 6 4 3 4 5 4 2 5 6 5 2 3 3 6 6 8 7 6 6 10 13 17 22 23 25
24 27 17 16 31 29 24 24 24 24 19 20 19 21 27 41 36 30 25 28 28 26 22 21 17 14 12 10 8 6 5 5 6 9 8 7 7 6 5 4 4 2 4 7 10 12 10 10 10 12 14 16 19 21
22 20 16 19 23 24 27 30 30 24 22 21 20 21 21 36 40 32 31 32 29 26 25 24 22 17 15 13 9 5 2 6 8 9 10 10 10 9 7 6 5 5 6 6 7 11 14 13 14 15 16 18 19 21
19 14 19 21 24 26 27 22 23 24 25 23 20 20 21 31 42 38 34 34 32 29 27 25 23 21 19 16 11 9 12 14 16 17 17 15 12 12 12 11 11 11 11 12 13 13 13 13 16 22 21 19 20 20
15 18 20 22 21 22 19 20 24 22 22 20 22 23 24 27 41 43 38 36 35 33 31 29 26 25 22 20 19 23 25 26 26 25 24 23 22 21 21 21 20 21 22 23 24 23 22 21 21 20 19 22 24 23
20 19 18 18 18 16 15 18 20 21 21 22 24 24 26 29 37 46 44 40 38 37 35 32 32 27 26 27 30 33 32 32 31 29 28 28 28 29 29 29 28 27 27 25 26 26 26 26 26 26 27 27 26 25
18 20 19 17 14 16 17 18 20 22 23 23 25 24 26 31 33 42 47 46 44 42 39 34 30 31 34 35 36 35 31 26 19 17 19 20 21 20 21 20 19 17 17 15 13 13 14 16 18 18 17 16 17 19
17 16 16 14 13 13 12 12 14 15 16 16 19 22 24 29 33 36 42 48 48 46 41 37 40 44 38 32 31 30 25 20 20 19 16 14 14 14 14 15 15 14 14 14 14 15 15 15 16 17 18 19 20 20
15 15 15 15 13 10 8 7 5 4 5 9 13 16 20 24 29 32 35 40 38 37 41 45 45 41 35 32 28 24 24 24 24 23 21 20 20 20 20 21 21 21 21 21 22 22 22 23 24 24 25 26 27 27
18 18 16 13 9 7 6 6 5 2 3 3 3 7 12 18 23 27 30 31 31 35 36 34 32 30 27 25 25 26 27 27 26 26 25 25 25 25 26 27 28 29 29 29 30 30 30 30 30 30 30 32 34 35
16 16 13 11 9 7 6 5 6 6 6 5 4 2 3 7 13 17 21 26 28 30 33 35 35 34 33 33 33 34 34 33 32 31 30 30 30 30 32 32 33 34 33 33 34 35 36 37 38 39 38 38 38 38
16 14 13 11 11 9 8 6 6 6 5 6 6 7 9 6 6 7 10 13 18 22 26 30 32 33 33 32 32 32 32 32 32 32 33 33 33 33 33 34 35 35 35 36 37 38 39 40 41 41 40 40 41 41
15 13 12 13 13 12 11 11 10 10 10 10 10 9 10 11 11 9 8 10 12 14 17 19 22 25 27 29 29 30 31 31 32 34 34 35 35 36 36 37 37 38 38 39 40 41 41 41 42 42 42 42 43 44
18 16 15 17 19 19 19 18 16 15 14 14 15 15 14 14 14 14 15 15 15 16 16 18 18 20 21 23 25 25 26 28 29 31 31 33 34 35 35 36 37 38 39 39 40 40 40 40 41 42 43 44 45 46
18 20 22 24 25 27 27 26 25 24 22 22 19 17 17 18 19 20 20 19 21 21 21 21 22 22 23 25 26 27 28 29 30 31 32 34 35 35 35 35 36 37 37 38 38 38 39 39 41 42 43 43 45 47
24 24 27 28 30 31 33 34 34 33 33 33 32 31 27 23 21 23 24 25 26 26 27 27 26 27 28 29 30 31 31 30 31 31 33 34 35 34 34 34 34 35 36 37 38 39 39 40 42 43 44 46 47 49
27 29 30 31 31 32 34 36 36 37 38 38 38 38 37 35 35 32 26 26 30 31 32 32 32 31 30 31 31 31 31 30 30 30 30 32 33 35 34 33 34 35 37 38 38 38 39 40 42 44 46 49 52 55
30 31 32 35 37 39 40 42 43 45 46 47 49 49 47 45 44 42 36 33 30 31 36 36 35 35 34 32 32 32 31 30 29 30 30 31 31 31 32 33 34 34 34 35 37 40 42 45 48 52 56 59 61 60
34 38 41 43 45 48 50 52 53 55 57 58 59 60 60 57 52 45 38 36 34 33 39 38 34 31 31 30 29 28 27 26 27 28 29 29 29 29 29 30 32 34 35 39 42 45 50 55 56 55 55 57 56 53
45 47 50 52 54 57 59 62 62 62 61 61 61 64 66 67 62 49 42 42 39 40 43 37 30 27 30 28 26 25 25 25 25 26 26 26 25 27 29 31 33 37 41 47 51 51 49 51 51 46 42 41 43 43

GFSWCAN_500_spd_063.txt.gz
Wind_Speed
42 43 45 43 43 40 43 49 51 49 50 57 54 50 36 34 35 36 34 32 32 28 33 32 33 37 37 34 32 30 29 30 28 25 20 18 18 20 21 24 25 24 22 20 21 21 22 19 19 18 16 15 18 18
44 44 40 40 42 49 41 47 45 44 48 54 51 46 35 35 34 35 32 35 32 27 29 33 30 38 38 40 38 33 32 28 30 27 23 20 19 20 24 23 22 24 27 27 27 26 24 23 21 20 19 19 19 21
47 42 40 36 41 43 41 50 52 48 55 61 56 43 38 37 36 34 31 36 32 26 25 29 34 36 42 40 41 41 37 34 31 29 26 22 20 20 20 22 24 24 25 25 26 27 29 29 27 24 23 23 21 21
46 42 38 33 38 45 43 49 52 53 57 64 66 49 41 40 39 32 34 35 32 28 27 30 35 37 42 46 44 41 40 39 35 32 29 26 22 20 18 17 16 17 20 23 25 26 26 27 28 25 25 25 23 23
45 43 41 43 42 46 47 54 55 57 61 66 68 56 43 40 36 33 35 36 29 28 28 27 31 35 39 46 48 46 46 44 39 34 31 25 23 21 20 17 12 13 16 19 21 25 26 25 24 25 26 24 25 25
45 47 47 47 44 50 55 63 65 63 68 70 65 60 44 40 32 34 33 33 28 24 23 26 30 37 45 51 53 53 46 48 43 35 31 27 23 23 21 16 16 15 15 18 21 23 25 24 26 26 26 25 25 26
45 47 51 52 55 53 61 66 71 72 74 75 65 57 41 33 31 31 29 18 16 11 9 12 20 27 32 38 45 47 39 35 37 34 31 27 24 22 20 17 17 21 21 23 23 25 26 25 24 27 26 26 26 26
49 52 52 55 60 55 63 69 72 79 77 71 70 49 31 30 29 28 13 9 4 2 1 3 15 21 14 9 22 30 36 30 32 29 30 28 24 22 22 16 23 25 27 29 26 26 27 27 25 25 27 27 28 27
53 59 58 59 59 61 70 73 79 82 78 82 53 28 26 27 28 15 17 13 9 4 5 8 6 5 17 21 27 21 25 26 24 23 26 28 26 25 23 24 28 28 27 25 24 25 26 26 26 26 26 28 28 30
59 61 61 62 66 71 75 79 88 86 81 46 23 21 23 25 20 17 17 17 12 8 8 7 8 7 12 15 15 23 16 23 20 20 24 26 24 23 27 29 29 27 25 25 24 25 25 25 26 27 27 28 29 30
60 61 60 68 75 81 84 86 88 60 34 22 21 24 20 23 20 26 19 17 16 13 9 8 11 14 13 14 15 15 16 17 17 15 21 20 18 26 24 26 27 27 25 26 25 24 24 25 27 27 27 26 27 29
66 66 73 82 86 89 89 67 36 21 23 22 22 20 21 22 27 31 26 22 17 15 11 9 12 10 13 11 14 16 15 14 13 15 17 14 17 20 17 17 20 20 18 17 17 18 19 22 25 27 28 27 27 28
70 78 85 90 85 63 31 29 26 29 28 21 20 19 22 23 33 36 29 22 19 17 17 14 15 13 14 13 13 14 15 15 13 11 10 7 4 6 8 9 8 10 12 11 12 12 13 14 16 19 22 24 26 27
76 85 80 49 35 26 28 23 28 29 23 22 22 22 24 21 27 35 30 23 20 19 18 18 17 16 15 13 13 11 10 9 9 9 7 4 2 2 4 1 1 2 5 4 5 6 7 8 7 9 13 17 20 23
70 38 16 13 15 23 22 17 21 22 20 22 22 21 17 18 19 37 32 25 23 22 22 20 17 15 14 14 14 11 8 6 7 8 7 6 6 6 3 2 3 3 1 3 6 8 9 11 11 9 9 11 12 16
20 26 21 18 12 13 12 15 17 20 20 22 19 18 17 17 18 34 35 28 26 25 26 26 22 19 16 14 11 9 8 7 7 7 7 8 8 9 9 8 7 6 5 5 5 7 9 11 13 14 13 13 14 15
23 23 16 17 18 16 14 17 20 20 17 21 20 19 20 19 18 27 39 33 28 29 29 30 26 24 19 16 15 12 13 10 7 8 9 12 14 13 12 13 12 10 10 10 11 12 13 14 14 15 17 21 21 19
19 20 18 15 14 16 19 16 17 20 23 21 20 23 23 22 21 24 38 39 33 32 33 32 28 26 24 20 20 21 20 17 16 17 19 21 21 22 23 21 21 21 20 20 21 22 23 23 23 23 21 20 21 23
21 17 13 11 12 14 15 17 20 22 20 21 25 25 24 24 24 24 35 44 39 33 35 34 31 27 26 26 28 28 26 25 23 24 26 27 26 25 26 28 29 29 28 27 27 28 29 30 29 28 27 27 27 28
15 15 15 15 16 16 17 17 20 21 22 23 24 24 24 24 25 28 33 44 46 40 39 36 32 33 34 34 33 32 30 29 28 29 29 27 24 22 21 23 26 28 28 28 24 18 15 15 14 15 17 18 19 18
19 18 18 18 18 17 17 18 20 21 22 23 24 24 25 25 26 27 32 40 47 46 40 36 37 43 39 35 33 31 31 32 32 30 27 24 18 17 15 14 14 15 16 18 20 20 18 17 16 16 17 17 17 18
19 19 18 18 17 16 14 14 15 15 16 19 20 21 21 22 24 26 28 34 40 42 43 44 46 45 40 37 35 34 35 35 33 31 26 25 22 20 20 19 19 20 20 21 22 22 23 23 23 24 24 25 26 27
17 16 15 15 14 14 12 11 8 5 4 4 9 13 15 17 19 22 24 27 28 35 47 49 49 46 42 42 41 41 39 37 34 30 29 28 27 26 27 27 27 27 28 29 30 31 31 32 33 33 34 34 34 34
17 17 17 16 14 11 11 10 8 8 9 6 2 1 4 8 12 14 17 21 25 29 33 38 43 43 41 41 41 40 39 36 33 32 31 30 30 30 32 33 33 33 34 34 35 35 36 37 37 37 38 39 39 40
16 16 16 16 14 13 11 10 7 5 5 5 4 6 6 2 1 4 9 13 17 23 28 31 34 36 37 37 36 35 34 34 35 35 36 37 38 37 36 36 36 36 37 37 37 37 38 38 39 39 40 42 43 44
19 17 16 16 16 15 13 11 9 8 7 7 7 8 8 7 6 6 6 7 10 15 18 22 26 30 33 34 35 36 36 37 37 37 36 36 35 35 36 36 37 37 37 38 39 39 39 40 41 41 42 43 43 43
18 18 18 18 18 17 16 16 15 13 13 12 11 13 13 12 11 11 12 12 12 12 12 14 16 19 23 26 28 29 31 32 34 34 34 35 35 36 35 35 35 36 36 37 38 39 40 41 42 42 43 43 43 43
18 19 20 21 22 23 23 22 21 20 20 20 19 17 16 17 16 14 13 13 15 17 18 18 19 18 19 20 22 23 25 26 27 28 29 30 31 32 33 33 33 35 36 37 40 41 42 42 42 42 42 43 44 44
25 23 22 22 24 26 27 27 28 28 29 30 29 29 27 27 27 26 23 20 18 18 20 23 24 24 25 24 23 24 25 26 27 28 29 31 32 33 33 35 35 36 38 39 40 41 41 41 41 41 42 43 45 46
23 24 26 28 28 28 30 32 33 34 35 37 37 38 37 36 36 36 34 33 32 30 27 26 27 29 29 29 29 30 29 29 29 29 30 31 33 35 36 36 36 36 37 38 38 39 40 41 41 42 43 44 46 47
25 25 27 28 28 29 32 34 35 37 38 40 41 42 42 42 40 40 40 39 40 40 40 37 33 35 35 33 33 33 34 34 32 32 32 31 33 35 36 36 35 35 35 37 38 39 40 40 41 43 46 48 51 54
27 28 30 32 33 36 39 41 43 45 46 49 50 52 54 56 56 53 51 51 52 52 50 48 43 39 41 38 34 35 36 34 32 30 30 31 32 33 34 34 34 35 35 35 37 38 40 43 47 51 54 57 56 55
25 29 34 38 41 44 48 50 53 55 57 59 61 64 65 67 69 66 62 61 62 61 59 56 52 45 41 41 37 34 34 30 27 27 28 30 31 30 31 31 32 32 34 36 40 44 49 52 53 53 53 54 51 45

GFSWCAN_500_spd_066.txt.gz
Wind_Speed
50 48 47 43 39 38 36 44 46 43 42 47 51 48 48 50 46 49 44 44 42 35 28 32 34 33 37 37 36 36 35 34 32 32 30 24 20 17 16 22 20 19 18 16 17 16 17 15 17 17 16 15 16 16
46 45 42 40 40 39 40 46 42 43 40 50 52 48 50 54 52 54 53 48 45 41 29 33 35 32 35 37 34 38 36 31 32 31 30 31 26 22 21 20 21 23 25 24 23 21 19 19 19 19 19 19 17 18
44 40 38 37 38 39 42 41 41 45 42 52 60 63 58 56 57 64 63 52 45 41 32 34 37 32 33 38 34 35 36 36 34 32 30 29 28 24 23 19 20 22 23 23 26 28 27 26 24 23 23 21 19 19
37 36 34 37 39 43 43 43 46 48 52 56 62 65 63 60 60 63 73 55 45 40 35 33 34 31 32 35 37 32 37 37 37 34 33 33 29 26 24 19 20 16 19 23 24 24 27 27 28 27 28 27 24 24
31 31 35 39 42 41 39 40 45 47 53 60 64 67 61 63 62 66 73 47 42 39 39 35 31 29 29 34 38 37 38 40 40 39 37 34 32 26 26 21 17 17 17 15 17 18 22 23 25 26 27 28 27 27
29 31 35 42 38 38 40 43 50 55 63 62 65 67 67 65 71 76 60 34 36 41 37 25 21 21 28 31 32 35 39 43 43 43 38 35 34 30 27 20 18 20 16 12 12 11 17 19 22 25 26 26 27 27
31 32 35 38 39 41 44 50 55 57 65 69 70 67 67 68 71 69 35 27 31 37 18 12 12 13 19 27 33 39 43 42 45 43 38 31 27 32 26 20 21 23 21 17 15 15 18 20 22 25 27 28 27 27
32 33 35 37 42 45 49 56 60 61 66 62 65 65 69 71 76 38 25 23 31 17 8 4 7 18 15 14 25 37 38 42 43 39 29 30 29 29 25 21 22 25 23 22 21 20 22 24 26 26 27 27 28 27
33 34 37 41 49 50 55 64 64 65 65 68 70 73 73 77 44 21 23 24 17 11 4 6 4 11 16 23 15 8 22 31 33 25 19 27 27 28 21 19 23 23 24 24 25 25 26 27 29 28 27 27 27 28
36 38 41 45 52 55 59 64 69 72 68 72 73 77 74 42 21 18 20 15 18 10 5 4 3 3 4 8 12 7 16 23 26 19 21 22 22 23 25 23 24 27 28 29 29 28 28 27 25 26 28 27 27 27
41 47 47 50 55 60 75 66 72 73 73 73 81 60 29 20 18 17 16 19 20 13 7 5 4 4 3 3 3 12 13 17 15 17 15 15 13 21 28 28 29 29 30 29 26 26 28 28 27 26 26 27 27 27
45 47 50 58 64 74 80 77 79 79 82 62 37 24 20 19 16 16 12 22 16 15 9 7 7 7 8 10 8 9 9 9 10 11 12 8 14 17 21 25 26 26 29 28 26 24 24 25 26 27 28 28 28 29
47 51 57 68 75 81 79 82 83 63 35 27 23 24 19 18 16 13 12 25 19 14 13 12 9 10 11 10 9 11 10 11 8 8 9 12 12 17 18 16 17 14 12 14 14 15 16 17 19 21 23 25 26 28
50 57 67 74 75 78 81 63 40 17 22 26 23 22 19 16 11 10 11 28 22 18 15 14 11 15 12 12 11 11 11 11 11 10 9 7 5 4 6 4 3 3 4 5 5 5 7 7 9 9 9 12 15 18
56 60 73 75 80 60 35 27 25 21 19 16 16 17 14 13 11 12 12 28 27 21 17 17 16 18 17 17 14 12 11 8 8 9 6 4 2 2 3 2 1 2 2 2 3 6 7 8 8 8 9 9 8 10
61 65 69 60 29 8 6 20 19 21 20 18 15 14 13 11 10 12 11 25 31 24 20 21 19 20 18 17 15 14 11 7 8 8 6 5 4 5 6 6 6 5 4 4 3 3 4 5 7 8 10 10 10 9
59 59 42 27 19 13 13 14 15 17 20 16 11 13 16 12 12 13 14 20 33 29 23 23 22 22 20 17 14 12 13 13 10 8 6 2 4 8 10 11 11 11 11 10 9 10 10 10 11 13 15 15 15 15
38 21 21 28 24 22 20 15 11 12 14 15 13 11 15 16 17 15 17 20 34 35 26 24 27 25 25 21 18 18 20 18 16 13 9 8 11 14 17 18 19 20 21 20 20 19 19 20 20 22 22 22 22 21
25 20 28 24 19 19 16 10 11 12 13 13 12 14 17 18 19 18 20 22 33 39 35 30 30 28 27 26 24 23 25 25 23 20 17 16 19 23 26 26 26 26 27 28 27 27 26 26 26 27 23 22 23 24
27 23 24 22 20 17 14 13 13 13 13 13 14 19 21 21 20 22 22 24 29 43 43 37 31 30 31 32 30 29 29 29 28 26 25 25 25 27 27 24 22 21 23 25 27 28 28 27 24 19 21 18 15 15
24 26 25 22 19 17 16 14 14 14 13 15 19 22 23 22 22 23 25 27 26 35 44 40 36 39 37 33 32 31 30 30 30 30 29 28 28 28 25 20 17 15 14 13 13 13 13 17 21 21 19 18 18 17
24 25 23 21 19 17 15 14 14 15 16 18 19 21 23 25 24 24 26 28 27 27 34 44 47 45 38 36 34 34 34 34 34 32 31 30 30 30 27 22 20 18 18 17 17 18 19 20 21 22 23 24 25 26
26 24 21 19 18 16 14 12 10 10 9 9 11 15 18 20 21 22 22 24 25 29 31 40 51 50 44 40 38 38 38 37 36 36 36 35 33 31 28 27 26 25 25 25 26 27 28 29 30 31 32 33 34 35
21 20 19 17 15 13 11 11 10 8 7 8 9 9 8 8 10 13 14 17 21 24 28 31 38 46 47 46 44 43 42 41 41 41 41 39 37 35 32 31 30 30 30 31 32 33 34 34 35 36 37 38 38 39
21 21 19 18 16 15 14 12 10 9 8 7 7 6 6 5 5 4 5 9 12 17 21 25 28 32 36 41 45 47 47 46 45 45 45 43 40 36 34 33 34 35 37 38 39 39 39 39 39 39 40 40 40 41
22 20 18 16 15 14 11 11 10 9 8 6 5 5 5 6 7 5 3 3 5 7 10 14 19 24 28 30 32 37 41 42 42 41 40 39 37 37 37 39 40 40 39 40 40 39 39 40 40 39 39 39 39 40
19 18 16 14 13 13 14 14 13 12 11 10 10 9 9 9 9 9 9 11 12 10 8 8 10 13 16 19 23 27 30 33 36 38 40 41 41 40 39 39 39 38 38 38 38 37 37 37 37 38 38 40 42 43
18 18 17 17 18 19 20 20 19 18 17 16 15 15 14 14 14 14 14 14 13 12 11 13 16 15 14 14 15 16 19 23 26 29 31 33 34 35 35 34 33 33 34 34 35 36 38 38 39 41 42 44 45 45
20 19 19 19 20 21 22 23 23 24 24 24 24 24 23 24 26 26 25 25 24 25 25 24 22 21 21 21 21 20 20 21 22 23 25 27 28 30 29 29 31 32 34 35 36 37 39 41 42 43 43 44 44 44
19 19 21 23 25 25 27 28 29 29 31 32 33 33 33 35 36 37 37 37 38 37 37 36 36 34 31 28 26 26 27 26 26 25 25 26 28 29 30 31 31 33 35 36 37 39 40 40 41 42 43 44 45 45
19 22 26 28 29 30 32 32 33 35 36 39 40 41 41 43 42 43 44 45 46 46 46 44 44 43 42 40 36 32 30 33 32 32 32 31 31 33 34 35 36 37 37 37 38 39 40 41 42 43 43 44 46 47
24 26 28 30 31 33 34 36 38 39 41 42 43 45 47 49 49 47 47 52 55 56 55 55 53 51 50 46 43 42 39 36 36 36 37 36 35 35 34 34 35 34 35 36 38 39 39 39 40 43 45 49 53 56
25 26 29 31 32 34 36 39 42 43 44 45 47 50 53 60 63 64 65 67 68 66 65 65 63 59 55 54 52 48 43 42 39 40 37 36 34 33 31 31 31 33 35 35 34 35 38 42 47 51 54 55 55 55

GFSWCAN_500_spd_069.txt.gz
Wind_Speed
57 51 45 48 42 39 40 43 46 48 49 52 57 60 58 59 59 61 64 64 62 54 52 48 34 28 29 30 26 30 36 32 35 36 31 28 26 23 18 14 19 18 16 14 14 15 14 15 14 15 14 15 15 15
61 44 47 51 46 42 43 41 42 42 47 51 53 54 55 56 60 64 65 66 63 55 49 49 31 26 29 30 28 28 35 32 22 35 36 31 26 26 24 18 17 20 21 19 18 17 15 14 16 15 17 17 16 17
49 47 49 47 40 38 34 35 35 36 46 50 50 50 55 60 65 71 66 63 59 59 60 34 29 28 29 30 30 29 31 35 31 34 34 32 31 25 27 25 21 18 20 20 22 23 23 22 19 19 18 18 18 18
48 51 50 45 41 32 30 30 30 33 45 48 50 53 59 65 74 72 61 60 57 59 56 25 29 29 31 28 26 27 33 38 42 36 37 36 32 27 26 25 24 21 19 21 22 22 23 23 24 25 25 24 23 21
53 54 49 39 31 30 30 28 30 34 43 42 49 54 60 68 77 75 65 63 62 58 46 25 28 25 20 21 24 27 32 39 35 34 40 41 36 30 27 25 22 21 20 18 19 18 19 22 22 23 25 26 27 27
53 55 48 43 36 31 29 25 28 34 37 45 47 55 64 75 78 72 67 65 68 55 25 24 19 19 17 19 22 28 32 40 42 46 49 42 36 33 31 26 22 23 22 21 16 15 14 13 15 18 22 24 25 26
57 54 50 40 34 30 26 28 32 37 42 48 50 58 66 77 80 74 74 67 49 25 23 11 9 14 15 17 20 25 31 40 45 41 44 41 34 33 34 27 24 28 26 22 20 17 13 11 11 13 15 20 23 26
51 48 42 32 30 27 29 34 38 38 43 50 57 63 71 80 85 72 76 68 28 19 12 7 6 6 14 20 21 18 27 37 42 42 42 41 35 31 32 25 27 30 27 24 26 22 18 17 15 18 22 23 24 25
46 40 36 35 33 31 33 37 42 43 48 54 64 71 76 84 82 83 56 30 17 16 6 8 10 6 10 16 25 25 9 25 35 35 37 38 36 25 25 21 25 32 29 27 27 26 24 23 23 21 23 28 27 27
45 39 35 35 31 33 38 41 45 50 57 62 69 77 84 92 84 52 23 11 13 9 7 5 5 4 4 12 17 17 11 10 20 34 32 30 21 26 28 23 22 30 31 26 25 26 27 28 29 29 28 31 30 29
40 34 32 30 31 37 42 44 47 53 62 70 79 86 86 82 48 18 12 13 10 11 7 6 4 2 2 5 5 11 7 15 20 21 19 14 12 17 20 22 25 23 25 27 28 29 30 31 32 32 29 28 28 28
30 27 27 33 38 41 42 49 55 64 71 77 91 86 75 39 18 15 12 10 10 11 8 4 4 1 4 4 3 3 5 7 10 10 9 8 10 15 14 17 23 26 27 28 30 33 32 29 29 29 28 28 28 28
26 27 33 36 41 45 53 60 65 70 75 88 78 56 28 23 15 14 12 10 14 14 7 8 7 7 7 6 5 7 6 5 4 5 6 9 10 11 14 15 19 23 24 22 21 21 22 23 23 24 24 24 24 25
28 33 35 38 44 52 61 69 73 77 83 62 37 18 15 17 15 14 14 8 16 19 13 9 8 11 12 12 10 7 6 6 6 6 8 9 10 9 12 12 2 8 11 10 10 8 9 11 12 11 12 13 15 18
33 35 38 45 51 57 64 71 70 73 52 29 18 19 15 14 15 14 11 7 12 23 17 14 12 10 14 14 12 10 9 7 7 9 9 8 6 6 5 3 4 6 5 5 5 6 8 9 10 10 11 11 11 11
35 37 43 50 54 58 69 63 56 38 21 13 16 12 12 13 14 11 6 7 14 23 21 16 15 13 15 17 17 15 13 8 11 11 9 6 4 2 2 2 3 3 3 5 5 5 5 5 4 4 5 8 10 11
39 42 51 57 57 61 57 48 16 8 13 15 14 15 13 11 12 10 8 7 14 27 25 20 19 18 18 18 18 17 15 16 14 11 11 9 7 3 2 4 5 7 9 11 11 10 9 9 8 8 10 12 14 15
45 50 58 65 59 52 41 30 20 16 16 16 15 15 14 12 13 14 10 11 12 25 31 27 24 23 22 17 16 20 20 18 17 15 15 12 7 5 6 8 12 15 16 18 19 20 19 18 17 17 18 18 20 21
51 57 59 54 43 30 25 22 22 19 18 20 18 13 13 14 14 13 11 12 14 17 31 33 31 26 25 22 17 18 21 21 20 20 19 16 13 13 13 16 19 22 23 22 23 26 27 26 25 24 23 22 18 15
56 47 49 38 24 22 21 22 25 22 18 17 15 13 13 14 15 15 16 15 15 18 20 34 36 32 29 28 25 23 23 24 25 24 24 23 22 21 21 22 23 25 23 20 21 23 24 26 27 26 24 22 20 20
46 34 27 25 26 27 28 26 26 22 18 15 13 15 16 17 16 20 22 21 20 18 24 23 34 41 37 33 32 29 28 27 27 27 28 28 28 27 27 25 24 24 22 19 16 13 12 13 12 12 14 17 19 16
22 22 22 23 24 26 27 27 24 18 17 16 16 16 16 17 22 25 24 24 23 25 26 28 29 39 45 40 35 37 34 31 31 31 30 30 30 30 29 27 26 26 23 21 19 18 16 16 16 17 18 20 21 23
24 25 25 27 26 24 23 21 17 15 13 11 9 8 9 11 14 18 21 23 25 26 26 28 30 32 39 46 42 39 39 38 35 35 34 34 33 32 30 30 31 30 28 25 25 24 24 24 24 25 26 27 29 30
25 24 24 25 25 23 19 15 14 11 9 8 7 6 8 10 11 11 12 14 17 20 22 25 28 30 31 39 47 47 42 41 42 41 39 37 36 36 36 36 35 35 33 30 29 29 29 29 30 32 33 34 35 36
21 23 22 20 18 18 18 15 12 10 9 6 5 5 5 7 7 7 8 7 8 9 12 16 19 22 25 27 32 41 46 47 45 44 43 42 41 41 40 40 39 39 36 33 32 32 33 35 37 39 38 38 39 39
20 19 20 19 21 20 17 13 10 8 6 6 6 5 3 3 3 4 5 6 8 7 6 6 7 10 14 17 20 23 30 36 41 45 46 45 45 45 44 44 43 40 37 36 36 37 39 40 40 39 38 38 39 39
23 23 21 20 17 16 13 11 9 9 9 8 8 7 7 7 8 7 6 6 7 8 8 7 5 6 8 12 14 16 19 23 27 31 35 39 42 43 44 43 42 40 40 39 39 39 39 39 38 37 37 37 38 38
22 20 16 15 15 15 14 14 13 13 12 12 13 14 14 14 14 14 14 14 14 14 13 13 14 16 16 14 13 12 13 15 18 21 24 26 28 30 31 32 34 34 35 35 35 35 35 35 35 36 37 38 40 41
18 18 17 17 16 16 15 15 16 18 19 21 22 23 23 24 23 24 24 24 23 24 25 26 26 24 23 25 25 23 22 20 18 18 18 20 22 24 24 25 27 28 30 31 32 33 34 35 36 38 39 41 43 45
21 19 18 18 18 18 20 21 22 23 25 26 28 29 29 30 31 32 33 35 36 37 37 36 35 35 35 34 32 32 33 31 30 27 25 24 24 25 26 26 26 27 29 31 32 33 34 36 39 41 43 44 44 44
20 20 20 20 20 20 20 22 22 22 24 26 28 29 32 34 36 39 41 45 46 47 47 45 45 46 44 43 41 39 37 38 37 36 35 33 32 30 29 29 30 32 32 33 35 37 39 39 40 41 41 42 44 44
17 19 20 22 24 25 26 26 27 29 30 33 36 39 42 45 45 44 47 50 52 52 54 56 55 53 52 51 49 48 44 41 40 41 40 39 38 38 38 32 31 33 35 36 37 38 38 38 39 40 41 42 44 47
23 25 26 28 29 31 33 35 36 36 37 39 40 42 46 49 52 55 56 58 60 61 61 62 63 63 64 63 63 61 58 54 50 47 43 41 41 38 40 37 33 33 33 34 34 35 36 37 38 39 41 47 50 51

GFSWCAN_500_spd_072.txt.gz
Wind_Speed
55 55 60 60 62 61 60 44 42 43 41 41 44 49 50 53 48 51 57 59 65 68 64 69 77 67 53 35 29 27 27 25 30 31 33 39 33 29 26 21 19 17 21 16 19 18 18 17 16 15 17 17 19 15
60 63 61 62 64 59 48 43 43 41 42 44 44 49 50 46 48 54 56 59 65 71 70 71 75 66 56 31 25 26 26 25 28 29 32 35 40 31 27 27 24 18 19 21 18 16 16 17 16 17 17 18 17 18
62 62 62 60 59 49 46 46 46 44 44 44 45 46 44 44 49 55 56 62 68 74 74 64 75 70 51 26 25 23 27 28 27 27 33 31 31 34 30 26 27 22 21 19 21 21 20 19 16 16 16 17 19 19
61 58 62 61 44 41 46 46 43 42 42 41 44 44 40 42 47 52 58 66 74 81 77 75 72 58 35 29 25 23 33 32 31 39 33 32 31 30 33 31 29 28 25 21 20 22 22 22 23 22 22 20 19 19
63 64 63 48 44 46 47 47 47 48 47 45 44 36 37 44 50 55 65 70 78 82 88 73 62 34 23 20 20 19 24 32 31 39 41 43 37 31 31 31 27 26 26 25 22 22 22 24 23 23 23 24 25 24
67 61 48 45 47 46 46 50 50 43 41 43 35 34 40 46 52 59 65 73 80 87 79 54 31 18 7 10 15 17 18 26 30 39 40 43 36 36 33 33 25 27 28 26 23 22 20 21 23 23 23 23 23 25
59 48 45 44 47 46 48 43 40 37 38 34 35 37 42 49 56 64 72 77 85 86 59 31 16 11 9 13 15 17 16 21 30 37 47 42 37 41 37 27 28 31 31 28 25 23 22 20 19 17 16 15 16 19
51 46 45 49 46 44 42 40 40 40 37 31 37 40 43 50 60 69 75 79 86 65 38 13 12 12 9 14 17 23 17 15 28 36 44 43 45 45 38 26 27 37 35 31 28 26 25 23 20 19 17 16 17 18
43 45 51 49 44 42 43 44 40 37 29 34 38 43 48 57 65 70 75 82 67 34 12 9 11 11 10 10 14 19 26 19 18 34 44 47 50 46 36 29 26 32 35 35 31 30 28 27 25 23 22 21 20 22
43 45 45 44 40 43 42 38 35 29 30 35 42 49 54 60 67 72 79 67 29 7 8 10 6 6 5 7 12 16 16 22 13 21 35 42 46 43 35 26 25 27 32 34 33 31 29 30 29 28 27 27 28 29
44 44 38 38 40 41 37 31 26 30 34 39 43 50 57 62 69 75 67 33 12 6 8 5 5 5 4 4 7 10 11 18 15 6 20 23 16 26 24 26 24 25 26 28 28 31 29 27 29 31 31 33 34 33
35 33 35 37 36 32 25 23 28 34 39 43 48 55 61 68 71 70 26 12 11 9 11 6 7 4 3 6 3 2 8 4 4 10 13 12 10 13 14 13 19 24 24 22 23 26 29 31 33 33 34 33 33 33
34 35 38 37 28 21 24 26 33 38 43 47 54 61 65 71 66 34 15 14 10 18 16 10 6 8 6 5 3 2 3 5 3 2 3 8 11 10 11 13 15 16 19 23 26 28 30 32 35 34 33 32 32 31
36 36 36 28 23 23 26 30 37 42 47 50 57 64 68 59 34 15 16 12 13 21 19 15 8 9 9 9 8 7 5 5 4 7 5 6 8 10 9 8 9 11 16 19 21 22 21 17 14 14 15 17 16 16
33 33 31 25 23 26 30 36 42 46 52 56 62 61 56 31 14 13 13 11 16 19 23 17 13 11 12 12 13 11 8 6 5 7 7 5 7 8 7 12 7 6 7 8 7 7 8 7 7 8 9 10 11 11
33 33 25 28 28 30 36 42 46 49 52 58 55 40 14 12 12 13 12 14 17 18 27 20 17 16 15 17 15 14 11 7 7 8 8 8 11 11 8 6 4 4 4 5 8 9 11 12 13 13 15 13 10 11
36 28 30 29 30 35 41 44 47 49 55 45 17 15 13 12 14 13 13 16 14 15 29 26 23 21 20 16 15 15 15 13 11 12 12 12 11 9 7 6 3 2 4 7 9 11 11 9 6 6 9 10 10 11
24 25 29 35 38 40 44 46 47 50 45 19 15 15 14 14 16 16 20 20 15 14 23 31 28 24 23 20 17 17 18 19 16 18 15 15 13 12 10 6 3 4 7 10 13 17 20 21 21 19 18 18 17 16
29 32 36 39 40 42 46 44 48 42 17 16 18 22 19 19 19 22 23 18 14 14 15 27 34 28 24 23 22 20 16 16 21 22 19 19 19 16 13 10 9 10 13 16 19 19 21 25 28 28 27 25 23 21
37 38 38 39 42 45 43 45 29 19 19 21 23 25 22 24 24 24 21 18 16 14 14 17 22 34 32 28 26 25 22 20 19 24 23 23 23 22 21 19 18 18 18 19 21 20 19 18 20 23 25 26 25 24
36 37 39 42 43 43 35 25 23 22 24 23 26 27 26 27 25 22 21 19 18 17 17 18 21 24 33 37 33 30 29 28 25 24 25 27 27 28 28 27 26 25 24 22 22 22 19 16 14 12 12 14 15 16
40 40 39 40 32 23 22 24 28 29 28 29 30 27 25 25 24 22 22 21 24 24 25 25 23 22 28 32 38 38 35 33 33 31 29 29 30 30 29 29 29 28 28 26 25 24 22 21 20 18 16 15 16 16
42 39 29 22 20 20 23 25 26 26 26 26 28 25 21 18 17 18 19 21 24 26 26 27 28 27 29 33 34 40 40 40 37 37 36 34 33 33 32 33 32 31 30 29 29 29 27 25 25 24 23 23 23 23
22 22 23 23 24 25 24 23 24 24 24 23 18 14 13 13 13 12 11 12 16 20 23 24 24 25 28 30 31 31 36 45 44 43 40 40 39 37 35 36 35 35 34 33 33 32 32 31 28 28 28 28 28 30
26 27 28 26 26 26 26 24 22 21 20 16 14 13 11 10 9 8 8 10 12 12 13 14 15 17 18 20 23 26 29 32 40 48 46 45 44 43 43 41 40 40 39 38 37 37 37 35 33 32 33 34 33 35
27 27 26 24 22 23 22 21 20 19 16 12 11 9 8 8 7 7 8 9 9 8 8 8 7 6 7 9 12 15 18 20 22 26 34 44 48 48 46 44 44 44 43 42 41 41 41 39 36 35 35 36 37 38
23 22 21 21 21 21 20 20 19 15 13 14 12 11 10 9 9 9 9 8 7 8 7 7 7 7 5 5 6 9 12 14 16 17 19 22 26 32 38 41 42 43 42 43 43 43 41 39 38 37 37 38 38 38
21 18 19 21 21 23 23 20 16 14 14 14 14 14 13 13 13 14 16 16 16 15 16 16 16 15 15 15 14 14 15 15 15 13 12 14 17 20 21 24 26 28 30 31 32 33 34 34 34 35 36 36 37 37
20 20 20 19 17 16 14 14 15 16 17 18 19 20 20 21 22 23 24 25 26 26 25 26 27 25 23 23 23 22 21 21 21 21 22 22 23 21 17 18 19 21 23 24 25 27 29 30 31 33 34 36 37 38
21 19 16 16 15 15 16 18 19 20 21 21 22 23 24 25 27 29 30 30 31 32 33 34 34 34 34 34 33 34 33 31 31 32 31 31 31 30 29 26 24 22 23 24 26 28 29 31 32 33 35 37 39 41
20 19 18 18 17 18 18 19 20 21 22 22 23 25 27 27 31 36 38 39 41 42 42 43 45 46 46 46 46 45 44 45 44 44 43 41 38 37 36 35 33 32 30 28 28 30 32 34 36 38 39 41 42 43
18 17 16 16 17 18 19 20 21 23 24 26 29 33 37 39 41 42 45 46 47 48 50 51 53 55 57 59 59 57 53 50 51 52 52 50 47 44 41 39 38 36 36 36 33 32 33 35 37 39 40 41 42 44
14 16 17 18 19 21 23 26 28 30 33 35 36 40 42 45 46 47 48 53 58 61 63 64 63 62 63 64 65 65 66 65 62 60 58 55 53 50 46 42 39 37 37 39 39 36 37 38 39 38 38 40 41 42

GFSWCAN_500_spd_075.txt.gz
Wind_Speed
48 49 46 47 47 46 47 48 52 54 53 48 42 39 37 39 44 49 51 53 58 55 55 63 73 76 79 66 45 26 16 18 26 25 28 31 29 36 32 27 23 22 20 18 21 19 14 21 18 20 20 18 19 19
52 52 51 50 49 49 50 53 56 56 54 45 44 40 37 42 48 48 52 53 58 60 59 65 72 79 76 68 34 15 14 18 25 30 34 35 39 30 36 31 28 24 22 19 22 19 19 20 20 19 19 19 19 17
48 47 50 51 51 51 50 53 59 56 43 43 40 38 41 44 45 45 49 55 60 62 62 63 75 79 77 54 25 16 18 21 24 32 32 31 34 34 29 34 29 29 27 23 21 21 20 19 18 20 20 20 20 21
49 50 53 54 56 53 52 56 57 46 42 39 41 38 40 43 42 47 48 54 58 64 68 68 78 79 58 34 20 18 17 22 25 30 34 30 37 39 35 29 36 31 29 25 22 23 25 25 24 22 20 20 20 20
49 52 56 59 56 60 59 59 56 43 41 41 39 38 41 41 41 45 49 52 59 65 71 73 82 65 35 14 11 14 15 20 25 33 35 32 35 36 32 30 34 32 26 28 26 27 23 25 25 25 25 25 23 22
54 56 60 57 58 60 62 61 48 42 40 38 35 38 40 38 37 42 47 52 59 66 72 77 76 42 15 9 12 16 19 20 19 25 34 32 33 41 46 34 23 26 30 30 30 29 26 23 23 24 25 24 24 24
58 60 60 54 58 61 61 51 44 39 35 34 35 39 39 36 31 36 46 53 59 67 73 73 50 24 14 11 14 17 22 23 21 24 33 38 46 38 39 37 27 26 27 29 28 28 26 25 23 22 22 23 24 24
55 58 59 61 59 61 52 42 39 34 36 33 36 37 36 25 29 35 44 53 61 67 72 60 29 13 10 12 15 16 17 22 17 21 31 39 50 54 50 39 33 29 30 31 29 28 27 26 24 23 22 22 21 20
59 60 64 64 62 50 40 35 29 35 30 32 34 34 24 28 34 42 46 54 62 68 59 35 14 11 9 13 12 13 16 22 22 19 25 36 44 48 42 42 33 26 25 27 31 31 29 27 26 26 25 24 23 21
65 66 66 65 52 34 31 30 32 27 30 33 32 21 23 29 35 45 51 56 63 62 32 12 9 9 9 9 8 12 15 17 24 21 12 31 44 43 34 38 34 34 28 25 28 30 32 30 28 29 29 28 27 26
66 65 60 54 32 24 28 30 28 28 32 31 21 23 28 33 39 49 55 57 64 54 21 14 11 11 10 8 9 11 15 16 23 20 7 8 30 43 41 39 35 28 24 25 27 28 29 30 31 30 31 32 31 31
63 59 54 38 28 28 28 26 28 31 27 21 20 24 31 36 44 49 54 62 60 26 18 18 16 12 10 8 7 7 7 14 13 8 13 13 6 23 43 29 19 22 25 24 25 22 22 25 28 30 29 30 32 33
54 37 29 31 28 27 24 27 31 30 22 18 24 28 35 40 46 50 60 58 39 23 19 18 14 15 10 7 2 5 6 6 4 7 5 3 5 9 14 16 17 15 15 20 24 22 19 19 21 25 29 32 34 36
30 29 27 27 25 25 30 33 32 24 20 22 27 33 37 45 50 56 60 38 22 22 19 20 18 18 14 10 8 8 7 6 7 4 3 2 2 6 8 8 9 11 13 16 17 19 21 22 25 26 28 25 23 23
27 26 25 24 29 31 33 28 23 21 21 26 30 38 42 47 53 51 37 18 15 15 11 23 20 17 17 15 12 11 10 9 6 5 7 7 4 5 7 7 5 6 6 6 9 12 15 17 17 17 17 17 17 17
23 25 26 30 34 34 31 24 24 22 24 29 35 42 45 47 46 30 17 11 11 11 17 19 25 21 18 16 15 13 11 9 6 8 6 5 6 7 9 13 11 8 6 6 7 8 9 11 12 13 14 16 17 17
25 26 33 33 34 33 30 28 25 24 27 31 40 42 40 44 28 17 12 12 12 15 18 17 27 26 24 19 18 20 18 15 11 8 9 10 10 12 9 8 7 4 3 2 4 6 9 10 11 13 17 16 11 9
29 35 34 35 35 33 29 26 26 26 30 35 40 41 34 25 19 16 14 15 17 18 17 18 25 33 28 25 24 22 20 19 16 16 13 13 14 14 12 12 10 7 4 3 4 7 11 16 20 23 22 20 19 20
33 36 38 38 32 30 28 28 30 33 35 37 38 34 31 25 24 20 17 17 19 20 20 19 20 27 33 30 28 26 24 22 19 19 20 18 18 16 15 15 12 10 7 7 10 12 15 16 17 20 25 28 30 29
35 34 30 29 30 30 29 30 34 40 39 35 30 29 26 23 26 25 21 19 20 22 22 19 18 21 25 37 33 30 27 26 22 20 23 22 24 21 21 21 20 18 17 17 17 18 18 18 18 17 17 18 22 25
27 27 31 32 35 35 36 37 39 40 39 32 27 29 24 23 26 28 26 22 22 23 24 22 21 19 20 26 37 38 31 29 29 26 23 26 30 28 27 28 28 27 27 26 24 22 21 21 20 19 18 17 14 14
32 34 37 37 40 39 43 42 41 35 31 27 29 26 23 23 26 28 26 25 26 27 26 25 26 25 24 23 26 32 40 40 35 33 33 30 29 31 32 33 33 32 32 31 28 27 26 24 23 22 21 21 21 19
36 39 40 41 41 42 42 38 34 29 27 25 23 23 23 24 26 25 25 23 24 24 25 27 27 29 31 30 29 31 33 37 43 43 39 37 37 36 34 34 34 35 35 33 31 31 30 29 28 26 25 25 25 25
42 41 42 44 44 42 37 28 25 24 22 19 18 19 19 21 22 21 19 17 17 16 17 18 21 25 29 32 32 33 34 35 37 38 45 46 42 40 40 40 38 37 36 36 34 33 32 32 33 32 30 29 28 28
40 43 43 43 40 32 23 22 20 18 17 19 19 18 19 19 18 18 18 15 14 14 15 16 17 17 18 20 23 26 29 29 31 33 33 36 44 49 46 44 43 42 40 40 39 38 38 37 37 37 36 35 34 34
43 38 35 30 24 21 20 21 21 21 20 18 18 19 19 17 16 15 13 13 13 14 14 13 12 10 10 10 11 14 16 17 19 22 25 27 30 34 39 46 50 47 45 43 42 41 41 41 41 41 41 39 39 38
28 25 22 24 23 23 22 22 21 19 19 21 21 18 16 17 16 15 14 13 12 11 11 10 9 9 9 9 10 9 9 9 9 10 13 16 19 20 22 25 29 34 40 45 47 47 46 45 44 43 42 41 40 38
25 26 24 22 22 21 20 20 19 21 23 20 18 17 18 18 17 17 16 15 15 16 17 19 19 19 17 16 16 16 15 15 15 15 15 15 13 13 14 17 19 20 22 25 27 29 30 32 32 33 34 35 36 36
21 19 17 16 18 19 21 21 20 21 21 20 20 21 20 21 21 21 21 22 23 24 24 25 26 27 27 29 28 27 25 23 22 24 25 25 25 22 19 20 22 21 19 19 19 21 23 25 27 28 30 32 34 35
17 15 16 20 22 22 23 23 21 21 20 19 19 20 22 23 25 27 27 28 30 31 31 31 32 33 34 35 34 35 37 37 37 35 34 33 33 34 33 31 29 29 28 28 27 26 26 27 28 29 31 33 35 36
19 19 20 20 18 17 16 16 16 16 17 19 20 21 24 26 29 31 32 34 35 37 39 41 44 45 46 47 48 48 49 50 48 47 47 46 45 45 44 43 42 40 39 38 36 35 34 34 34 34 35 36 38 40
19 19 17 17 17 17 16 16 17 17 19 20 24 26 28 31 33 36 40 42 45 48 50 53 55 57 59 60 61 61 61 62 63 63 60 58 57 55 54 53 50 47 44 43 41 40 39 39 38 38 37 37 40 42
17 16 16 16 16 16 17 17 18 19 22 24 27 31 35 39 40 43 45 48 52 56 60 63 65 67 69 70 70 72 72 72 72 72 71 69 66 64 62 60 57 53 50 46 45 44 42 41 39 40 38 39 40 41

GFSWCAN_500_spd_078.txt.gz
Wind_Speed
58 54 50 46 40 42 43 40 39 39 42 43 45 43 44 41 40 37 37 39 41 42 46 54 58 61 68 74 76 60 38 23 14 12 17 21 22 28 24 32 27 27 27 24 20 20 14 18 21 24 24 23 21 20
63 55 49 50 45 44 44 42 44 45 45 44 45 41 42 39 38 35 37 38 40 42 43 51 56 62 68 75 75 50 30 18 12 13 21 22 28 29 26 31 30 28 26 25 22 16 18 18 17 21 20 20 19 19
57 54 52 47 47 43 44 43 43 45 47 48 47 42 43 38 35 35 36 37 43 46 41 47 57 62 69 74 67 40 23 14 14 13 22 29 21 32 31 23 32 31 28 26 24 20 19 18 17 20 21 19 19 20
59 55 48 50 46 44 49 48 47 48 48 50 51 50 41 37 35 35 33 37 41 45 45 51 60 62 69 65 51 26 17 17 17 18 21 31 34 33 33 35 32 34 35 30 26 21 23 23 21 19 19 20 20 20
57 52 44 43 47 51 54 51 48 50 50 51 54 46 35 34 34 33 30 34 39 41 47 52 60 65 68 58 35 18 18 21 22 21 21 27 32 38 32 32 25 28 32 31 26 30 25 25 23 23 24 24 22 20
52 48 46 52 57 56 53 50 50 50 49 49 49 40 33 33 33 28 24 30 37 44 48 53 59 66 65 46 21 14 20 23 25 26 21 24 29 37 37 38 31 28 28 39 34 32 27 25 23 22 23 25 26 26
46 50 50 50 49 47 49 52 51 51 49 50 43 31 31 32 29 23 23 28 35 41 49 54 59 67 55 24 14 17 18 20 26 27 24 20 26 33 37 33 39 27 23 29 33 31 28 29 25 22 21 22 25 27
53 53 46 44 51 48 52 50 53 56 54 48 32 27 30 29 24 20 21 28 36 43 49 56 60 59 35 21 13 15 17 20 23 30 30 21 26 34 28 25 30 31 29 23 27 31 29 28 26 24 23 22 22 24
56 46 47 50 54 56 53 55 53 54 51 33 27 27 26 23 18 19 23 29 37 43 47 54 59 46 31 18 12 13 14 19 23 30 27 20 24 28 24 33 33 31 30 25 25 22 23 24 24 25 24 23 23 22
57 54 51 52 57 57 59 58 55 50 25 24 28 26 23 17 18 19 23 30 33 41 50 55 56 39 21 15 13 13 13 15 20 24 29 25 12 25 28 41 31 30 27 25 23 20 22 27 29 27 25 24 24 24
61 59 60 58 60 60 60 60 59 24 25 27 27 23 18 15 16 20 27 32 34 43 52 53 47 27 16 13 13 11 12 10 10 21 22 22 22 4 19 26 40 34 28 27 26 25 25 22 24 29 29 26 25 27
61 60 61 61 63 61 59 55 27 28 28 28 25 19 14 15 19 25 29 32 40 46 50 47 33 22 17 16 12 8 6 8 10 19 12 18 11 13 16 23 30 30 29 24 29 29 24 22 19 21 25 30 29 26
60 62 64 67 63 59 52 35 30 29 28 26 20 18 17 19 22 26 30 39 43 48 48 37 24 16 17 16 10 6 6 8 10 13 11 11 8 6 2 29 29 26 21 20 23 26 26 19 17 20 22 25 27 28
62 63 63 59 55 42 34 32 31 30 25 23 22 18 17 18 22 26 34 40 46 44 38 25 19 18 18 17 14 11 8 7 9 10 10 10 6 3 3 6 18 18 17 16 17 16 17 20 21 20 20 21 24 26
43 41 49 45 40 35 33 34 32 27 25 26 21 17 17 21 24 29 35 42 43 35 24 16 15 21 20 17 16 14 12 9 9 8 8 10 8 5 5 6 8 10 10 10 9 10 12 14 17 19 19 19 20 21
49 46 41 35 34 34 35 33 26 24 27 23 16 20 22 23 27 33 37 40 32 22 19 16 17 17 24 21 17 18 16 14 12 8 7 6 8 7 5 6 8 7 6 6 6 5 3 4 6 9 12 15 16 17
40 38 37 36 35 33 31 26 26 30 30 19 20 22 22 26 30 34 38 36 23 17 20 19 18 18 22 25 22 20 21 18 16 13 10 7 7 11 11 13 11 10 6 7 5 4 5 7 9 11 13 15 18 22
39 38 36 32 29 26 28 30 31 32 27 21 23 26 28 30 34 36 37 30 19 22 20 18 19 17 17 24 27 26 24 21 20 20 17 15 11 9 12 11 9 12 10 8 7 5 4 6 10 14 16 20 23 24
32 29 27 26 28 30 30 33 35 33 25 20 24 30 32 34 38 36 33 27 25 22 20 21 21 19 19 20 26 31 28 26 25 23 22 20 21 18 15 18 18 18 15 12 11 8 8 10 13 14 16 17 18 20
25 25 27 30 32 33 34 34 31 29 22 22 25 31 34 39 39 34 31 27 28 23 20 22 22 24 24 21 23 26 33 30 28 27 26 24 23 25 22 20 23 22 21 19 17 16 16 18 18 17 17 18 18 18
28 28 29 32 35 36 36 33 28 22 22 26 33 36 40 41 37 32 29 27 27 23 26 24 22 25 26 22 20 22 24 31 36 32 30 28 27 26 29 28 26 28 29 28 27 26 26 25 25 23 21 20 20 20
30 31 31 33 32 30 28 25 24 25 28 34 39 40 39 38 33 30 30 27 26 27 25 22 23 26 28 27 24 24 25 25 27 35 40 35 33 33 31 30 33 33 33 35 34 34 33 31 30 28 27 25 24 23
27 27 28 28 29 26 25 24 26 32 36 40 42 40 40 35 31 30 29 26 25 24 23 24 24 24 24 24 27 27 27 28 30 31 33 37 44 42 38 37 35 36 37 38 38 38 38 36 35 33 31 30 29 28
27 28 28 28 27 26 25 29 35 41 44 43 39 37 32 26 25 25 22 21 22 24 21 18 18 18 18 20 22 25 28 30 32 34 35 36 37 40 44 47 44 42 41 40 39 39 38 37 37 35 34 33 32 31
29 30 32 30 29 32 34 37 39 39 35 32 30 26 23 21 22 19 18 18 19 18 17 17 16 17 17 19 20 20 22 24 25 27 30 33 35 38 38 39 42 47 48 46 45 44 43 42 41 41 40 41 41 40
32 34 34 35 36 38 40 37 33 28 26 26 24 22 21 19 18 20 19 17 16 14 14 15 15 15 15 15 16 16 15 16 16 18 20 22 24 27 29 32 34 35 39 43 47 49 49 48 47 45 44 43 42 42
35 35 36 38 39 39 35 28 25 24 24 23 21 22 20 21 22 18 15 14 14 14 15 16 15 15 14 12 11 12 12 12 11 11 10 11 12 14 17 20 21 23 25 27 29 32 35 38 41 43 45 47 46 45
35 36 37 36 32 29 24 23 23 23 23 22 23 22 24 23 18 17 17 16 17 17 18 19 19 19 19 19 20 21 22 21 21 21 20 20 19 18 17 16 13 12 13 15 18 20 22 23 24 26 27 29 30 31
33 31 29 25 24 23 23 24 24 25 22 21 24 26 22 19 18 19 20 20 22 23 25 26 27 27 28 28 28 27 27 28 29 29 30 29 31 32 27 26 25 24 23 22 20 19 19 20 21 22 24 25 27 28
23 23 24 24 23 24 24 24 24 22 22 26 27 24 21 22 22 24 25 27 28 28 30 31 31 33 34 35 36 38 40 41 41 40 39 39 40 40 40 40 39 36 34 31 30 28 27 27 27 29 30 32 33 34
25 25 23 23 20 19 19 20 21 22 25 25 23 21 21 21 22 24 26 27 29 31 33 35 38 40 43 46 48 51 54 56 57 57 56 55 53 53 52 51 50 48 46 44 41 38 36 35 35 36 35 34 35 36
18 20 20 23 27 27 25 25 22 18 15 14 16 18 20 22 25 27 30 33 36 39 42 45 48 51 54 58 63 67 68 69 70 70 68 67 66 65 64 63 62 60 57 54 51 47 44 43 41 39 39 39 39 39
15 19 18 16 14 13 13 13 15 16 16 18 19 22 25 28 31 34 36 39 42 45 48 52 58 64 65 64 61 59 57 57 57 59 62 65 69 71 73 73 70 67 64 61 58 55 51 48 46 44 42 41 42 43

GFSWCAN_500_spd_081.txt.gz
Wind_Speed
60 61 56 51 52 50 48 39 35 34 37 36 35 35 37 39 32 32 35 31 32 34 36 40 45 46 50 56 63 67 66 46 31 21 11 6 19 33 24 22 24 22 25 23 23 24 22 17 25 24 23 22 23 21
58 56 51 49 45 47 47 44 42 36 34 37 37 39 41 40 37 37 37 32 30 29 37 42 45 45 49 55 60 66 55 33 23 19 11 8 14 17 24 26 14 25 25 22 21 20 19 17 19 18 17 17 18 19
56 53 50 49 45 44 40 37 39 42 39 37 38 39 40 38 39 40 36 35 29 23 31 38 41 42 49 54 59 63 44 26 22 20 16 11 22 23 19 27 24 14 23 27 23 21 20 19 17 18 15 16 16 15
56 55 57 52 47 49 49 45 39 39 42 43 43 43 43 41 40 30 35 37 32 29 26 34 37 43 49 52 59 57 39 22 21 23 21 14 18 28 24 28 28 22 20 28 26 21 22 21 20 18 15 16 16 16
56 57 49 40 48 54 56 47 38 41 42 40 44 46 45 44 35 32 31 32 29 30 31 33 38 43 47 52 58 50 36 20 21 23 25 24 18 26 35 33 27 33 26 25 25 30 28 25 23 21 20 18 17 17
55 55 51 52 47 50 48 48 47 41 40 42 46 49 48 42 34 34 29 29 29 27 28 32 38 42 48 54 57 41 26 19 22 24 27 30 31 23 27 35 34 31 32 30 22 34 28 26 26 25 23 23 22 22
50 51 53 54 51 50 51 45 44 38 39 46 44 46 49 37 35 30 31 26 26 26 28 34 38 42 48 53 51 29 17 17 21 23 29 33 30 27 22 28 33 36 31 30 27 26 30 31 25 25 24 23 23 23
49 47 54 53 52 52 51 44 41 42 44 46 47 48 42 33 32 27 24 23 22 23 27 34 37 45 49 53 38 20 13 14 21 24 27 30 33 28 18 24 30 34 35 26 21 20 24 28 26 24 25 26 24 23
50 51 56 56 53 54 53 52 48 49 46 50 49 48 36 31 31 24 21 19 18 22 28 31 40 47 49 46 30 15 12 13 17 20 27 28 31 23 7 22 31 33 30 32 20 15 13 16 20 20 22 23 23 23
49 51 51 55 58 52 43 40 44 45 46 49 53 37 34 30 28 24 18 16 18 24 27 34 40 43 48 39 19 13 12 13 15 17 20 25 30 26 7 21 17 23 27 24 21 23 13 12 14 19 22 22 20 21
49 50 48 57 57 54 40 41 44 44 47 50 47 32 34 28 24 22 16 16 20 23 30 33 36 44 45 28 14 10 11 11 14 14 17 20 26 29 14 16 21 20 22 25 20 15 12 15 16 17 19 25 29 25
57 58 56 55 53 49 48 48 46 48 52 46 34 33 31 26 22 19 14 15 18 23 26 34 37 41 37 19 12 9 10 10 13 12 15 17 17 23 23 4 19 27 25 21 16 17 17 22 23 21 19 20 24 29
57 52 51 51 54 52 52 50 53 53 47 34 33 34 31 28 21 18 15 16 17 24 28 33 39 38 31 14 10 10 11 11 10 10 15 14 16 12 15 6 4 28 26 21 20 20 20 22 22 21 18 18 20 23
64 61 56 55 54 56 57 59 52 52 38 38 35 31 30 24 23 19 16 16 20 24 30 35 38 31 24 13 11 12 13 11 10 8 10 13 13 11 8 6 7 16 15 19 19 19 18 17 16 19 20 19 19 19
60 58 56 57 58 58 54 57 48 44 42 36 32 29 23 22 21 18 16 15 19 24 31 36 34 26 16 13 13 15 14 14 11 10 8 10 11 9 7 5 4 7 13 11 11 11 10 11 12 13 16 18 20 21
60 58 54 52 51 51 51 45 44 39 36 35 30 24 21 22 20 16 16 17 21 27 32 36 26 19 16 15 16 20 19 18 16 13 11 11 10 7 7 5 4 6 6 5 6 5 4 3 3 5 7 10 12 14
55 55 53 52 48 44 44 41 39 35 34 29 24 22 24 24 20 16 17 20 24 28 34 35 23 17 20 19 20 21 24 22 20 18 14 13 12 10 5 7 10 8 9 10 10 11 9 7 7 8 11 13 15 17
47 39 39 42 43 40 38 38 36 31 28 24 24 26 29 26 20 17 18 23 26 30 35 28 23 18 22 21 20 19 23 25 25 22 19 17 17 15 11 9 11 11 15 12 14 13 9 7 6 5 6 9 12 14
41 40 39 37 37 38 37 33 31 28 26 24 27 31 30 27 23 21 22 25 29 33 35 27 23 22 27 24 23 19 20 24 30 28 25 22 19 19 18 17 17 18 15 15 19 17 15 13 11 10 12 13 14 14
34 34 35 34 31 28 28 29 28 26 24 28 32 32 30 27 24 24 27 28 31 36 33 23 24 30 27 23 23 22 20 20 21 27 33 30 26 23 22 22 24 24 24 25 25 24 21 20 18 17 18 18 19 18
29 29 27 25 25 25 24 23 26 27 28 30 32 31 28 26 25 28 29 30 35 32 26 25 28 29 26 23 24 20 22 22 19 20 24 32 34 29 26 26 25 28 30 27 29 29 29 29 28 28 27 26 25 24
22 22 21 21 21 22 24 25 27 30 31 31 29 27 26 26 28 31 32 35 36 28 30 25 24 26 24 24 24 22 23 26 24 23 24 24 26 33 36 33 32 32 31 33 32 33 35 36 36 36 35 33 32 31
19 19 21 22 24 26 28 28 29 28 26 24 24 25 27 30 33 34 36 34 31 31 26 24 23 24 23 23 23 22 21 22 23 24 26 27 27 29 31 33 37 40 38 37 36 36 37 38 38 39 39 39 37 35
22 25 27 28 28 28 26 25 23 22 23 24 26 29 31 35 36 36 34 30 25 24 25 25 23 21 20 19 18 18 19 20 21 24 26 28 29 30 32 34 36 35 37 41 44 42 41 40 40 40 40 39 39 38
24 26 26 25 23 22 20 18 21 25 27 28 30 32 35 33 33 32 26 24 25 26 24 21 18 18 18 16 16 17 17 17 18 19 19 22 26 28 28 30 32 33 34 35 37 39 41 44 45 44 43 43 43 43
25 25 24 22 21 22 23 26 27 28 30 32 34 34 31 31 28 25 25 26 25 23 21 18 15 13 13 13 13 14 14 14 14 16 18 19 20 20 20 21 22 23 25 28 31 33 35 36 38 41 44 47 48 48
23 23 22 23 24 25 27 29 30 31 32 35 35 33 31 28 25 24 24 22 21 19 16 13 12 13 14 14 15 17 19 19 19 18 18 19 19 19 19 18 17 17 17 19 21 24 25 25 25 26 27 28 29 30
21 22 24 26 27 28 29 30 31 33 34 32 29 26 26 25 25 24 22 21 19 17 17 19 19 19 18 19 20 22 24 26 26 27 27 28 29 29 27 25 25 24 23 20 17 15 17 18 18 18 18 19 19 19
24 26 28 29 30 30 31 32 31 31 29 26 24 24 22 22 22 22 22 21 20 20 22 23 23 24 25 27 29 30 30 31 31 31 31 32 34 36 36 35 35 35 34 32 30 28 26 24 23 22 21 21 21 22
30 30 30 30 30 29 25 26 25 24 22 22 21 21 21 22 22 22 22 22 23 26 28 29 30 30 30 31 34 36 38 39 41 42 42 43 45 47 47 48 48 47 45 44 41 40 38 36 33 31 30 28 28 28
30 28 26 25 23 21 20 20 19 19 19 18 18 20 24 25 26 28 28 26 26 28 29 29 30 32 35 38 40 43 47 51 53 56 58 60 62 64 64 64 62 60 59 58 56 53 48 46 44 42 41 39 36 33
21 19 19 18 18 19 19 19 18 17 17 17 19 22 24 23 21 21 23 25 26 28 31 34 36 39 42 47 51 55 58 63 67 71 74 73 72 70 72 73 75 76 75 72 67 64 61 58 53 49 46 44 41 40
17 16 17 18 17 16 18 18 19 18 17 15 15 17 19 21 22 24 26 29 32 34 37 41 44 47 51 56 60 64 62 56 52 52 51 52 54 56 58 58 59 57 57 62 70 71 67 63 60 57 53 49 45 43

GFSWCAN_500_spd_084.txt.gz
Wind_Speed
73 69 71 63 51 57 54 51 48 40 44 33 28 30 28 26 27 27 29 28 31 36 37 37 33 31 34 38 44 50 54 58 55 34 26 20 10 26 20 14 15 16 16 19 25 27 24 20 21 25 27 26 25 26
72 66 66 58 43 54 51 50 47 45 41 41 32 25 26 28 27 27 28 30 35 36 37 37 32 31 32 37 42 48 53 57 48 27 24 19 12 12 28 27 18 17 20 20 20 24 23 19 21 23 25 24 23 23
72 67 65 62 59 51 51 42 40 39 36 37 38 34 30 29 29 29 30 31 35 38 38 37 31 30 31 36 42 45 50 55 43 26 21 19 15 12 17 28 30 24 16 22 22 20 21 20 20 19 18 18 17 17
71 64 64 61 54 43 48 45 40 37 35 33 33 29 30 32 33 31 31 34 34 37 38 32 31 28 31 35 40 43 48 52 38 23 21 21 18 13 17 28 22 28 23 16 19 20 21 21 19 16 15 17 17 17
69 64 58 60 51 49 44 42 35 33 34 33 32 33 32 32 31 24 27 29 35 35 33 31 29 29 32 34 38 42 48 49 33 22 21 21 25 26 22 24 31 30 28 24 23 22 26 24 21 18 16 18 17 17
66 61 60 61 56 45 47 39 39 37 36 34 37 38 35 35 30 24 32 31 33 32 30 26 24 27 30 34 38 42 47 45 31 21 22 23 31 34 32 22 29 41 36 35 26 25 23 26 23 22 19 17 18 19
64 56 54 55 53 46 49 39 36 34 34 35 37 43 42 38 27 32 27 33 32 32 26 23 24 26 31 34 36 42 46 40 29 20 22 24 32 35 35 27 30 34 42 37 36 30 23 26 27 26 22 20 19 19
66 57 52 53 54 49 46 39 34 32 32 35 35 35 42 32 25 33 31 33 34 31 24 22 26 27 31 34 39 42 41 33 20 21 21 23 29 33 35 24 20 28 36 38 33 32 27 23 24 28 27 22 21 20
58 55 51 51 45 48 50 48 41 33 38 40 41 37 37 30 31 32 27 32 30 28 23 25 26 27 28 34 37 40 37 23 20 17 20 23 27 33 34 21 16 21 27 35 33 30 29 20 19 22 26 26 22 21
51 52 49 51 54 47 43 44 40 38 37 38 37 45 40 39 38 31 29 30 28 22 21 25 23 26 27 33 35 37 33 19 15 17 17 22 24 26 28 15 5 12 18 26 29 26 18 11 11 14 19 22 21 21
51 48 50 51 47 48 49 48 45 41 40 41 44 47 43 36 30 28 29 28 25 21 22 22 23 22 30 31 34 34 29 17 11 14 15 18 19 22 25 15 3 7 15 20 26 23 16 13 9 11 13 14 19 23
48 47 50 50 48 46 49 49 46 42 41 43 42 41 37 36 32 30 28 27 24 20 20 21 21 26 28 29 31 31 25 16 13 13 13 14 15 20 18 18 3 10 14 17 19 19 16 10 11 15 18 20 19 19
47 52 51 50 50 54 51 51 48 47 49 47 43 37 38 31 31 28 28 25 23 22 20 20 21 25 27 28 30 28 23 15 14 13 14 13 14 16 16 13 10 9 19 19 12 13 13 17 19 19 21 21 19 19
45 44 48 44 54 50 45 53 53 53 48 46 43 41 34 34 30 28 28 27 25 20 18 21 23 23 26 28 29 25 20 18 14 13 13 12 12 13 13 11 8 4 19 17 19 18 16 18 19 19 19 19 23 21
47 48 47 49 51 51 50 47 46 48 49 50 48 36 32 28 30 30 28 25 20 15 19 22 23 25 25 29 25 24 21 18 14 14 13 13 12 10 9 8 5 4 10 14 16 17 15 16 16 15 15 15 16 19
50 57 59 56 55 52 49 49 46 48 50 46 41 35 30 29 30 27 25 20 17 18 21 22 25 24 28 30 28 22 19 18 19 17 17 16 14 11 9 7 7 5 8 9 10 10 9 7 6 5 6 7 8 10
53 54 58 58 55 51 49 49 52 49 45 41 33 31 29 29 27 25 22 19 19 20 21 20 22 27 30 31 28 25 24 20 20 21 19 18 18 16 12 9 7 11 12 12 14 13 13 13 11 10 9 10 11 12
54 52 53 51 50 52 55 50 41 37 38 31 28 28 28 27 26 24 22 21 22 23 21 22 25 29 31 33 31 25 22 21 19 20 23 23 20 19 17 16 13 11 17 18 20 17 16 16 13 9 7 6 6 7
37 42 50 55 52 45 43 40 37 33 30 29 29 29 28 27 27 24 23 23 25 26 26 25 28 31 34 36 32 25 23 23 19 19 19 25 26 24 21 19 19 19 19 17 14 17 19 20 18 16 15 13 12 12
45 43 42 42 42 40 36 32 30 28 29 28 27 27 26 24 24 24 25 26 28 28 26 29 34 36 36 34 30 24 26 26 23 21 19 20 22 27 29 26 24 23 24 25 26 27 25 25 25 24 23 21 19 19
43 41 38 33 31 28 28 27 27 28 29 28 25 25 24 23 23 24 27 29 29 27 32 35 36 38 35 31 26 26 28 27 24 22 19 18 18 19 23 30 32 29 28 27 28 30 31 30 30 31 31 31 30 29
36 33 30 29 28 28 28 28 29 28 27 25 22 20 19 21 24 27 29 29 28 31 32 34 38 37 34 27 25 24 27 27 25 24 21 22 23 22 21 21 24 32 35 34 33 33 32 32 35 35 36 36 36 37
30 30 29 28 26 26 27 27 27 23 20 19 19 20 23 25 26 27 28 28 30 32 34 36 36 32 27 25 24 24 24 26 26 26 23 21 20 21 21 22 24 26 29 32 36 41 41 39 38 37 38 39 39 38
27 27 27 27 26 24 23 21 19 18 18 19 23 25 25 26 27 28 28 31 32 33 35 33 29 24 22 23 24 23 23 23 21 20 19 19 19 20 20 20 22 25 29 32 34 35 37 39 44 46 43 41 40 39
26 24 24 22 19 15 14 16 18 20 23 25 26 26 25 27 29 31 30 32 33 34 30 26 23 22 22 22 21 21 21 20 20 21 21 20 20 19 20 20 21 24 24 25 28 31 33 34 35 37 39 42 43 44
19 18 18 16 15 15 15 17 20 23 25 25 26 28 29 30 30 31 33 33 30 26 24 22 20 20 20 19 18 18 16 16 17 18 18 17 17 17 17 17 18 20 20 20 21 21 23 24 25 27 29 31 33 34
17 16 15 16 17 19 21 22 23 24 25 26 27 29 30 30 32 31 29 26 24 22 19 19 18 17 16 16 16 17 17 18 20 21 21 22 23 24 23 23 25 26 25 24 22 21 21 21 22 22 22 22 22 22
17 16 17 19 21 21 22 23 23 25 26 27 29 30 30 30 27 27 26 24 21 19 19 20 20 20 20 21 22 23 24 24 25 26 28 29 30 30 31 31 31 31 31 32 31 30 28 26 25 22 20 20 20 19
17 19 20 20 21 22 23 24 26 28 29 29 29 28 26 24 24 24 22 20 19 19 20 21 22 24 26 28 29 30 31 32 33 33 33 33 34 36 37 38 40 40 40 41 40 39 38 36 35 34 31 29 26 25
21 21 22 22 23 24 26 27 27 27 27 26 24 23 22 22 21 20 20 21 22 24 25 26 28 30 32 33 34 35 36 36 37 39 40 42 44 48 51 52 53 54 55 55 54 53 52 50 47 45 41 40 37 34
22 21 21 21 23 25 26 25 24 22 20 18 19 18 17 17 17 19 22 24 25 28 30 30 29 29 30 31 32 34 38 42 45 48 50 53 56 60 63 67 69 71 72 72 72 72 70 66 62 59 55 51 47 43
21 20 21 22 23 22 20 19 16 15 15 15 14 14 14 15 16 19 21 22 23 24 25 26 27 29 32 35 38 43 47 51 54 58 61 65 69 67 61 55 52 52 54 55 56 58 61 66 70 71 68 63 58 54
21 21 19 17 16 15 15 14 12 11 10 11 12 14 14 15 17 19 20 21 22 24 27 30 33 37 41 45 49 52 55 59 62 63 53 46 44 44 46 49 51 53 53 54 56 56 55 56 57 55 56 62 66 61

GFSWCAN_500_spd_087.txt.gz
Wind_Speed
75 74 77 75 71 56 48 46 44 47 38 37 27 28 21 23 22 19 18 19 19 24 27 28 30 31 29 30 31 36 40 47 49 51 45 31 22 10 15 15 14 17 24 16 20 22 28 24 22 23 25 25 23 24
75 76 82 77 68 61 50 43 47 33 34 33 28 27 26 16 16 19 19 18 20 25 28 28 31 30 27 28 31 35 40 44 48 48 41 26 20 14 11 23 15 15 20 21 20 19 22 22 22 22 24 25 26 25
82 79 79 72 71 61 50 50 46 43 35 34 36 26 25 28 29 24 20 19 21 23 26 27 27 27 27 27 30 33 39 42 45 48 39 23 18 17 15 15 23 28 23 24 26 26 22 20 22 23 25 24 23 23
79 75 80 73 67 59 50 44 45 46 39 35 34 31 27 23 22 23 19 15 16 19 23 24 27 29 28 26 28 33 38 40 43 47 38 27 19 17 20 19 16 28 35 33 29 28 27 23 22 22 19 18 19 19
77 77 78 67 65 53 47 45 40 39 37 34 31 28 26 25 25 26 23 18 18 20 23 26 29 27 25 25 28 33 37 38 41 44 42 31 23 21 23 24 27 28 33 37 35 28 30 27 24 20 18 18 18 19
79 70 75 72 66 53 51 49 43 41 36 30 32 32 31 28 25 26 20 17 22 22 26 30 29 26 24 26 28 32 35 36 39 42 41 31 26 25 28 32 37 40 27 34 38 27 25 29 26 21 19 18 17 18
84 81 78 69 64 57 52 42 45 42 35 32 29 31 31 27 26 27 20 16 21 26 26 29 26 23 25 25 29 32 34 35 38 40 39 32 28 28 33 40 44 41 24 30 35 32 30 29 25 25 21 20 18 17
79 75 73 70 65 58 49 47 41 40 41 36 33 30 27 23 22 22 18 16 23 24 25 27 25 24 24 27 28 30 32 34 36 39 38 30 28 30 35 39 43 32 17 25 35 35 33 28 23 23 24 24 21 19
72 75 71 68 67 59 55 52 45 39 35 34 30 28 24 24 23 17 19 22 26 25 24 26 25 23 24 25 25 29 31 34 35 38 33 29 27 28 33 35 30 24 11 15 27 32 34 33 25 23 21 24 27 26
73 63 64 64 63 59 49 49 44 39 31 32 28 30 30 27 25 25 22 19 22 24 25 26 25 23 24 24 26 25 30 33 35 35 29 26 23 25 30 29 24 17 8 8 21 31 28 21 23 20 20 22 25 25
68 63 60 61 63 60 57 48 45 44 39 34 31 28 31 32 30 27 20 19 24 23 25 26 27 25 23 24 25 26 28 31 34 31 27 23 20 22 25 24 24 14 9 7 14 23 25 20 19 15 12 11 14 18
62 59 56 56 58 54 51 50 45 42 40 38 38 34 30 31 30 23 18 22 24 23 26 27 26 24 23 23 24 25 29 31 34 32 27 20 20 20 22 20 17 15 8 7 12 19 22 23 13 11 17 18 17 20
60 56 52 50 50 45 45 43 40 38 39 38 38 37 35 32 29 23 20 25 25 25 26 25 25 25 22 22 25 25 28 31 33 32 27 22 21 20 21 18 16 15 9 10 10 16 18 19 15 22 25 24 24 24
55 50 47 45 48 46 43 44 45 41 37 35 36 39 37 31 26 25 25 26 25 25 25 25 25 23 21 23 23 26 28 31 33 31 25 21 20 20 19 17 14 13 5 17 14 11 14 15 16 22 23 22 24 24
51 48 44 44 44 43 45 44 41 42 40 38 37 36 35 33 27 26 29 27 25 25 25 25 24 23 22 23 23 26 30 33 33 29 25 23 22 21 20 17 14 10 9 8 15 17 17 17 18 19 24 25 24 22
56 52 48 42 44 45 44 49 48 42 41 41 40 36 36 35 30 32 29 24 22 23 22 24 24 23 23 24 25 28 31 34 32 30 26 23 25 23 22 19 16 13 11 12 12 14 18 21 14 12 14 15 15 14
58 57 53 49 47 43 45 46 49 49 48 46 42 42 37 31 33 30 24 22 22 22 24 24 21 24 26 29 29 30 33 36 35 33 28 24 25 25 22 22 20 13 12 13 14 15 14 15 14 15 15 15 14 13
58 55 54 47 45 44 43 43 44 48 44 43 41 35 32 33 29 24 22 22 22 25 27 22 21 25 30 31 32 33 36 38 38 35 28 25 24 26 27 22 22 20 16 17 18 16 17 19 18 19 20 16 12 9
54 55 54 50 47 46 46 46 45 45 44 41 36 35 35 30 27 23 22 23 26 28 24 21 25 30 32 33 33 35 36 38 40 36 30 29 26 25 26 29 27 23 21 20 19 21 25 23 24 24 23 21 19 17
56 51 50 49 49 48 48 49 48 46 40 36 35 33 30 27 25 23 24 26 28 25 21 26 31 32 32 34 33 37 40 40 43 40 32 28 28 28 27 26 30 30 27 25 24 24 24 25 24 22 23 25 27 26
41 44 47 49 53 54 53 45 39 36 35 35 33 31 28 26 24 24 26 27 24 22 26 29 31 32 34 35 35 37 38 42 42 36 32 29 28 28 26 24 24 25 30 32 31 30 29 29 29 30 29 28 30 30
51 50 49 44 40 38 37 36 35 35 35 32 30 28 26 24 24 25 25 23 22 26 27 29 31 33 36 37 37 37 41 43 42 36 32 30 29 30 31 30 27 24 23 23 27 33 35 35 35 34 34 33 34 35
45 43 41 39 38 38 35 33 34 33 31 29 27 25 25 25 25 24 23 22 24 26 27 30 33 35 37 38 39 40 41 40 37 33 32 32 31 32 32 30 28 26 23 22 23 25 28 30 34 38 41 43 41 39
39 39 38 37 36 34 33 34 33 32 29 27 26 26 27 25 23 22 20 22 25 27 30 32 35 37 39 40 40 39 36 33 31 30 30 30 29 29 28 27 26 23 20 19 18 19 22 26 31 35 38 40 41 41
34 35 33 31 31 29 30 30 31 30 29 29 28 25 21 19 20 21 23 25 27 30 33 36 39 39 40 40 37 33 31 29 29 27 26 24 23 25 25 24 23 21 20 19 19 19 21 23 25 27 29 32 34 37
33 31 31 30 30 30 30 29 28 27 26 24 20 19 19 21 22 23 25 29 31 34 35 37 38 38 37 33 30 27 28 28 25 22 21 20 20 20 19 19 21 21 20 22 22 22 23 23 23 22 21 22 23 24
32 30 29 29 28 29 27 27 24 21 19 19 19 21 22 24 25 27 30 32 35 36 37 36 36 34 30 27 26 26 25 24 22 21 21 22 22 23 24 24 26 27 30 31 31 30 29 29 28 27 27 25 23 22
30 29 29 28 27 26 23 22 21 21 21 23 24 25 26 26 28 31 32 34 35 36 36 35 32 28 27 27 27 27 28 27 26 27 27 27 29 30 32 34 35 36 35 36 36 37 36 36 35 34 33 33 31 28
31 29 27 25 24 23 23 23 23 24 24 25 25 26 28 30 31 32 34 34 35 35 32 29 28 27 28 30 33 34 33 33 33 31 32 35 38 40 41 42 43 44 45 45 46 47 47 47 47 46 45 42 40 38
26 25 24 23 23 23 22 22 22 23 24 25 27 29 30 31 32 32 33 32 31 29 28 28 28 29 30 32 35 36 37 37 37 38 38 39 41 43 45 47 50 52 53 55 57 60 61 61 61 61 60 59 56 52
25 24 23 21 21 21 21 22 23 24 26 27 28 28 28 28 30 30 29 28 27 27 26 26 26 27 28 29 31 31 31 33 36 39 42 46 49 51 54 57 60 63 66 69 71 72 73 72 71 71 71 71 70 68
23 21 21 21 20 20 21 22 23 23 24 24 25 25 27 27 26 26 24 22 21 20 21 23 24 25 26 28 31 34 37 41 45 48 51 54 56 60 63 68 71 67 58 50 50 51 52 53 54 54 53 52 51 52
23 22 22 22 21 21 22 22 22 22 22 22 22 23 23 22 20 20 21 20 19 19 20 22 26 29 32 36 39 43 46 49 53 57 60 63 65 61 50 46 47 49 53 56 57 56 55 55 55 55 55 54 53 51

GFSWCAN_500_spd_090.txt.gz
Wind_Speed
77 82 85 80 77 76 69 58 51 55 49 46 45 36 28 26 24 16 8 9 9 12 14 19 20 21 22 21 23 24 27 33 38 42 46 49 45 31 17 8 12 15 17 20 31 30 20 17 21 22 23 23 22 22
83 85 83 73 74 74 67 49 46 52 50 51 43 35 29 21 18 19 12 9 10 13 17 17 17 19 19 20 21 23 25 32 37 40 43 46 43 30 17 13 9 18 15 16 20 18 22 22 19 25 24 23 23 23
90 84 77 78 80 75 64 46 50 40 58 50 36 39 28 29 17 14 11 9 11 13 13 14 16 18 21 19 19 22 25 31 35 38 41 44 41 32 18 16 13 14 14 20 21 25 21 20 18 19 25 24 23 23
89 72 76 84 82 73 54 53 55 49 44 40 34 32 27 24 17 16 13 11 13 14 14 13 17 21 20 19 19 21 25 30 34 37 40 43 42 34 24 21 17 18 21 19 21 33 32 32 26 23 25 22 21 20
77 75 86 85 80 71 54 55 57 48 41 36 33 31 25 23 16 14 13 14 15 17 19 18 19 21 20 19 20 21 25 30 33 35 38 40 41 35 27 24 26 28 30 38 30 30 38 34 30 29 23 20 20 20
75 80 87 85 75 63 55 51 54 46 35 32 30 23 21 17 14 14 15 15 15 16 18 19 20 21 20 19 20 22 26 29 32 33 36 39 41 35 31 28 32 35 40 40 31 29 35 32 32 35 27 21 21 19
79 81 84 71 61 59 58 50 50 43 37 32 26 20 22 19 17 17 16 12 16 19 17 18 19 19 19 19 21 23 26 29 30 32 35 38 40 38 34 32 34 39 44 39 27 21 32 32 30 29 26 23 20 19
82 83 85 74 67 58 52 50 49 42 36 29 25 22 23 19 18 16 13 12 15 18 20 22 20 18 20 20 22 23 26 28 31 32 35 37 38 39 36 33 34 39 40 35 17 17 33 29 24 23 23 25 22 20
82 80 83 70 63 60 55 52 47 41 33 32 27 26 21 21 19 15 12 10 13 17 18 19 17 18 20 22 23 24 25 27 29 31 35 35 38 38 37 31 32 36 36 28 13 14 30 29 25 22 18 17 22 23
81 81 78 68 58 57 57 54 50 43 38 32 29 28 23 25 22 17 13 12 17 17 16 15 16 19 22 24 25 25 25 25 29 31 33 35 38 38 33 30 31 32 31 24 14 9 27 27 24 24 17 16 17 19
79 75 74 66 61 56 58 55 47 45 41 33 31 29 28 26 23 23 24 22 21 16 15 14 16 19 23 25 27 25 26 25 26 30 31 34 37 35 33 27 27 29 28 24 15 9 21 22 20 20 21 19 19 17
73 76 68 65 61 56 53 51 46 43 36 31 28 31 28 24 22 23 22 20 18 19 18 17 18 20 22 26 27 26 25 25 26 28 30 33 35 35 31 27 26 26 25 23 11 8 17 19 19 16 19 18 11 13
74 72 66 62 59 59 52 46 42 40 40 37 34 35 32 30 28 26 24 20 17 19 21 19 20 20 22 25 26 25 24 24 25 28 30 33 36 36 32 29 25 24 23 23 13 12 15 18 18 20 16 10 20 24
75 72 70 67 61 59 56 48 43 42 43 44 38 35 33 31 27 26 21 16 17 21 23 20 20 20 22 25 25 24 24 24 26 28 30 33 36 37 34 28 25 24 21 18 11 7 8 14 16 14 18 21 20 20
70 62 60 60 58 57 55 55 51 43 42 41 37 36 33 28 24 25 22 21 22 23 22 21 21 22 24 26 24 22 23 23 27 30 31 33 35 37 35 28 24 23 21 19 14 20 19 15 16 18 18 22 25 25
59 54 53 54 56 55 55 52 47 44 41 37 36 31 26 22 21 22 22 20 22 24 23 22 24 25 26 26 22 23 22 23 28 31 32 33 35 39 36 29 26 25 23 22 19 17 18 19 19 19 20 15 14 17
57 54 55 52 49 51 49 48 46 43 41 40 36 32 27 26 25 23 25 25 26 24 23 25 26 27 26 25 23 22 22 24 30 32 32 34 36 40 38 30 26 26 26 24 22 19 19 19 21 17 15 14 15 16
53 52 50 48 47 48 48 49 48 45 41 40 34 28 26 27 27 27 27 27 26 24 26 28 27 27 28 26 24 23 23 27 31 32 34 34 38 40 39 30 25 24 26 26 26 23 20 18 23 21 19 17 18 19
50 51 50 50 47 46 44 43 42 40 38 34 33 33 32 30 29 29 28 26 25 26 28 30 27 30 31 27 24 24 26 30 33 33 34 36 39 43 37 31 30 28 27 27 28 27 26 23 21 20 22 25 24 25
54 52 53 51 50 46 43 42 36 32 29 29 29 31 31 30 30 28 25 25 26 28 29 26 32 33 29 26 27 28 29 32 33 36 38 40 41 46 36 29 30 29 27 26 26 31 30 28 26 25 23 22 23 25
53 57 56 52 50 46 43 41 41 38 35 33 31 29 32 33 29 26 26 28 28 26 28 32 31 31 29 29 29 30 32 33 35 38 41 42 45 46 36 30 30 28 28 27 25 26 30 34 33 31 30 28 29 30
49 48 42 35 32 31 34 36 38 42 41 33 33 34 31 29 28 28 29 28 25 27 29 29 31 31 30 30 31 33 34 36 38 40 42 46 48 44 37 31 31 29 28 30 34 30 26 27 28 33 35 35 35 35
27 27 30 33 38 37 40 39 40 40 39 36 33 30 28 27 28 29 29 26 26 29 28 29 30 30 29 31 33 34 36 38 39 42 45 47 44 38 32 30 30 30 30 30 32 32 30 29 26 25 25 27 28 30
38 44 44 48 47 48 43 42 40 36 33 31 30 28 29 30 30 29 26 26 28 28 28 29 28 29 31 32 34 36 37 39 41 44 45 42 37 33 32 30 28 27 27 26 26 27 26 25 22 21 20 20 20 21
46 45 47 47 46 43 39 34 32 30 30 30 31 30 30 29 28 27 26 28 29 28 28 28 29 30 33 35 36 38 39 40 44 45 41 36 31 30 30 27 25 24 24 23 23 23 22 22 21 21 21 21 21 21
36 36 36 35 34 33 32 31 32 32 32 31 30 29 28 28 28 27 26 29 28 28 28 30 31 33 35 37 39 39 41 44 43 38 33 30 28 26 23 20 20 19 20 20 21 22 24 24 25 25 26 26 26 24
39 39 38 37 32 31 31 32 32 32 31 30 27 27 27 28 28 27 28 27 27 28 30 32 33 35 37 38 40 42 43 40 34 30 28 26 25 24 24 24 25 26 28 29 30 31 31 32 32 32 33 33 33 31
34 32 32 31 31 32 32 32 31 31 29 27 28 28 29 27 25 27 26 27 29 30 32 34 36 37 39 40 40 39 36 32 31 31 32 33 32 32 33 35 36 36 37 38 39 40 39 39 39 39 39 39 39 39
29 29 30 30 30 30 30 30 29 30 29 29 29 27 25 26 28 28 29 30 31 32 34 34 35 37 38 39 37 34 32 32 34 37 40 41 41 41 44 45 46 46 46 46 47 47 47 47 48 48 49 50 51 50
30 30 30 29 28 28 29 30 30 29 28 27 26 26 26 27 28 29 30 30 32 32 33 34 36 37 35 33 31 31 32 33 35 36 37 39 40 41 42 44 46 48 49 50 52 54 55 56 57 58 59 61 63 64
29 28 29 29 29 29 29 28 28 27 26 26 27 27 28 28 29 29 29 29 30 32 33 33 32 31 30 29 29 31 33 35 36 37 39 41 43 46 49 51 53 55 57 59 61 63 66 68 69 69 66 62 58 55
31 31 32 32 31 29 28 27 26 26 26 27 26 26 27 27 28 29 29 29 29 28 27 27 28 29 30 31 32 33 35 37 40 43 45 47 50 54 57 60 64 67 67 65 59 54 49 48 49 51 52 54 55 55
33 32 30 28 26 24 24 24 25 26 26 25 24 24 25 25 25 25 25 25 25 24 25 25 26 26 29 32 36 38 40 43 45 48 53 57 60 63 60 50 42 42 46 50 53 54 55 55 54 53 51 49 50 50

GFSWCAN_500_spd_093.txt.gz
Wind_Speed
27 64 57 55 62 75 72 69 64 65 64 50 47 48 45 36 26 27 26 23 20 14 8 3 6 10 11 11 13 14 16 19 23 27 32 36 39 41 39 28 17 10 9 12 16 18 21 24 15 17 18 19 20 22
29 43 59 53 64 74 71 68 65 64 62 49 53 51 44 38 32 24 21 23 18 13 8 2 4 9 8 13 13 13 16 19 23 27 32 35 37 41 39 23 14 12 9 10 14 19 19 24 30 29 23 21 22 23
26 35 51 50 75 75 62 64 67 66 61 50 52 48 44 36 31 23 28 22 17 11 6 3 5 7 10 12 14 14 16 19 23 26 29 33 36 40 36 27 20 12 12 12 9 13 18 20 24 23 21 21 24 24
26 37 51 64 84 66 65 62 56 50 54 48 54 52 42 38 28 28 24 20 14 11 8 7 7 10 11 13 15 16 16 19 22 25 28 31 35 39 38 33 25 23 20 18 21 23 20 24 34 22 21 18 20 25
33 57 61 81 80 74 70 66 55 55 50 49 49 47 41 30 35 29 23 17 15 11 8 10 11 12 12 13 14 16 17 20 23 26 28 30 33 36 39 38 31 27 28 29 31 23 23 28 32 35 33 28 22 23
64 74 78 87 83 66 70 65 56 53 50 52 49 41 36 38 30 25 22 17 13 9 9 10 9 11 12 12 13 15 18 20 23 25 28 29 32 35 37 38 37 30 31 36 33 31 26 24 37 37 34 27 24 21
84 76 88 79 80 79 68 55 53 49 47 51 47 38 39 30 23 22 17 16 14 8 10 11 10 11 11 11 12 15 19 21 22 25 27 29 31 33 38 40 40 35 33 36 35 30 28 26 29 35 35 28 25 24
86 87 82 81 81 75 69 54 50 48 51 49 41 40 33 28 25 21 18 17 11 8 7 10 13 13 12 10 13 16 18 21 23 25 27 29 30 33 35 38 39 36 31 34 35 31 24 15 14 28 26 24 22 26
89 91 85 84 78 72 67 54 49 55 47 44 39 33 32 30 22 20 19 14 11 7 5 10 9 8 9 10 13 15 18 20 23 24 26 28 30 32 35 38 40 38 34 32 34 30 22 4 16 17 17 18 20 21
95 85 84 82 77 70 59 55 55 53 51 43 38 32 31 24 22 20 16 16 10 4 7 9 7 7 8 11 13 16 18 20 23 23 25 28 29 31 34 36 39 39 35 32 31 29 17 10 16 17 17 19 18 16
88 85 83 80 75 66 57 58 57 50 49 43 36 30 26 22 24 22 20 17 11 9 10 11 10 9 12 13 15 17 18 21 22 23 24 28 28 30 33 36 38 38 31 28 28 29 18 7 20 20 19 18 14 13
82 83 82 79 73 64 57 56 53 49 45 38 32 27 27 23 23 23 21 19 16 13 11 15 17 16 17 16 17 18 18 20 20 23 25 28 28 30 33 36 37 37 29 25 25 25 15 6 17 20 20 20 21 20
83 81 77 75 67 59 57 56 53 45 41 36 34 30 27 28 27 25 21 19 18 16 15 17 17 19 17 15 18 20 18 17 20 23 25 28 28 29 32 34 36 36 29 23 22 21 15 10 16 19 19 17 17 21
82 83 74 70 64 58 55 54 51 44 41 38 34 30 29 29 27 24 21 21 19 16 15 17 21 18 15 16 20 21 17 17 19 22 26 27 27 29 32 33 35 36 30 22 19 17 12 10 12 15 18 21 19 15
86 76 65 62 58 57 54 50 47 43 43 40 35 30 29 29 28 22 18 15 15 17 18 20 21 17 16 18 22 20 19 19 21 24 26 27 27 29 31 33 34 36 33 24 20 19 16 17 17 17 19 22 20 19
79 70 65 63 55 52 52 50 48 44 42 40 38 37 32 29 26 22 18 14 15 14 16 19 18 16 18 22 21 22 22 21 24 24 26 27 27 29 32 33 35 38 36 27 21 20 20 19 20 24 23 25 24 22
74 63 60 56 52 51 51 48 44 39 38 38 36 32 29 27 24 20 16 15 13 15 19 19 19 20 21 24 24 25 22 24 25 26 28 28 28 30 32 35 35 38 38 28 24 21 21 22 22 21 24 22 21 17
68 64 60 57 54 52 52 45 40 38 39 35 32 31 25 23 23 21 19 17 17 19 20 19 20 21 26 26 27 25 24 26 27 29 30 29 30 32 34 35 36 40 41 31 25 24 23 24 23 21 21 22 22 21
62 57 55 53 51 50 50 47 44 40 38 37 33 28 23 21 18 18 19 20 20 19 19 19 21 26 27 28 29 27 27 27 29 31 32 32 33 34 35 36 38 42 43 33 27 28 27 26 27 25 24 23 27 29
54 50 50 50 49 49 49 47 46 44 42 35 27 21 20 20 20 20 21 21 21 19 19 22 27 27 29 31 30 29 28 29 31 32 32 34 35 36 37 38 41 44 42 31 28 28 28 26 25 28 29 28 26 27
51 50 50 49 49 49 48 47 44 43 41 36 27 23 20 19 20 19 20 22 20 20 25 26 27 30 32 32 31 29 29 32 33 33 33 34 36 38 38 40 44 44 40 31 29 29 29 28 28 27 27 32 34 32
48 46 46 48 50 50 49 47 45 35 30 28 28 26 25 22 19 20 22 20 20 24 26 27 30 32 33 32 30 30 32 33 34 35 35 37 39 40 40 43 46 43 37 32 30 30 30 31 29 29 30 28 28 30
47 49 51 50 51 49 46 42 36 32 31 32 31 29 27 25 21 20 20 20 24 26 28 30 32 32 31 31 31 32 32 33 35 36 38 40 40 42 44 46 44 39 33 32 32 31 30 29 29 28 28 28 30 29
30 30 31 33 33 30 29 27 27 26 26 26 26 23 23 23 21 21 23 26 28 29 31 32 31 30 30 31 32 32 33 34 36 39 40 41 42 44 45 43 39 33 30 30 28 25 24 23 23 23 24 24 23 23
34 30 28 28 27 26 25 27 29 29 28 26 26 27 25 23 24 26 29 30 30 31 31 30 29 30 31 32 32 32 34 37 38 39 40 43 44 44 42 37 31 27 27 24 21 20 19 18 18 18 19 20 20 21
32 35 34 31 29 29 30 34 35 36 34 33 28 27 27 29 30 30 29 29 30 30 30 29 29 30 31 32 33 34 37 38 39 41 42 43 44 42 35 28 24 22 21 21 22 23 24 24 24 25 27 28 28 28
27 27 28 29 28 28 29 30 31 31 30 29 30 31 32 32 31 29 29 29 30 30 29 30 30 31 31 33 35 37 39 40 41 41 43 43 38 33 30 29 29 30 30 31 33 34 34 35 35 35 35 36 36 35
31 28 28 30 31 31 31 31 31 30 30 32 34 33 32 31 28 29 29 29 29 29 30 30 30 31 33 35 37 39 40 41 43 44 43 40 36 35 35 36 38 41 42 41 41 42 44 45 45 45 45 45 45 44
38 39 38 38 38 38 38 37 37 36 35 34 33 31 28 28 28 28 28 28 29 29 29 30 32 33 35 37 38 39 42 43 43 40 38 37 37 37 37 38 40 41 42 43 43 43 43 45 45 47 48 49 51 52
40 40 39 38 38 36 34 34 33 32 32 30 29 29 28 28 29 29 29 29 29 29 30 31 33 34 36 38 40 42 42 41 40 39 39 40 41 41 41 41 42 44 45 46 48 50 52 53 55 57 57 58 60 61
31 32 32 32 31 30 29 29 29 29 28 27 27 27 28 28 28 28 28 28 29 30 31 33 34 37 39 41 40 39 38 38 37 38 40 41 42 43 45 47 49 51 55 58 61 63 65 66 66 65 65 64 65 64
33 32 31 31 29 28 27 28 28 28 27 26 26 26 26 26 26 26 28 29 30 32 34 35 37 37 37 37 36 36 36 37 38 40 42 43 45 49 53 57 60 62 64 61 54 48 45 48 52 55 57 57 57 56
30 29 28 29 28 29 29 28 28 27 27 26 25 24 25 25 26 27 28 29 31 32 34 34 34 34 34 34 35 35 37 39 42 44 48 53 56 58 58 55 48 43 45 49 51 51 50 49 49 50 53 55 55 54

GFSWCAN_500_spd_096.txt.gz
Wind_Speed
43 36 33 16 41 73 83 77 66 70 60 51 50 47 44 49 42 38 30 29 36 31 27 22 15 10 5 4 4 5 7 10 13 17 20 23 28 32 35 38 35 26 16 11 11 12 17 24 21 16 13 15 18 23
37 31 28 21 56 74 84 82 70 68 59 53 49 51 47 44 36 30 27 28 39 32 25 19 13 9 7 3 2 4 8 11 15 17 20 22 27 31 34 35 34 23 23 14 7 11 15 17 18 21 25 20 18 21
38 32 25 26 70 81 85 82 73 71 61 55 51 50 49 44 36 33 24 26 34 30 24 18 12 9 5 2 3 5 8 12 14 16 19 21 25 30 33 35 35 29 21 15 11 13 15 18 17 20 26 29 33 30
38 33 25 38 81 84 86 81 72 62 61 58 49 50 45 41 37 32 21 28 34 29 23 18 13 9 6 5 5 6 9 13 14 16 18 20 23 27 32 33 35 35 27 19 18 22 20 17 24 26 23 30 30 27
46 35 23 45 86 86 86 82 73 68 58 56 58 53 42 41 38 28 19 34 34 28 24 18 13 7 6 6 6 6 10 13 14 16 17 18 21 26 30 33 35 36 35 29 27 26 26 25 22 31 37 27 28 23
42 37 26 51 89 89 87 81 75 68 57 60 55 43 40 43 37 25 27 37 31 25 20 16 11 6 4 6 5 6 9 12 13 15 16 18 20 24 29 32 35 36 39 35 31 29 28 27 28 26 40 42 41 32
36 38 32 63 93 87 84 79 75 64 63 66 52 42 43 38 34 30 37 32 27 22 17 14 10 7 5 5 5 6 10 11 14 16 16 17 19 23 28 31 35 37 39 39 36 31 30 26 24 23 23 40 33 30
41 37 50 75 91 87 81 78 71 68 60 60 50 40 46 41 35 39 40 33 27 21 16 12 10 8 7 7 6 8 10 12 14 16 17 17 19 22 26 30 34 36 39 39 33 31 30 26 20 17 13 28 27 24
45 50 70 87 89 82 75 73 72 62 57 53 49 52 50 41 42 38 39 31 26 19 15 12 10 7 8 5 4 7 9 14 16 16 16 16 18 21 25 28 32 36 38 39 34 31 31 24 14 8 11 25 22 18
53 74 90 90 84 79 74 70 70 61 52 54 55 47 45 42 42 39 34 29 24 20 16 12 11 11 9 5 4 8 11 15 18 17 17 16 18 21 24 27 31 35 37 40 37 30 28 22 5 4 9 14 16 13
77 91 94 89 84 80 80 72 62 56 53 53 52 51 46 40 38 36 32 29 24 19 13 10 10 10 9 8 10 11 12 15 20 19 18 18 19 21 24 27 29 32 35 38 37 31 24 20 7 7 8 11 18 20
94 98 93 87 86 79 72 65 58 50 47 46 49 44 42 40 37 33 30 29 25 18 11 9 10 11 12 14 14 14 13 17 20 21 20 20 20 22 24 26 29 32 34 35 35 29 21 18 13 10 15 16 16 17
101 95 91 88 82 70 60 56 54 51 51 50 50 47 39 38 36 32 27 26 21 17 14 11 12 13 14 15 16 14 14 19 19 23 23 22 22 22 24 26 28 31 33 33 34 28 18 14 14 10 16 20 20 19
95 92 88 86 75 63 55 55 59 55 49 48 49 46 42 37 32 28 27 26 22 18 16 16 16 15 16 17 14 14 16 19 22 25 24 25 23 22 24 26 28 31 34 34 34 31 19 15 15 15 14 19 23 24
82 85 84 82 72 64 55 57 55 51 47 45 45 44 42 33 30 28 26 23 20 18 18 18 18 18 20 18 15 15 17 21 23 25 28 27 25 24 25 26 28 31 34 34 34 35 28 18 17 17 19 20 17 21
82 85 82 75 67 61 57 58 54 50 46 46 42 40 35 32 28 26 25 22 20 18 17 19 21 20 21 21 17 17 19 22 25 28 30 29 27 26 27 28 30 32 34 34 34 35 34 23 21 20 19 21 24 26
84 76 72 66 63 57 57 57 53 48 46 45 40 35 33 30 27 25 25 25 21 19 19 19 19 22 22 20 15 18 22 25 28 30 32 30 29 29 29 31 32 34 34 35 35 35 36 29 22 23 23 21 21 23
71 67 68 65 58 55 55 57 53 49 48 42 38 37 33 30 28 27 24 23 21 21 20 19 22 24 21 17 17 20 23 27 30 33 33 32 31 30 31 32 34 35 36 37 36 37 38 34 26 26 25 25 22 24
65 64 62 60 52 52 55 55 54 50 42 40 40 37 32 29 27 26 25 24 23 22 21 21 23 22 18 17 18 22 25 29 32 32 32 33 33 32 33 35 36 37 37 37 38 38 38 34 28 27 26 26 27 28
64 62 61 59 54 51 50 52 50 45 41 39 39 35 30 28 25 23 21 21 20 21 22 20 22 20 18 19 21 24 29 33 34 33 33 33 34 34 35 37 38 39 38 39 40 39 38 34 28 28 28 27 25 28
62 60 57 53 51 50 51 49 46 45 42 39 34 31 29 26 22 19 18 18 18 18 20 21 20 18 20 21 24 27 32 34 34 33 33 34 35 36 37 39 40 40 41 42 41 40 39 33 29 29 29 29 29 29
53 52 50 50 50 50 52 51 47 44 37 39 35 29 27 21 20 18 16 17 18 20 21 20 18 21 23 25 28 32 34 33 33 32 33 34 36 38 39 41 42 42 44 43 42 42 37 32 30 30 30 30 31 31
52 53 54 54 55 55 52 47 43 41 38 30 29 28 26 23 23 21 17 17 21 25 21 21 23 24 26 30 33 34 33 32 32 32 33 35 37 39 41 42 43 45 45 45 43 37 32 30 29 28 27 26 27 27
51 50 52 52 53 52 49 45 43 38 31 28 26 25 24 23 24 25 23 24 26 25 25 26 27 29 31 33 33 33 32 32 32 33 35 37 40 42 43 44 46 46 47 44 38 31 27 26 26 24 22 22 20 20
43 42 41 41 40 39 39 35 31 29 27 26 24 22 21 23 23 22 22 24 24 25 27 29 31 32 34 34 33 32 32 32 33 36 38 40 42 43 44 44 46 48 44 36 28 24 23 22 21 20 21 21 22 22
39 40 42 42 39 39 35 31 29 28 27 27 23 22 23 22 23 22 22 24 26 28 30 32 33 34 33 32 32 32 32 33 35 38 41 42 43 44 44 47 47 43 36 31 29 28 29 28 28 29 30 31 31 30
40 38 37 36 36 35 35 33 30 28 28 27 25 26 27 27 24 24 26 28 29 30 31 32 33 32 31 31 31 32 34 36 39 41 42 44 44 45 48 48 45 40 37 35 35 36 38 40 40 40 40 42 43 43
40 39 40 38 38 37 34 30 27 26 26 26 27 26 25 24 27 29 31 32 31 31 31 31 31 30 30 31 33 35 38 39 41 43 44 44 47 49 49 46 44 42 41 41 41 41 40 40 41 41 41 42 44 46
31 32 33 29 28 29 28 26 24 24 26 27 28 29 29 30 32 32 32 31 31 30 29 29 29 30 31 34 36 37 38 40 42 43 45 47 48 48 46 44 43 43 43 43 43 42 43 45 46 47 48 50 51 52
26 27 28 28 27 27 28 29 30 31 31 30 31 33 35 35 33 32 30 29 28 28 28 29 30 32 33 34 35 37 39 41 44 45 47 47 47 46 45 45 45 45 45 47 49 53 56 58 60 62 63 62 62 62
36 36 37 37 37 37 37 36 36 36 37 37 37 36 33 31 29 28 27 26 27 27 29 30 31 32 33 35 37 39 41 43 44 46 47 46 45 45 46 48 50 53 57 61 63 64 63 60 55 51 50 51 52 51
38 39 39 40 40 39 38 36 36 35 33 32 30 29 27 26 25 25 25 26 27 28 28 29 30 32 34 36 38 39 41 43 44 44 44 46 48 50 53 57 61 64 61 53 46 46 50 53 53 53 52 52 52 52
36 37 36 36 35 35 34 32 31 29 28 26 25 25 24 24 24 24 25 26 27 27 29 30 31 33 34 36 38 39 41 42 43 46 48 50 54 59 58 49 42 43 46 49 49 50 49 48 48 49 49 47 44 42

GFSWCAN_500_spd_099.txt.gz
Wind_Speed
59 62 52 43 39 22 51 72 73 72 68 52 48 48 48 45 42 33 28 23 15 31 34 30 26 21 16 13 10 8 6 5 6 9 12 13 15 19 23 28 34 37 36 26 15 10 11 13 22 22 18 14 17 20
58 62 46 39 35 18 68 78 72 73 60 63 55 45 46 44 40 33 23 19 15 35 34 29 25 20 15 13 10 7 6 5 6 9 12 12 15 17 21 26 31 32 35 30 22 16 12 14 14 20 25 25 21 20
59 55 40 35 30 25 77 77 75 64 67 58 48 43 43 44 40 32 26 19 24 36 35 32 25 20 17 12 9 7 6 7 7 10 11 12 13 16 20 24 28 32 35 32 25 20 14 14 18 21 23 29 30 30
66 44 38 33 29 32 84 82 77 65 60 53 53 48 44 46 41 34 27 16 29 40 36 31 25 22 18 13 10 8 8 8 8 9 12 11 13 16 20 22 27 30 34 35 31 27 21 20 20 21 24 27 26 25
64 48 48 40 40 35 88 85 81 69 64 59 53 47 44 41 39 36 31 17 29 40 35 29 25 21 17 13 11 9 8 8 8 10 11 11 12 14 18 21 25 29 32 35 33 31 28 29 28 25 21 26 33 29
69 57 47 44 46 48 94 84 76 71 67 62 56 53 49 44 42 32 29 21 27 40 33 29 24 20 15 13 12 9 8 8 9 11 12 12 13 15 18 21 23 27 30 34 36 40 37 32 30 30 25 21 31 35
52 35 32 44 44 63 93 88 82 77 68 65 56 54 47 42 37 33 26 17 30 38 34 29 24 18 14 11 10 9 8 8 9 11 13 13 13 15 17 20 22 25 29 33 34 40 41 39 33 30 30 24 25 41
44 30 39 51 50 89 98 89 89 80 71 64 57 51 46 43 35 29 23 20 33 38 31 29 23 19 16 12 10 8 8 8 9 11 14 14 15 16 18 20 22 24 27 31 35 38 40 36 32 29 27 21 12 33
29 42 53 59 59 98 104 89 82 79 71 67 55 49 46 40 32 28 25 25 33 36 29 25 23 21 15 12 11 8 5 9 11 12 15 16 18 17 19 20 22 24 26 31 35 36 38 32 26 23 18 10 6 14
43 55 65 58 77 104 103 92 84 79 70 62 54 50 53 36 30 29 31 36 40 36 30 27 23 17 16 15 12 9 8 11 15 16 19 19 19 19 20 21 22 23 26 30 32 35 37 35 24 11 12 7 10 9
53 67 64 59 91 105 103 95 83 74 63 57 56 54 40 37 39 38 40 44 40 34 28 23 18 17 17 16 14 11 11 12 15 18 20 21 22 21 21 21 23 24 25 27 31 34 36 35 25 15 6 3 7 11
63 61 55 80 99 104 97 91 80 66 62 52 52 53 46 44 46 40 43 42 36 30 25 19 18 18 19 17 14 13 13 13 16 19 21 23 24 23 22 23 24 24 25 27 29 32 34 33 28 17 12 13 13 14
47 52 77 89 100 95 90 84 76 70 61 57 53 49 47 48 47 45 40 35 31 26 23 20 19 19 18 15 14 16 15 13 18 19 22 24 25 25 25 26 26 26 27 28 30 31 32 32 28 20 15 14 17 22
53 74 84 92 92 85 83 77 75 69 60 54 50 49 53 48 45 42 33 29 31 32 25 20 17 15 15 17 17 16 15 17 18 20 23 25 26 28 28 28 28 29 29 30 31 31 31 30 28 23 19 19 19 20
70 77 85 86 85 82 78 73 68 60 58 51 50 52 47 49 44 39 36 39 40 31 23 21 19 17 19 19 17 18 17 18 19 21 23 26 28 30 31 30 30 31 32 32 32 31 30 30 30 26 23 22 23 23
76 82 84 83 81 73 69 65 61 60 55 52 51 50 52 47 42 39 38 35 32 29 25 21 20 20 21 21 19 18 18 19 21 23 25 28 31 33 33 33 33 33 34 35 34 33 32 31 31 28 27 24 25 27
76 81 80 75 70 70 68 63 58 52 51 51 56 55 49 43 40 36 35 35 33 29 24 23 21 22 23 21 18 19 20 21 22 25 27 29 32 34 34 34 35 35 36 36 36 35 35 34 33 30 30 26 26 29
69 71 77 77 75 67 57 58 58 57 56 54 49 47 45 42 36 34 33 33 32 27 25 23 23 24 24 21 21 21 22 24 25 26 27 30 34 36 36 36 35 36 37 38 38 38 38 37 34 33 33 30 28 29
63 75 76 72 67 58 59 59 58 58 55 51 47 44 43 41 37 35 34 33 31 29 27 26 26 26 24 24 23 23 24 26 27 28 30 33 36 38 37 36 37 37 38 39 40 40 39 39 36 35 36 32 29 30
57 58 62 62 59 58 56 58 59 54 51 48 46 39 37 36 37 37 34 31 29 26 27 26 29 29 28 26 24 25 27 27 28 30 32 35 39 40 39 38 38 38 39 41 42 43 42 42 39 39 38 34 31 31
55 57 57 53 53 54 55 59 58 52 48 45 41 36 35 37 37 36 33 31 29 26 29 33 33 31 27 25 26 27 27 28 30 32 35 38 40 40 40 39 38 39 41 43 45 44 45 43 43 41 37 35 34 33
49 54 55 52 52 52 51 52 51 50 47 44 40 37 37 38 38 35 32 29 28 30 31 31 31 27 26 28 27 25 27 29 32 36 39 40 40 39 39 39 39 41 44 46 46 47 45 46 45 42 35 33 34 35
47 49 51 52 53 51 48 46 46 47 46 42 41 40 40 40 37 34 32 29 29 29 30 30 28 29 29 26 26 27 30 32 35 38 39 40 40 39 39 39 41 44 46 48 48 47 47 47 43 34 30 30 32 32
47 52 54 54 53 50 46 45 43 42 42 42 42 41 38 36 35 32 29 30 30 29 28 28 29 29 29 29 29 30 32 35 37 39 40 41 40 39 40 42 44 47 49 49 48 49 49 44 37 30 28 29 28 26
45 49 52 54 51 48 47 46 46 44 43 39 37 39 38 34 33 32 31 32 33 33 33 33 32 31 30 31 32 33 35 37 38 39 40 39 39 40 42 45 47 49 50 51 51 49 42 36 32 30 30 30 30 30
42 45 47 46 44 45 45 44 43 40 34 35 34 32 32 33 32 31 31 32 32 32 32 32 31 30 31 33 34 35 37 38 39 39 39 39 40 42 45 47 49 50 52 51 50 46 42 38 36 36 37 38 40 39
41 40 39 39 38 39 38 37 34 32 33 33 34 34 33 33 34 32 31 30 30 30 30 29 29 31 33 35 36 37 37 38 37 37 38 40 42 45 47 48 50 53 54 53 50 46 42 40 39 39 39 40 42 42
43 43 44 43 41 39 36 35 34 32 32 35 35 38 38 35 31 31 32 33 31 30 28 28 30 32 34 35 36 36 36 35 36 38 40 43 45 47 49 51 53 55 55 53 50 48 46 44 44 44 44 45 47 49
44 45 45 45 46 45 43 41 38 39 39 39 37 36 34 34 34 32 30 29 28 28 29 30 32 33 34 35 34 34 34 35 37 40 42 44 46 48 51 53 55 56 55 54 53 53 52 54 56 58 60 61 62 62
36 38 37 39 40 38 36 37 36 36 35 34 34 34 32 29 28 27 27 27 29 31 32 33 33 33 32 32 31 32 34 37 39 41 43 45 47 50 52 55 56 56 57 56 59 63 63 58 54 50 49 49 49 48
27 27 30 31 32 33 34 33 33 33 33 31 30 29 29 28 27 28 30 32 33 33 32 31 31 30 29 29 31 33 36 37 39 41 43 46 48 52 55 55 54 56 60 57 49 47 51 54 54 53 52 52 52 52
30 30 30 30 31 31 32 31 31 30 30 30 29 29 30 31 33 33 32 32 31 29 28 28 27 27 29 30 32 34 35 37 40 43 45 49 52 52 53 56 57 49 44 47 50 51 49 46 47 49 49 46 44 43
32 34 35 35 36 35 35 34 34 33 33 33 33 33 33 33 31 30 29 28 27 26 26 26 26 28 30 31 32 34 36 39 41 43 47 49 50 53 52 44 41 43 47 45 41 42 43 41 36 32 31 30 31 31

GFSWCAN_500_spd_102.txt.gz
Wind_Speed
58 60 58 54 49 53 42 37 16 54 62 62 60 54 44 45 41 34 28 24 27 32 27 26 27 24 20 16 12 9 8 7 6 5 7 10 12 13 14 18 23 27 31 34 34 28 19 18 14 12 21 18 19 20
63 57 54 48 44 45 36 32 32 62 61 60 57 46 39 37 38 34 26 24 20 28 27 29 28 26 22 16 13 11 10 9 7 6 7 10 11 13 15 17 21 25 27 30 33 30 27 17 14 18 18 21 28 27
66 62 54 43 41 43 31 22 50 62 60 59 54 44 44 39 36 30 27 19 18 24 31 31 29 25 21 16 15 13 11 9 7 6 7 10 10 12 13 16 19 23 27 31 34 34 30 25 23 18 21 24 27 29
70 64 51 46 45 33 27 20 54 65 61 57 51 45 42 41 34 32 26 19 12 25 31 30 30 25 20 18 16 13 11 9 7 7 8 10 11 12 13 15 19 21 25 29 31 34 35 34 31 29 23 22 26 27
69 61 58 54 43 35 27 29 61 65 64 60 52 51 47 42 35 33 28 19 12 25 34 32 29 24 21 19 16 14 12 10 8 7 8 10 11 12 14 16 19 21 24 28 30 33 35 38 35 34 30 25 21 26
68 65 61 62 58 49 43 39 62 72 69 56 52 52 49 42 39 36 29 21 11 15 31 32 28 26 23 19 17 16 14 11 9 8 8 10 12 13 15 17 19 21 24 26 29 31 34 37 37 36 35 34 31 22
72 69 74 65 50 42 51 54 65 79 75 62 58 50 48 43 40 37 29 19 14 16 27 33 30 26 23 21 19 15 14 11 9 8 9 11 12 13 16 17 19 20 22 25 27 28 33 35 37 37 38 36 29 21
73 76 68 51 39 41 56 64 68 85 80 68 62 52 49 45 39 33 27 22 18 19 25 34 31 27 23 20 17 15 13 10 8 8 10 12 13 15 18 19 20 21 22 24 25 28 31 34 37 38 38 36 26 20
78 71 51 39 39 47 61 67 73 89 83 76 65 53 52 48 41 35 31 23 19 25 33 34 31 27 23 20 17 17 14 11 9 9 12 13 16 16 19 21 22 22 23 24 27 28 30 33 36 39 35 29 20 15
72 52 39 35 48 54 72 67 80 94 85 79 62 57 56 47 41 36 33 27 21 28 37 35 31 27 24 23 20 18 15 12 11 11 13 14 17 18 21 22 23 23 23 24 26 29 30 31 33 37 34 24 15 10
52 33 32 43 54 71 71 75 89 95 83 74 67 61 53 46 41 40 35 28 28 38 40 35 33 28 24 21 21 20 16 13 13 14 15 16 18 20 23 24 25 26 26 26 27 29 29 30 30 31 32 28 19 10
30 19 35 52 71 71 72 82 94 96 82 72 64 56 51 47 43 41 35 34 39 40 39 33 29 26 23 21 22 21 18 16 13 15 15 17 20 22 24 25 26 28 28 29 30 30 30 30 28 27 28 27 20 18
14 23 44 66 65 65 75 79 91 87 77 74 64 56 53 49 45 41 35 37 39 37 31 27 27 26 25 22 22 22 19 15 18 15 16 19 21 23 25 27 28 29 30 31 31 32 32 31 29 27 24 23 20 16
17 40 61 55 60 70 74 81 88 86 79 74 63 54 51 51 46 35 29 24 30 31 32 34 32 27 22 21 21 19 17 18 18 15 18 20 22 24 26 28 30 31 33 34 34 33 33 33 31 29 25 22 21 18
37 49 47 51 65 68 74 72 80 86 78 70 58 53 56 50 36 33 34 30 33 37 39 35 29 25 24 19 17 18 18 20 19 19 20 22 23 25 27 30 32 34 36 36 36 35 35 35 33 31 28 25 23 22
33 32 49 63 68 65 69 76 80 80 70 63 59 59 52 46 42 35 32 27 40 43 41 36 29 23 20 20 18 18 19 21 22 22 22 24 25 26 29 31 33 36 39 39 37 37 37 36 35 34 32 29 27 26
36 48 63 67 64 65 73 76 75 72 65 62 59 54 45 39 38 37 32 37 46 43 40 33 26 24 24 22 18 19 21 24 24 25 26 26 27 28 30 32 35 39 42 42 40 39 38 38 37 37 35 33 30 31
61 73 62 60 63 65 73 71 68 67 61 57 56 53 45 35 36 34 43 47 42 39 37 33 29 27 25 22 22 24 25 25 26 27 28 28 28 29 30 33 37 42 44 44 42 41 40 39 39 39 39 37 35 35
71 64 59 60 62 63 61 64 68 65 60 55 52 53 42 37 42 47 46 42 40 39 36 34 32 29 26 25 25 26 26 27 29 29 30 30 30 30 32 35 40 45 46 45 43 42 41 41 42 42 42 40 38 39
63 62 61 64 67 64 64 69 70 65 61 53 53 47 41 43 44 45 43 41 39 38 37 34 30 29 30 29 28 29 29 30 32 31 31 31 31 33 35 39 43 47 47 45 43 43 43 44 45 46 45 43 42 42
60 56 57 63 65 68 69 70 67 60 56 53 50 47 48 46 42 43 41 39 37 36 32 30 33 33 32 30 30 30 33 35 33 33 33 33 34 36 38 42 46 48 46 44 43 44 45 47 47 48 47 47 45 40
53 56 57 58 59 64 64 63 62 58 54 51 49 50 48 47 46 44 41 38 35 33 31 32 33 32 31 31 33 35 35 34 33 33 34 36 38 39 41 45 47 47 45 45 45 46 48 49 50 50 50 48 44 39
54 55 57 59 60 63 63 62 61 59 54 53 49 44 41 42 43 43 40 38 36 34 33 34 34 33 31 33 36 35 34 34 34 36 38 40 41 42 44 47 48 47 46 46 47 49 51 52 52 52 51 47 42 36
50 53 57 59 61 60 59 60 58 55 52 49 46 42 40 38 37 37 35 35 36 35 34 35 34 33 34 35 35 35 35 36 38 39 40 41 43 44 47 48 46 46 47 48 50 51 52 54 55 54 50 45 38 34
48 51 54 58 57 55 52 52 51 48 47 44 41 42 40 40 38 36 35 36 35 34 35 35 35 35 35 35 36 37 38 40 41 40 41 43 45 47 47 46 46 46 48 50 52 54 56 56 55 54 51 44 40 38
40 41 44 49 48 50 49 47 46 46 45 44 43 40 40 39 39 38 35 36 37 37 37 36 36 38 39 40 41 42 41 42 42 42 43 44 46 46 45 45 46 47 50 52 54 56 58 59 59 56 52 48 45 42
35 35 37 41 43 42 42 42 41 41 41 38 37 34 35 38 38 35 37 38 38 38 38 39 40 41 42 42 42 42 43 42 42 43 45 46 45 43 44 45 47 49 52 54 56 58 60 61 61 58 55 53 54 54
31 32 35 37 37 35 34 35 36 38 34 32 32 35 35 35 37 38 40 40 40 41 41 42 43 42 40 40 41 42 42 42 42 43 45 45 43 42 43 45 48 51 54 55 58 62 63 63 64 64 62 58 53 51
33 36 36 35 36 36 34 32 33 33 32 33 35 35 36 37 39 40 40 41 42 43 44 43 41 40 40 40 41 41 41 42 42 42 41 41 41 41 43 46 49 52 55 58 62 64 66 65 59 52 53 56 55 53
41 41 41 42 41 40 39 37 36 36 36 36 38 39 40 40 41 42 43 43 43 43 42 41 39 38 38 39 39 40 41 40 38 37 37 38 40 42 44 47 50 53 57 61 64 62 56 51 53 52 50 51 52 51
35 33 36 39 40 39 41 43 41 39 40 39 39 40 41 41 41 42 43 42 41 39 37 36 36 36 37 38 38 38 36 35 34 35 36 38 39 42 45 48 52 56 60 60 52 47 49 45 46 47 44 41 39 40
25 25 26 26 26 27 27 28 30 32 33 34 35 38 38 39 39 39 39 37 36 35 34 34 35 36 36 35 34 32 31 32 33 35 36 38 40 44 48 51 56 59 53 44 44 39 37 37 35 32 32 33 34 36
25 27 27 28 28 27 28 29 30 32 33 33 34 35 35 36 36 35 34 34 34 34 34 34 33 32 31 30 29 29 30 32 33 34 36 39 42 47 51 54 51 44 40 37 30 29 28 27 26 27 29 32 34 36

GFSWCAN_500_spd_105.txt.gz
Wind_Speed
63 59 55 55 57 60 54 42 41 40 8 21 43 38 40 41 40 31 29 24 23 21 24 22 24 25 20 18 14 11 9 7 6 4 3 6 8 9 10 13 16 20 24 26 30 32 29 33 32 24 20 14 18 20
63 59 55 53 57 59 57 38 30 29 17 31 42 42 39 36 34 32 28 22 23 22 22 21 22 24 22 18 14 11 10 9 7 4 5 6 9 10 11 13 16 18 22 24 27 29 32 32 32 30 26 22 18 20
62 61 56 53 54 56 53 35 25 20 24 48 48 46 41 38 37 29 22 18 19 25 24 23 25 25 24 19 15 13 11 9 8 6 5 7 9 10 12 12 15 18 21 24 27 28 30 30 31 33 33 30 25 22
63 63 60 55 54 53 48 38 24 17 33 47 48 45 44 37 31 29 24 17 19 19 23 25 26 24 24 21 16 14 11 9 8 7 6 7 9 10 11 13 15 18 20 23 26 27 28 30 30 32 36 36 34 24
65 64 62 57 56 56 48 37 28 21 32 52 50 49 42 37 36 31 27 20 19 20 24 29 28 24 22 19 17 14 12 9 8 9 7 7 8 10 11 13 15 18 19 21 23 26 28 30 30 32 34 38 39 37
68 66 62 57 62 59 52 34 31 32 32 59 55 50 45 41 38 31 29 23 17 9 24 30 28 27 23 20 17 15 12 10 10 10 8 7 8 9 12 15 16 18 20 22 24 27 27 28 30 30 32 37 38 38
70 67 63 63 65 63 55 38 42 46 43 62 64 59 54 46 41 34 33 23 19 16 18 27 28 25 23 19 19 16 12 12 12 10 8 8 9 11 12 15 17 19 21 23 25 27 28 30 31 32 32 33 36 35
70 69 68 70 68 63 57 56 46 51 53 63 70 67 58 52 47 41 35 31 23 18 23 28 28 26 23 21 20 17 14 14 12 9 8 8 10 11 12 15 17 20 22 23 23 25 27 28 30 32 33 34 35 33
71 71 73 71 67 63 65 45 44 57 62 66 75 70 68 60 51 45 39 34 29 23 20 25 31 30 24 23 20 17 15 13 12 10 8 9 11 11 12 15 17 21 23 24 24 25 26 29 30 30 30 31 31 31
70 71 72 68 65 67 51 37 51 65 69 69 74 74 69 58 53 49 42 37 32 25 24 26 32 31 27 26 22 19 17 15 14 11 10 11 12 12 14 17 19 22 25 27 27 28 28 29 30 29 28 27 25 22
70 70 70 67 65 53 41 45 62 71 74 75 81 77 69 57 53 51 46 42 36 30 26 29 32 31 31 27 22 21 18 17 15 13 12 12 14 14 16 18 21 23 26 28 30 30 30 31 31 29 27 24 22 19
68 69 68 63 49 33 42 58 71 78 73 77 82 75 66 59 57 54 50 45 38 31 29 32 33 34 31 27 24 21 21 19 15 15 14 13 13 14 16 19 21 23 26 29 31 33 34 34 33 30 26 25 22 20
62 66 61 45 23 32 49 67 71 74 72 79 84 78 70 64 58 54 49 44 40 28 20 26 32 33 31 27 26 24 23 19 17 15 13 16 13 15 17 19 22 24 26 29 33 35 37 35 33 31 28 26 24 22
59 53 41 15 21 40 56 68 74 73 75 85 87 83 71 62 54 48 43 31 23 20 22 32 36 36 33 31 29 24 22 19 17 15 17 16 16 18 20 21 23 25 27 30 34 37 39 37 35 33 31 29 26 24
46 35 17 22 32 48 63 69 71 75 74 81 86 82 67 62 56 47 38 33 28 24 30 35 39 37 35 33 26 23 20 17 13 17 18 17 17 20 22 23 24 27 28 32 36 39 40 39 37 35 33 31 29 27
26 12 23 35 50 60 65 77 72 74 73 78 80 77 64 60 55 43 39 32 29 30 36 43 45 40 37 31 24 20 17 14 18 19 17 18 21 23 24 24 26 28 30 34 37 41 42 42 41 39 36 34 31 30
17 28 39 46 62 73 67 68 70 62 63 75 77 71 55 54 52 45 39 32 31 28 38 45 42 39 33 28 23 20 17 22 19 18 20 22 23 25 26 26 27 29 32 36 40 44 46 45 43 41 38 36 35 34
33 26 26 38 64 67 60 53 47 52 64 76 74 65 54 52 49 45 40 35 29 30 37 40 40 37 31 26 25 25 26 23 21 23 24 25 26 27 28 28 29 32 35 39 42 46 48 47 46 43 41 40 40 38
29 21 49 61 60 56 48 44 48 56 71 72 69 64 56 48 43 41 38 36 34 31 40 43 42 38 33 27 25 26 27 24 25 26 27 28 28 30 30 31 32 35 39 42 45 48 50 48 46 45 43 42 42 42
38 47 68 62 55 50 45 43 57 63 69 68 65 60 52 42 40 41 38 36 34 35 42 44 41 36 34 30 28 29 28 26 29 30 30 32 32 32 32 34 35 39 42 45 48 50 51 49 48 46 46 46 46 46
60 69 67 53 49 52 51 56 60 62 64 62 61 54 45 39 42 38 26 25 29 34 37 37 37 36 34 31 30 30 30 30 31 32 34 33 34 34 35 37 40 44 46 48 50 51 52 51 49 49 49 48 49 49
67 71 59 52 51 52 55 59 60 63 62 56 50 46 42 42 48 38 31 32 31 35 38 38 36 34 33 31 30 29 31 32 33 35 35 35 35 36 38 41 45 47 48 51 52 52 52 52 52 52 51 51 51 50
67 55 49 47 48 54 50 57 63 65 59 50 42 43 40 37 41 38 41 38 37 38 38 36 35 33 32 31 29 30 31 32 34 36 37 36 37 39 43 46 48 49 50 51 51 52 52 53 53 53 53 54 54 55
50 44 44 46 49 53 56 59 60 58 53 48 49 47 45 42 41 42 43 41 40 38 36 33 32 33 32 32 31 31 32 34 36 38 38 38 40 44 47 48 49 51 52 52 52 53 54 54 54 55 56 58 59 60
37 37 39 43 47 53 58 60 58 55 52 48 46 47 43 42 45 49 48 42 40 37 35 33 33 35 35 34 34 33 34 36 37 38 40 43 45 47 48 49 51 53 53 53 54 55 55 55 56 57 59 62 64 63
38 40 44 46 48 54 54 53 54 52 51 53 49 45 46 47 44 42 42 42 38 35 34 34 35 35 35 36 35 36 36 36 39 41 43 45 46 48 49 51 53 53 53 54 55 55 55 57 58 60 64 67 68 66
41 41 42 44 46 49 51 50 49 53 52 50 52 51 52 48 42 38 38 36 34 33 33 34 35 36 37 38 38 37 37 40 42 44 45 46 48 50 52 52 52 52 53 53 54 55 57 59 62 65 69 70 63 57
34 33 34 37 40 44 48 51 53 54 54 50 50 51 49 47 44 41 40 38 37 36 35 35 37 38 39 39 39 40 41 43 44 45 46 48 50 51 51 51 50 51 51 52 54 57 59 62 66 70 64 57 56 53
28 28 30 31 32 34 37 35 36 35 36 39 41 43 44 46 43 41 39 38 37 35 35 36 37 39 40 42 42 42 43 44 45 46 49 49 49 48 48 48 48 49 51 53 55 58 62 66 65 57 52 48 46 42
31 31 30 29 29 30 30 29 28 28 28 28 30 32 34 35 35 35 34 34 35 36 38 40 42 42 42 42 44 45 45 45 46 46 46 46 45 45 45 46 47 49 51 54 57 61 65 60 51 44 39 36 36 38
33 33 32 32 30 30 30 31 31 30 30 31 32 33 33 34 35 36 36 37 38 39 41 41 41 42 43 44 43 44 44 44 44 44 44 43 42 42 43 44 46 49 52 56 60 61 53 47 39 35 34 35 37 39
30 31 31 33 34 33 32 32 32 32 32 33 34 34 35 36 36 36 38 39 40 41 42 43 43 42 42 43 41 40 41 42 41 41 40 39 39 40 42 44 47 50 54 57 55 48 43 35 32 32 32 35 36 38
20 20 21 23 26 27 26 26 27 28 30 32 34 35 35 35 36 37 38 39 39 39 39 39 39 39 38 38 38 38 38 38 38 37 37 37 37 39 41 45 48 52 55 51 44 40 33 29 29 30 32 33 35 36

GFSWCAN_500_spd_108.txt.gz
Wind_Speed
47 48 50 48 44 41 43 46 52 52 11 23 26 27 27 28 31 31 25 16 15 17 20 18 18 24 25 20 20 17 13 11 11 8 3 0 3 5 7 9 11 15 18 20 24 28 30 31 32 33 33 34 18 11
47 47 47 45 42 40 37 40 43 45 13 20 30 30 30 28 24 25 20 14 15 18 20 18 21 25 24 21 19 17 14 11 11 8 4 1 4 5 7 8 11 13 17 19 21 24 28 31 30 30 33 36 36 31
51 49 48 44 39 40 34 38 37 35 33 25 32 32 33 29 26 22 19 17 17 16 20 19 20 24 23 22 19 16 13 11 11 7 4 3 4 5 7 8 11 13 16 18 21 25 26 28 29 28 28 31 34 38
52 51 48 43 39 39 34 33 32 31 28 19 39 37 37 34 31 30 25 20 22 21 19 20 22 24 24 22 18 15 13 12 10 8 5 4 4 4 6 8 11 14 17 19 20 23 25 27 28 28 27 30 33 34
53 52 48 44 42 42 35 30 28 27 28 23 42 47 45 40 36 32 27 22 20 22 20 25 27 26 24 22 19 15 13 12 10 8 6 6 5 5 6 8 10 14 17 18 20 23 25 26 26 28 31 30 35 31
53 51 48 45 44 44 38 32 27 30 32 25 30 51 53 48 42 37 33 26 22 20 23 25 28 28 26 25 22 18 15 13 10 8 7 7 7 7 8 8 11 14 17 19 19 22 24 25 26 29 31 29 30 33
52 50 47 47 48 49 44 38 33 32 34 31 33 40 60 56 51 44 37 30 25 25 22 26 31 29 28 26 23 19 17 13 11 9 8 9 9 9 9 9 10 12 17 19 21 23 24 25 26 27 27 28 27 29
52 49 48 50 53 53 48 41 37 38 36 36 40 42 53 63 62 52 46 40 33 30 23 26 29 30 29 27 24 20 17 14 13 11 11 10 10 10 10 10 11 13 16 20 22 24 26 26 27 29 30 29 28 25
51 50 50 54 55 53 49 45 44 46 40 44 48 52 54 69 69 61 52 46 41 36 29 23 29 31 34 29 25 21 18 16 13 14 12 10 10 10 10 11 13 15 17 19 22 24 26 27 27 28 30 29 28 24
51 51 52 53 54 51 53 50 52 50 48 50 56 56 64 70 74 64 54 53 48 42 32 29 32 33 31 31 26 22 21 18 16 15 13 10 12 10 11 12 14 16 17 18 21 25 28 29 30 30 31 30 26 23
53 54 52 50 51 54 56 58 54 57 58 60 58 59 64 67 74 67 61 60 56 47 37 32 35 34 35 32 29 25 21 20 17 17 15 10 13 10 12 13 14 16 18 19 22 25 30 32 32 32 32 31 28 23
54 53 53 51 55 57 59 58 60 63 59 52 47 57 66 70 73 73 71 67 60 52 40 35 36 35 34 35 32 27 25 23 18 18 15 11 13 12 13 15 16 17 19 21 23 26 31 33 34 34 34 34 30 25
49 48 50 56 57 57 56 62 57 54 50 47 58 66 71 74 77 80 75 68 60 48 36 33 35 35 36 37 34 29 29 23 19 19 14 16 12 12 13 15 17 18 19 22 24 27 32 35 37 38 38 37 33 30
45 50 55 58 59 55 59 51 48 50 48 60 74 85 83 82 79 75 67 63 54 36 32 32 33 36 37 37 36 35 29 23 20 16 17 19 15 14 14 16 19 20 20 23 25 28 32 36 39 41 41 41 38 33
51 53 54 53 54 56 47 32 41 46 55 74 88 85 83 77 75 72 66 63 50 43 38 36 34 36 38 43 40 36 28 23 15 17 20 18 16 16 17 18 20 22 22 23 26 30 34 38 41 43 44 43 40 36
52 49 46 47 50 40 22 37 48 51 67 83 82 78 76 76 74 67 64 54 49 46 44 40 37 40 43 46 41 35 25 15 16 19 21 17 15 18 19 19 21 23 24 25 28 32 36 40 43 45 46 45 41 38
43 43 38 36 32 25 35 45 49 63 82 58 73 75 76 75 69 65 55 50 47 46 42 38 37 40 47 46 39 29 15 22 23 23 20 16 18 19 20 21 23 25 25 27 31 35 40 42 45 47 48 47 44 42
36 32 23 23 32 39 42 48 62 80 69 45 66 74 76 74 68 61 52 49 46 41 40 36 37 41 46 42 29 25 30 28 25 24 21 21 21 22 23 24 25 26 27 29 33 38 43 46 49 50 51 50 46 45
16 9 12 18 32 42 55 63 73 61 29 39 70 72 73 72 66 57 49 49 42 40 36 34 38 43 44 36 33 31 30 29 27 25 24 24 26 26 27 27 27 27 29 32 36 41 45 48 50 53 53 51 49 47
25 21 28 38 49 63 73 68 38 45 37 32 60 67 50 70 62 56 49 46 43 39 36 35 35 32 35 37 35 33 31 29 27 24 24 26 27 29 31 30 30 30 31 34 39 44 47 50 52 54 54 53 53 51
35 32 43 54 68 66 67 47 28 41 59 51 63 47 37 62 54 51 48 44 45 43 35 30 28 32 35 37 37 36 32 29 27 24 26 27 28 31 33 32 31 32 35 39 43 47 49 51 54 55 54 55 54 54
37 56 65 65 63 57 55 56 44 36 48 55 64 54 42 38 50 46 40 41 44 38 33 32 32 33 37 41 39 36 33 31 27 27 28 28 30 33 33 33 33 36 39 43 47 49 51 53 56 57 56 57 57 58
46 70 66 58 47 49 48 40 41 34 44 51 56 61 46 51 54 40 34 35 36 32 31 33 34 36 39 39 37 35 33 31 29 29 29 30 32 33 33 34 36 39 43 47 49 50 52 56 58 59 59 59 59 61
56 68 57 47 49 47 49 44 43 35 44 50 54 53 59 54 48 39 33 35 36 24 26 28 30 33 35 35 35 34 33 31 31 31 31 33 34 35 35 37 39 42 46 49 50 51 55 58 59 59 59 60 61 63
49 51 53 50 48 50 49 44 42 43 47 55 50 46 48 43 40 34 31 33 35 28 28 29 32 33 34 34 34 32 32 32 32 32 33 34 36 37 38 41 43 45 48 50 52 54 57 58 58 59 60 62 64 66
45 46 47 41 35 39 45 44 44 49 49 52 47 43 44 43 38 32 29 30 29 28 32 32 31 33 33 32 32 32 32 32 32 33 34 36 37 39 42 44 45 47 50 52 53 56 58 58 59 60 62 64 66 70
36 41 42 31 33 38 43 45 40 46 51 51 48 45 45 41 37 33 33 30 28 29 33 36 35 33 32 32 33 32 31 31 32 34 35 37 39 42 44 46 46 49 51 53 55 56 56 57 59 61 63 66 70 67
36 28 28 31 34 41 46 45 43 43 47 47 46 47 43 39 36 34 31 30 30 32 36 40 38 35 34 33 32 32 32 32 34 34 36 39 42 43 45 47 48 50 52 53 54 54 55 57 60 62 65 70 66 55
31 31 31 33 35 39 41 39 39 39 39 40 40 40 39 38 37 36 35 34 34 35 34 34 33 33 33 33 33 34 33 33 34 35 38 42 42 44 45 47 49 51 51 51 52 53 56 58 61 64 68 63 53 45
30 30 30 31 30 30 29 27 28 31 33 36 39 39 39 39 40 42 41 40 41 43 40 38 36 35 35 34 34 33 33 34 36 38 40 42 43 44 45 47 48 48 48 49 51 53 56 58 62 66 60 50 43 40
35 33 32 29 24 24 25 24 26 26 27 28 32 37 39 41 44 44 43 44 44 43 39 36 35 35 34 35 35 35 35 36 37 39 41 43 43 43 44 45 45 46 47 48 51 53 56 60 64 57 47 40 37 38
33 32 30 27 23 21 24 28 30 30 30 30 31 33 35 36 35 35 36 37 37 34 33 32 32 33 34 34 35 35 36 37 39 41 41 41 41 42 42 42 43 44 45 47 50 53 59 60 52 44 36 35 37 38
20 20 21 24 24 23 22 23 26 30 32 33 33 33 33 33 33 33 33 33 34 34 34 33 33 34 34 35 35 36 36 37 38 39 39 40 39 39 39 39 41 42 45 48 51 56 56 48 39 34 35 36 38 38

GFSWCAN_500_spd_111.txt.gz
Wind_Speed
47 44 43 38 37 35 32 28 32 23 6 6 9 15 14 13 13 12 7 3 3 8 12 12 16 18 21 20 19 17 15 14 13 10 7 4 0 1 3 5 8 11 15 17 20 23 25 28 27 27 30 31 34 37
49 46 46 39 37 33 31 24 27 26 14 13 16 18 19 19 19 18 13 8 8 9 14 16 18 21 22 20 20 16 15 14 14 11 7 4 1 1 2 4 7 10 13 16 18 21 24 26 26 27 28 32 32 28
51 48 48 41 37 33 29 23 22 25 19 8 23 27 28 25 24 22 22 16 13 14 16 20 20 22 22 20 20 18 16 13 14 12 9 6 4 2 3 4 6 9 12 15 17 19 22 25 26 27 29 26 29 28
46 53 49 41 39 35 29 24 18 21 24 18 10 35 34 33 30 28 29 25 19 17 17 21 22 23 24 22 21 19 17 15 14 13 10 7 6 5 3 4 7 8 11 14 15 17 21 23 26 25 25 26 24 29
45 55 50 42 41 37 31 26 21 20 20 17 16 14 43 41 41 38 34 31 28 25 23 24 26 26 27 26 24 22 20 17 15 14 13 10 9 7 6 7 9 9 11 13 14 17 20 23 25 25 24 26 24 25
53 59 52 45 43 37 34 27 21 23 24 20 14 15 23 46 47 46 41 38 33 30 26 28 29 30 32 31 28 26 22 18 17 16 15 12 11 10 7 9 10 10 11 13 14 16 19 22 24 25 25 24 25 25
61 59 55 50 46 40 35 31 26 25 25 22 21 17 25 33 53 53 47 39 36 35 31 31 33 35 35 34 32 29 25 21 19 18 16 14 13 11 10 11 10 10 11 13 14 16 18 23 25 27 27 28 28 27
61 62 58 52 47 44 40 37 32 29 27 29 29 24 31 36 42 57 56 50 46 42 40 38 35 33 37 36 34 33 29 25 22 20 19 17 15 11 11 11 11 10 11 14 15 16 19 22 25 28 30 30 31 29
65 61 58 51 48 45 42 41 36 34 33 34 37 35 36 42 48 44 55 57 54 52 49 42 33 33 39 39 38 35 31 26 25 21 21 20 16 12 13 12 13 12 12 14 16 17 19 22 26 28 31 33 33 32
57 55 54 50 46 46 44 44 41 40 39 41 41 44 42 43 47 47 46 54 62 62 56 46 38 36 37 40 39 37 33 30 26 23 23 20 18 17 14 13 14 14 15 17 18 19 21 23 26 29 32 33 35 34
55 53 50 48 46 48 49 47 44 44 46 45 45 47 49 46 49 53 59 60 66 70 63 50 44 39 37 40 42 40 35 31 28 24 24 19 21 16 14 14 15 16 18 19 20 21 22 24 27 30 33 35 36 37
56 51 52 53 50 49 48 48 47 47 48 50 52 53 51 52 57 60 67 71 75 76 68 54 47 40 40 41 42 41 37 35 30 25 25 21 25 17 15 16 17 17 18 21 22 23 24 24 26 30 34 37 39 41
60 56 57 58 52 49 46 46 46 52 57 59 60 62 58 60 66 72 73 75 76 81 70 57 49 45 41 44 43 43 42 39 30 29 22 19 27 18 16 18 18 17 18 20 22 24 24 25 28 31 35 39 42 42
65 58 55 55 50 46 45 46 53 59 60 64 66 67 67 72 72 73 71 73 69 73 70 58 49 45 43 41 44 47 44 39 32 26 17 30 26 19 18 19 20 18 18 20 23 24 25 26 30 33 36 40 42 43
60 57 52 51 45 43 44 52 57 61 64 67 71 75 74 68 67 67 71 67 62 71 72 58 57 51 46 48 51 48 44 41 32 15 29 30 25 22 20 21 20 19 20 22 23 25 25 28 31 34 38 41 43 44
57 48 45 44 42 44 50 52 58 63 68 67 69 72 66 60 61 62 62 60 61 74 70 59 46 54 51 54 54 50 45 38 21 27 29 27 26 23 21 22 20 20 21 23 25 26 26 29 32 35 40 43 44 47
44 43 42 41 44 50 52 56 61 65 62 64 67 54 45 48 48 56 55 58 59 64 65 61 56 54 54 51 50 48 43 27 25 27 30 28 27 23 22 21 21 21 22 24 26 27 28 31 34 38 42 44 45 48
40 40 39 45 49 50 51 54 58 54 58 60 62 38 44 35 48 48 40 59 60 48 62 59 57 55 49 44 42 31 34 34 33 37 31 29 27 24 23 23 23 24 24 25 27 28 30 33 36 41 44 46 48 50
35 40 44 46 42 42 44 41 43 48 55 50 46 41 48 40 53 58 33 40 54 39 46 58 55 52 43 38 30 32 34 35 38 35 30 30 27 25 25 26 26 26 26 28 29 31 33 36 39 44 47 48 51 54
39 40 41 41 39 38 33 34 38 46 42 41 30 37 33 43 56 48 52 41 52 46 40 51 53 48 37 34 36 37 37 38 37 34 32 31 28 26 26 27 28 27 29 30 31 33 35 39 42 45 48 50 54 55
39 38 38 35 32 33 40 44 44 41 46 41 17 41 38 49 57 55 50 37 41 45 48 47 43 38 33 33 31 35 39 39 38 35 32 29 26 25 27 27 27 27 29 31 33 35 39 42 45 48 50 52 55 56
34 31 34 31 28 29 30 30 33 33 51 27 14 26 32 52 52 63 46 48 44 41 43 42 39 34 29 29 29 35 40 39 37 34 32 30 27 27 28 29 29 29 30 32 35 39 42 45 48 50 52 55 57 58
29 34 33 32 33 38 35 40 44 29 29 27 23 27 42 50 46 54 49 45 40 38 40 39 36 33 29 27 30 37 41 40 38 35 33 32 30 30 29 31 32 32 32 33 37 41 45 48 50 52 54 56 58 59
34 34 33 36 40 52 50 53 52 33 29 23 32 33 44 53 49 47 59 54 43 35 34 33 32 32 29 29 31 36 40 41 38 37 36 34 32 31 31 33 34 34 35 37 40 43 46 49 52 54 55 57 58 60
43 40 38 45 61 51 50 59 48 30 28 32 34 44 56 57 48 41 47 46 40 36 38 33 31 32 31 34 36 39 42 40 39 38 36 33 32 33 33 34 36 36 37 39 43 45 48 51 53 54 56 57 58 60
43 46 42 45 68 53 50 56 41 36 31 30 36 46 47 53 40 40 45 45 33 33 32 24 22 27 32 37 39 40 40 40 38 35 33 32 32 34 34 34 35 36 38 41 44 47 50 52 54 55 56 57 59 62
45 47 41 43 62 61 54 51 40 35 31 31 34 38 47 48 46 41 45 36 28 28 27 29 27 24 24 25 28 30 31 31 30 30 31 31 32 33 33 33 34 37 40 43 45 47 50 51 53 55 57 58 60 63
28 26 46 45 49 46 42 36 34 35 34 34 33 37 43 50 42 40 34 33 31 29 23 20 23 26 28 25 25 27 27 27 29 31 31 30 31 31 33 33 35 39 42 43 45 48 49 51 53 55 57 59 61 67
26 27 34 41 35 29 28 30 32 33 31 34 34 37 45 43 39 39 37 33 32 26 20 18 19 21 25 28 27 26 28 29 29 30 30 30 30 31 33 36 38 40 42 44 45 46 48 51 53 54 57 60 65 67
38 30 30 35 32 23 20 23 28 31 34 32 31 42 46 42 40 41 38 33 28 24 20 19 21 23 25 26 28 29 30 30 30 29 29 29 30 33 35 37 39 40 41 43 44 46 48 50 51 54 57 63 64 55
35 36 33 29 30 30 32 32 31 34 36 35 31 38 43 41 39 41 40 35 31 28 25 24 24 27 29 29 28 29 30 30 29 29 29 31 32 33 35 37 37 39 40 42 44 45 46 48 51 55 59 60 51 45
36 36 35 32 31 33 33 33 34 36 33 32 33 35 35 34 33 33 30 28 26 25 26 26 27 29 30 30 30 29 29 31 31 31 31 31 32 33 34 35 36 38 40 41 42 43 45 48 52 56 57 48 42 42
33 33 32 35 25 23 29 33 32 32 34 34 32 31 31 31 29 28 27 26 26 26 27 29 29 30 29 28 28 28 28 29 30 30 30 30 31 31 32 34 36 37 38 38 40 42 45 49 53 51 44 39 40 42

GFSWCAN_500_spd_114.txt.gz
Wind_Speed
33 28 26 27 31 32 34 25 23 14 11 13 10 10 11 9 7 7 5 1 3 7 10 11 15 19 20 16 14 12 11 12 13 12 9 6 4 2 1 2 5 7 10 12 15 18 19 25 27 28 29 29 27 29
32 29 28 27 23 29 34 30 23 21 9 13 20 22 18 19 19 16 13 11 9 8 12 14 15 21 21 20 20 16 14 13 14 14 11 9 6 4 3 1 3 5 8 10 12 15 19 22 25 27 27 26 26 30
41 26 33 28 27 32 34 35 26 23 20 9 15 19 28 29 25 25 26 20 18 16 15 16 18 22 23 22 21 21 17 15 15 16 14 11 9 7 6 4 3 5 7 9 11 13 15 19 22 25 28 27 29 27
35 26 31 30 29 39 38 37 33 26 26 21 14 16 17 25 34 34 32 32 26 23 21 21 20 24 27 25 24 23 23 20 19 18 18 15 13 11 10 8 7 6 7 9 10 12 14 17 21 25 26 28 28 28
36 26 29 30 37 43 42 40 37 31 28 29 25 18 19 18 24 36 41 41 36 33 26 25 26 26 28 28 29 26 26 24 22 20 19 19 16 14 13 13 11 10 9 8 11 12 14 16 20 23 25 27 29 30
46 32 37 37 40 48 45 44 44 35 31 32 32 30 24 21 23 26 33 44 46 38 36 33 29 30 31 32 32 31 29 28 25 22 21 20 20 17 15 16 14 13 11 10 12 13 13 15 18 21 24 28 29 30
52 43 40 39 49 50 48 46 46 41 36 35 38 37 31 29 28 27 29 33 49 49 47 43 38 34 33 34 35 34 33 32 30 26 23 23 23 19 16 19 16 16 13 12 13 13 14 15 17 21 23 27 28 29
52 52 43 46 52 56 53 50 48 45 42 39 40 44 40 34 33 28 33 34 41 54 53 53 46 40 36 35 36 38 37 37 35 30 25 26 25 20 17 22 17 17 15 13 13 15 16 16 18 20 23 26 28 29
54 47 45 47 52 58 59 52 51 47 46 46 45 43 44 39 34 38 38 40 43 47 55 58 51 43 40 36 36 38 42 41 40 36 30 32 24 18 26 21 18 17 17 16 15 15 17 18 19 21 23 26 28 29
49 50 55 52 55 60 59 56 54 51 49 49 48 42 41 40 43 45 46 48 48 49 50 54 55 50 46 39 37 37 41 45 44 39 37 34 19 27 25 22 20 19 18 18 18 18 19 19 20 21 22 25 27 30
64 66 54 53 56 59 53 55 55 55 52 50 49 49 45 44 48 48 52 51 50 46 46 48 51 56 48 44 41 41 40 46 47 42 41 33 20 32 22 22 22 20 19 19 20 21 22 23 22 22 23 27 29 31
72 69 56 52 56 64 58 56 57 56 49 52 56 58 54 50 51 54 52 51 50 48 44 51 49 52 54 48 44 44 43 44 49 45 42 31 26 31 23 26 23 21 19 20 21 21 23 24 24 23 25 29 31 33
69 63 63 62 65 64 64 59 59 54 51 56 61 65 61 56 53 51 50 45 46 49 52 53 48 50 54 54 50 48 50 47 47 47 43 27 32 30 27 27 25 22 21 23 22 22 23 25 25 27 29 31 33 35
63 61 65 67 63 63 60 54 54 55 56 62 64 66 66 55 46 45 46 52 56 56 55 56 53 53 53 55 56 53 55 52 47 46 37 25 32 36 28 29 26 24 23 24 24 24 25 25 27 29 31 32 33 35
62 62 62 61 60 50 48 50 51 56 61 66 67 68 56 52 54 54 56 57 56 56 57 55 57 57 56 56 63 60 58 54 46 43 30 28 38 41 28 29 29 26 26 24 24 25 25 27 28 30 31 33 34 37
56 55 55 49 43 44 47 51 57 59 65 70 69 65 57 54 57 61 62 60 56 55 59 58 61 64 65 64 66 64 62 53 45 36 30 35 38 38 31 32 31 28 27 24 24 24 25 27 29 31 33 35 37 40
59 53 51 47 47 47 49 54 60 63 68 68 60 57 58 60 62 61 59 57 57 59 60 58 63 67 67 68 72 66 62 53 41 28 30 32 36 33 31 33 32 29 27 24 23 24 26 28 30 32 34 37 40 42
53 49 46 46 47 51 53 57 61 65 65 59 56 59 61 61 61 57 53 50 49 45 45 50 52 57 64 67 70 64 57 39 30 29 35 35 36 34 33 33 32 29 27 24 24 26 27 28 31 32 35 37 41 44
49 46 46 46 48 51 56 55 56 58 57 60 61 59 58 55 46 33 30 27 35 31 38 41 46 41 57 66 69 58 49 42 34 32 34 37 40 34 34 32 30 28 27 26 26 28 28 29 31 33 36 39 42 46
47 44 45 47 50 52 51 52 51 58 61 60 55 50 43 30 26 30 29 33 38 48 38 46 44 29 37 61 60 44 41 40 33 31 33 36 36 35 34 32 29 27 27 27 28 30 30 31 33 36 39 42 45 49
45 44 45 48 50 48 47 50 53 55 53 48 34 30 27 27 33 35 33 29 43 48 43 44 40 35 31 47 55 44 40 37 34 34 35 37 36 34 34 32 29 27 28 28 29 31 32 33 35 38 41 44 47 50
42 45 47 46 44 45 47 47 46 43 37 26 28 28 27 30 35 40 41 37 47 36 29 33 43 35 32 46 51 44 40 35 34 35 36 37 38 35 33 32 29 28 29 30 30 31 32 35 38 40 43 46 49 52
48 48 42 43 44 45 45 41 39 35 24 31 31 29 30 31 35 36 40 45 38 30 25 28 32 34 30 43 43 36 35 34 36 38 39 37 35 35 33 31 30 30 30 30 31 32 34 37 40 42 45 48 51 54
41 39 41 42 44 42 39 38 34 26 39 39 24 17 18 32 31 32 44 42 37 37 34 32 29 38 40 41 40 39 36 35 37 41 44 42 38 36 35 32 32 32 32 32 32 33 35 39 41 44 46 49 52 55
39 41 41 41 40 37 34 32 35 31 47 30 19 25 18 21 30 29 33 35 26 34 35 26 22 25 28 28 33 34 32 31 32 36 40 41 39 38 35 32 31 32 33 32 32 33 36 39 42 44 47 50 53 56
37 41 39 38 32 34 32 39 33 33 36 21 18 23 16 21 22 30 29 31 20 23 32 32 24 19 22 27 31 32 30 30 31 33 37 39 38 35 33 30 30 29 29 31 32 33 35 39 42 45 48 51 54 56
45 49 43 35 35 34 45 41 39 32 30 27 19 18 21 21 21 23 28 32 25 23 32 24 21 23 29 31 28 28 30 31 33 34 35 38 35 32 29 28 27 27 29 31 33 34 36 39 43 45 47 51 54 56
51 51 43 34 32 42 39 39 44 39 28 17 18 19 21 22 25 28 34 33 29 28 30 24 26 29 28 24 23 25 28 31 31 29 32 33 30 27 27 27 26 27 29 32 34 35 37 40 42 44 47 51 54 56
46 39 37 37 28 38 48 45 47 39 29 22 20 19 20 19 20 33 40 33 28 33 36 23 25 27 23 20 20 18 18 19 20 22 25 26 25 25 25 25 26 28 30 32 34 35 37 40 42 44 48 50 53 57
42 36 24 33 31 20 44 44 33 34 28 23 24 24 24 22 21 30 34 32 19 20 24 23 24 22 21 21 20 19 19 19 19 19 20 22 22 23 24 25 27 29 31 32 33 35 37 39 41 44 47 50 54 57
25 19 19 23 30 27 29 37 38 24 23 27 28 24 22 21 22 28 32 27 23 25 26 23 22 23 22 20 20 20 19 19 20 21 22 22 23 24 25 27 28 29 30 31 32 34 36 39 41 44 47 51 54 55
37 21 21 29 32 30 29 33 33 25 24 22 25 28 32 26 21 31 31 30 30 29 24 23 24 23 22 22 21 20 19 18 19 21 22 23 25 26 26 26 27 27 28 29 31 33 36 38 40 44 47 50 51 47
30 37 31 32 32 35 34 38 36 31 29 30 31 30 27 27 22 30 34 32 29 29 27 23 22 22 22 22 21 20 21 21 23 25 25 26 25 25 25 25 24 24 26 28 31 33 35 37 40 43 46 47 43 39

GFSWCAN_500_spd_117.txt.gz
Wind_Speed
31 30 28 30 30 18 19 22 19 16 17 14 12 17 21 18 16 14 16 17 13 11 11 15 17 21 23 22 19 17 16 13 12 13 12 11 9 8 7 6 3 2 4 6 7 10 14 18 22 24 26 27 28 27
40 35 31 30 28 15 22 23 25 18 16 18 18 17 19 26 24 23 22 23 21 19 17 16 18 20 24 27 26 22 19 19 15 15 15 14 13 11 10 9 8 6 4 5 6 7 10 14 18 22 24 26 26 26
42 42 43 35 28 22 24 25 27 26 19 22 20 21 20 21 26 32 33 31 31 29 22 21 18 21 23 28 30 27 26 23 22 18 18 18 16 15 13 12 11 9 8 6 7 8 9 10 13 18 23 24 25 26
47 51 44 37 39 34 27 26 29 31 25 24 25 24 24 23 22 22 26 31 36 36 31 30 26 21 24 26 30 31 31 29 27 23 21 21 21 19 17 16 16 13 12 11 9 9 9 10 11 14 17 22 23 24
52 54 46 44 41 40 32 29 32 33 32 31 31 27 28 32 30 27 24 26 32 37 39 36 35 31 28 28 30 33 33 32 31 29 26 24 23 24 21 17 18 17 15 14 13 12 10 10 11 13 15 18 22 24
58 55 47 48 44 44 42 31 33 39 38 34 35 30 31 34 35 34 33 31 32 32 36 42 43 40 36 32 30 32 35 36 35 32 31 27 26 27 22 19 22 20 18 17 15 14 13 12 12 13 15 17 21 23
62 54 46 45 45 46 47 39 41 42 42 39 40 36 36 39 38 39 37 38 38 37 31 31 39 42 40 38 37 35 35 37 39 38 34 30 30 30 21 19 28 18 20 18 18 16 14 13 14 15 15 16 20 23
64 57 51 40 37 46 51 46 44 44 46 45 41 42 42 42 42 45 45 45 45 40 37 32 31 34 43 44 44 43 40 38 41 43 40 35 35 32 16 27 28 22 22 21 21 19 16 16 16 17 17 18 20 23
72 65 62 55 45 45 46 50 50 49 45 50 48 48 47 45 45 48 52 51 50 49 42 37 34 33 38 45 48 47 47 44 43 44 43 41 40 33 16 33 29 26 24 22 21 21 19 18 18 19 20 20 21 23
78 77 60 55 47 47 51 47 56 51 56 53 54 51 49 50 50 54 55 55 56 50 43 34 35 35 40 38 45 53 52 50 48 44 44 47 41 26 27 38 32 26 26 24 22 23 21 20 20 21 23 24 23 25
79 78 73 68 68 55 50 55 59 60 56 57 52 52 50 53 54 57 58 56 52 49 41 38 37 37 43 41 40 47 56 56 53 47 44 45 41 28 36 43 31 26 30 27 23 22 22 20 20 21 22 23 25 28
82 78 76 69 65 66 63 62 65 67 61 63 57 58 58 57 58 61 55 53 45 49 46 39 40 44 47 42 40 42 48 57 59 53 47 43 36 31 39 44 32 29 33 28 24 24 21 21 20 21 21 23 25 28
79 77 75 73 72 72 66 69 66 68 63 59 56 63 65 64 65 60 47 45 47 48 39 49 56 53 48 43 44 44 48 51 57 61 51 42 29 30 40 44 37 32 33 29 26 26 24 23 22 22 23 24 25 28
76 69 68 70 65 67 69 66 70 68 64 67 65 67 69 68 67 52 42 44 48 46 53 54 60 59 54 48 48 51 51 51 57 62 54 46 30 27 41 45 42 35 34 33 30 27 26 26 25 25 25 26 27 29
77 74 61 66 78 77 67 66 65 64 65 67 68 74 70 61 51 47 46 48 47 49 53 59 61 60 57 57 54 57 57 55 55 55 59 51 39 33 41 46 45 39 35 35 32 29 28 28 27 26 27 28 29 31
68 65 73 80 74 65 65 63 65 65 68 73 77 71 59 49 42 40 43 48 51 52 59 63 64 61 62 61 63 63 62 50 49 52 58 55 42 36 39 46 45 40 35 36 34 31 30 29 29 28 29 30 31 33
61 59 63 54 58 59 64 69 68 71 75 72 62 55 47 44 44 45 48 52 57 56 59 64 64 61 65 66 68 67 56 48 48 53 56 52 48 39 36 42 45 43 36 35 36 33 31 30 30 30 30 32 33 35
60 63 50 62 67 72 75 73 71 70 66 61 51 44 46 49 53 52 53 55 57 53 58 64 68 71 71 70 67 62 57 58 57 56 52 50 48 40 37 33 41 45 37 35 34 33 33 31 30 31 32 34 35 36
58 58 56 59 60 65 68 71 71 68 61 50 46 52 56 56 55 56 59 58 58 58 64 68 74 75 74 70 67 62 58 59 59 57 50 48 46 41 42 38 40 45 39 36 35 34 33 33 32 32 34 35 36 37
49 59 55 56 57 63 65 65 62 59 52 52 53 57 58 58 57 57 58 59 62 66 71 75 77 77 70 61 54 50 41 41 43 48 44 47 46 41 41 41 42 45 42 38 35 34 35 34 33 33 33 35 37 39
42 46 50 54 59 61 61 59 57 55 55 56 55 56 56 54 55 56 58 60 66 70 73 75 68 57 54 44 41 39 34 28 27 36 42 49 45 43 41 39 43 43 41 38 36 35 35 34 34 33 33 36 38 39
40 40 52 55 58 61 60 58 56 55 57 55 54 53 53 51 53 56 56 63 68 68 64 58 47 46 49 44 36 38 30 27 38 45 46 46 45 42 37 33 40 45 45 40 38 36 35 35 34 33 34 36 38 40
39 40 46 54 55 55 55 54 53 53 54 54 51 49 49 48 50 50 55 57 55 54 47 40 39 50 40 39 41 38 31 27 26 39 46 47 43 40 35 33 39 42 42 40 39 37 36 35 35 35 35 36 38 41
42 45 49 52 54 53 51 50 52 54 48 43 41 41 42 43 40 42 44 32 33 43 39 37 41 34 33 37 34 31 31 31 34 39 38 35 39 38 38 36 41 45 43 40 39 39 38 36 35 33 33 35 38 41
48 48 51 52 52 50 51 52 52 42 37 36 34 37 32 30 33 33 24 11 18 32 40 42 28 16 26 21 15 23 26 25 32 33 31 30 35 35 37 37 39 41 41 40 38 36 35 34 31 31 33 36 38 42
47 49 49 49 48 48 47 41 35 34 33 32 29 26 23 25 25 23 19 20 18 31 30 22 26 18 18 17 16 14 23 32 29 28 33 33 33 34 41 40 37 36 34 35 33 30 30 29 30 32 35 37 39 42
48 47 45 45 43 35 29 29 30 31 30 29 28 29 24 24 21 11 11 16 17 27 27 17 18 16 11 13 15 16 21 28 29 29 31 29 30 33 36 41 38 33 31 26 25 25 26 28 30 33 36 38 40 42
44 43 39 34 31 30 29 30 31 29 28 31 42 33 22 22 14 9 9 7 16 29 20 20 20 17 18 17 18 28 30 29 29 28 27 28 30 30 29 30 29 26 23 21 22 24 27 28 30 34 37 37 39 43
34 32 32 29 29 29 27 28 30 34 32 37 30 26 25 20 16 9 7 10 15 27 19 15 16 20 16 16 23 27 25 25 23 22 25 26 22 27 27 23 22 19 18 20 23 25 26 28 31 34 35 37 40 43
31 31 29 26 25 26 28 29 38 40 36 32 28 26 21 17 11 6 7 10 19 23 12 6 12 16 14 18 22 24 25 23 21 23 25 26 30 33 27 21 18 17 20 22 23 25 26 29 31 33 35 37 40 43
30 29 31 32 26 28 28 41 37 47 40 33 24 21 16 12 11 14 11 10 23 27 12 11 10 11 14 17 21 21 20 23 23 22 20 20 21 21 20 17 17 20 21 22 23 24 26 28 30 32 34 37 40 43
27 29 30 30 24 27 32 27 42 43 46 38 26 20 18 14 13 14 10 11 19 17 14 14 14 15 17 20 23 25 26 24 22 21 20 20 18 17 16 18 20 21 22 22 22 23 25 27 29 30 33 36 38 41
29 28 24 26 27 29 29 26 32 44 42 34 25 16 16 17 18 18 21 15 19 19 17 16 16 18 17 19 21 20 18 17 17 17 17 17 16 17 18 20 21 22 21 20 21 22 24 25 26 29 32 35 38 41